LiveATC.Net - Listen to live air traffic control over the Internet!
Airport/ARTCC Code
Frequency Search
(e.g., 124.400, 128.75)
Site-wide search
 


Browse Feeds
Top 50 Feeds
HF Oceanic Feeds
Coverage Map
Bad Weather Areas

LiveATC FAQ
Offer LiveATC feed
Contact LiveATC.net
Press Inquiries

LiveATC on iPhone
LiveATC on Android

LiveATC Mobile
(Mobile browser)

ATC Audio Archives
Interesting Recordings

LiveATC Forums

Home Page
About LiveATC.net


Terms of Use
Privacy Policy

AIRMETs/SIGMETs

FAA Airport Status
NAS Status
Arrival Demand


Server Software By:
Icecast.org
Liquidsoap

Select an area of interest:
U.S. Feeds: Class B Airports | Class C Airports | Class D/Other Airports | ARTCC (Centers)
International Feeds: Canada | Europe | Oceania | Asia | South America | North/Central America | Africa
Misc Feeds: HF Feeds
Search by ICAO/IATA airport code:   (e.g., kbos, kjfk, lax, eham, etc.)


Currently Available Live Feeds: 2990
Status Updated: Sun Feb 05 2023 02:17:04 UTC


NOTICE

Unauthorized use prohibited. See LiveATC.net Terms of Service

International Airport Feeds

 

EFJY Tower (Archives)
Jyvaskyla, Finland

Feed Status: UP
Listen in your browser - HTML5 player(in browser, HTML5)
Click here to listen with your own player(launches your MP3 player)

EFJY 050150Z AUTO 21005KT 170V230 9999 -SN OVC003 M13/M14 Q1028

EFJY Flight Activity (Flightaware)

Listeners: 1 out of 1709 total

Jyvaskyla Tower: 118.000
Jyvaskyla Tower: 119.700

EFKU Tower/Approach
Siilinjarvi, Finland

Feed Status: DOWN
Offline since: 2022-12-21 15:24:39 UTC

EFKU 050150Z AUTO 13002KT CAVOK M14/M16 Q1027

Kuopio Approach: 130.600
Kuopio Tower: 120.150

Dutch Mil Radar (Archives)
Amsterdam, Netherlands

Feed Status: UP
Listen in your browser - HTML5 player(in browser, HTML5)
Click here to listen with your own player(launches your MP3 player)

EHLE 050155Z AUTO 25006KT 4300 BR FEW048 07/07 Q1036

EHLE Flight Activity (Flightaware)

Listeners: 1 out of 1709 total

Approach: 124.530
Dutch Mil Flight Info: 264.325
Dutch Mil Radar: 128.355
Dutch Mil Radar: 132.350

EHAA Radar ARTIP (Archives)
Amsterdam, Netherlands

Feed Status: UP
Listen in your browser - HTML5 player(in browser, HTML5)
Click here to listen with your own player(launches your MP3 player)

EHAM 050155Z 26008KT 9999 FEW008 08/06 Q1036 BECMG 6000 -RADZ BKN008

EHAM Flight Activity (Flightaware)

Listeners: 2 out of 1709 total

EHAA Radar Sector 1 ARTIP: 120.550

EHAA Radar East Inbound
Amsterdam, Netherlands

Feed Status: DOWN
Offline since: 2022-12-23 22:30:40 UTC

EHAM 050155Z 26008KT 9999 FEW008 08/06 Q1036 BECMG 6000 -RADZ BKN008

EHAA Radar Sector 2 East Inbound: 128.575

EHAA Radar East Outbound (Archives)
Amsterdam, Netherlands

Feed Status: UP
Listen in your browser - HTML5 player(in browser, HTML5)
Click here to listen with your own player(launches your MP3 player)

EHAM 050155Z 26008KT 9999 FEW008 08/06 Q1036 BECMG 6000 -RADZ BKN008

EHAM Flight Activity (Flightaware)

Listeners: 0 out of 1709 total

EHAA Radar Sector 2 East Outbound: 124.875

EHAA Radar North
Amsterdam, Netherlands

Feed Status: DOWN
Offline since: 2022-12-23 22:20:39 UTC

EHAM 050155Z 26008KT 9999 FEW008 08/06 Q1036 BECMG 6000 -RADZ BKN008

EHAA Radar Sector 1 North: 134.375

EHAA Radar Northwest (Archives)
Amsterdam, Netherlands

Feed Status: UP
Listen in your browser - HTML5 player(in browser, HTML5)
Click here to listen with your own player(launches your MP3 player)

EHAM 050155Z 26008KT 9999 FEW008 08/06 Q1036 BECMG 6000 -RADZ BKN008

EHAM Flight Activity (Flightaware)

Listeners: 0 out of 1709 total

EHAA Radar Sector 5 Northwest: 123.705

EHAA Radar RIVER
Amsterdam, Netherlands

Feed Status: DOWN
Offline since: 2022-12-23 22:30:40 UTC

EHAM 050155Z 26008KT 9999 FEW008 08/06 Q1036 BECMG 6000 -RADZ BKN008

EHAA Radar Sector 3 RIVER: 130.950

EHAA Radar South (Archives)
Amsterdam, Netherlands

Feed Status: UP
Listen in your browser - HTML5 player(in browser, HTML5)
Click here to listen with your own player(launches your MP3 player)

EHAM 050155Z 26008KT 9999 FEW008 08/06 Q1036 BECMG 6000 -RADZ BKN008

EHAM Flight Activity (Flightaware)

Listeners: 0 out of 1709 total

EHAA Radar Sector 3 South: 123.850

EHAA Radar South (Backup) (Archives)
Amsterdam, Netherlands

Feed Status: UP
Listen in your browser - HTML5 player(in browser, HTML5)
Click here to listen with your own player(launches your MP3 player)

EHAM 050155Z 26008KT 9999 FEW008 08/06 Q1036 BECMG 6000 -RADZ BKN008

EHAM Flight Activity (Flightaware)

Listeners: 0 out of 1709 total

EHAA Radar Sector 3 South Backup : 127.775

EHAA Radar Southwest (Archives)
Amsterdam, Netherlands

Feed Status: UP
Listen in your browser - HTML5 player(in browser, HTML5)
Click here to listen with your own player(launches your MP3 player)

EHAM 050155Z 26008KT 9999 FEW008 08/06 Q1036 BECMG 6000 -RADZ BKN008

EHAM Flight Activity (Flightaware)

Listeners: 0 out of 1709 total

EHAA Radar Sector 4 Southwest: 125.750

EHAA Radar SUGOL (Archives)
Amsterdam, Netherlands

Feed Status: UP
Listen in your browser - HTML5 player(in browser, HTML5)
Click here to listen with your own player(launches your MP3 player)

EHAM 050155Z 26008KT 9999 FEW008 08/06 Q1036 BECMG 6000 -RADZ BKN008

EHAM Flight Activity (Flightaware)

Listeners: 0 out of 1709 total

EHAA Radar Sector 5 SUGOL: 118.800

EHAM Airside Ops Mgr (AOM)
Amsterdam, Netherlands

Feed Status: DOWN
Offline since: 2022-12-23 22:30:40 UTC

EHAM 050155Z 26008KT 9999 FEW008 08/06 Q1036 BECMG 6000 -RADZ BKN008

Schiphol Airside Operations Manager: 130.475

EHAM App/Dep Backup (Archives)
Amsterdam, Netherlands

Feed Status: UP
Listen in your browser - HTML5 player(in browser, HTML5)
Click here to listen with your own player(launches your MP3 player)

EHAM 050155Z 26008KT 9999 FEW008 08/06 Q1036 BECMG 6000 -RADZ BKN008

EHAM Flight Activity (Flightaware)

Listeners: 0 out of 1709 total

Schiphol App/Dep Backup: 118.075

EHAM App/Dep TMA East (Archives)
Amsterdam, Netherlands

Feed Status: UP
Listen in your browser - HTML5 player(in browser, HTML5)
Click here to listen with your own player(launches your MP3 player)

EHAM 050155Z 26008KT 9999 FEW008 08/06 Q1036 BECMG 6000 -RADZ BKN008

EHAM Flight Activity (Flightaware)

Listeners: 1 out of 1709 total

Amsterdam Approach/Departure TMA East: 119.055

EHAM App/Dep TMA West (Archives)
Amsterdam, Netherlands

Feed Status: UP
Listen in your browser - HTML5 player(in browser, HTML5)
Click here to listen with your own player(launches your MP3 player)

EHAM 050155Z 26008KT 9999 FEW008 08/06 Q1036 BECMG 6000 -RADZ BKN008

EHAM Flight Activity (Flightaware)

Listeners: 1 out of 1709 total

Amsterdam Approach/Departure TMA West: 121.200

EHAM Apron (North) (Archives)
Amsterdam, Netherlands

Feed Status: UP
Listen in your browser - HTML5 player(in browser, HTML5)
Click here to listen with your own player(launches your MP3 player)

EHAM 050155Z 26008KT 9999 FEW008 08/06 Q1036 BECMG 6000 -RADZ BKN008

EHAM Flight Activity (Flightaware)

Listeners: 0 out of 1709 total

Schiphol Apron (North): 121.880

EHAM Apron (South) (Archives)
Amsterdam, Netherlands

Feed Status: UP
Listen in your browser - HTML5 player(in browser, HTML5)
Click here to listen with your own player(launches your MP3 player)

EHAM 050155Z 26008KT 9999 FEW008 08/06 Q1036 BECMG 6000 -RADZ BKN008

EHAM Flight Activity (Flightaware)

Listeners: 0 out of 1709 total

Schiphol Apron (South): 121.780

EHAM Arrival (Primary) (Archives)
Amsterdam, Netherlands

Feed Status: UP
Listen in your browser - HTML5 player(in browser, HTML5)
Click here to listen with your own player(launches your MP3 player)

EHAM 050155Z 26008KT 9999 FEW008 08/06 Q1036 BECMG 6000 -RADZ BKN008

EHAM Flight Activity (Flightaware)

Listeners: 2 out of 1709 total

Amsterdam Arrival : 118.400

EHAM Arrival (Secondary)
Amsterdam, Netherlands

Feed Status: DOWN
Offline since: 2022-12-23 22:30:40 UTC

EHAM 050155Z 26008KT 9999 FEW008 08/06 Q1036 BECMG 6000 -RADZ BKN008

Amsterdam Arrival (Secondary): 131.150

EHAM Arrival (Secondary/Backup)
Amsterdam, Netherlands

Feed Status: DOWN
Offline since: 2022-12-23 22:25:06 UTC

EHAM 050155Z 26008KT 9999 FEW008 08/06 Q1036 BECMG 6000 -RADZ BKN008

Amsterdam Arrival (Secondary Backup): 131.275

EHAM Arrival Backup/Discrete (Archives)
Amsterdam, Netherlands

Feed Status: UP
Listen in your browser - HTML5 player(in browser, HTML5)
Click here to listen with your own player(launches your MP3 player)

EHAM 050155Z 26008KT 9999 FEW008 08/06 Q1036 BECMG 6000 -RADZ BKN008

EHAM Flight Activity (Flightaware)

Listeners: 0 out of 1709 total

Schiphol Arrival Backup: 126.675

EHAM ATIS (Arrival)
Amsterdam, Netherlands

Feed Status: DOWN
Offline since: 2022-12-23 22:20:39 UTC

EHAM 050155Z 26008KT 9999 FEW008 08/06 Q1036 BECMG 6000 -RADZ BKN008

Schiphol ATIS (Arrival): 132.980

EHAM ATIS (Departure)
Amsterdam, Netherlands

Feed Status: DOWN
Offline since: 2022-12-23 22:08:21 UTC

EHAM 050155Z 26008KT 9999 FEW008 08/06 Q1036 BECMG 6000 -RADZ BKN008

Schiphol ATIS (Departure): 122.205

EHAM Clearance Delivery (Archives)
Amsterdam, Netherlands

Feed Status: UP
Listen in your browser - HTML5 player(in browser, HTML5)
Click here to listen with your own player(launches your MP3 player)

EHAM 050155Z 26008KT 9999 FEW008 08/06 Q1036 BECMG 6000 -RADZ BKN008

EHAM Flight Activity (Flightaware)

Listeners: 0 out of 1709 total

Schiphol Clearance Delivery: 121.980

EHAM Ground (Backup) (Archives)
Amsterdam, Netherlands

Feed Status: UP
Listen in your browser - HTML5 player(in browser, HTML5)
Click here to listen with your own player(launches your MP3 player)

EHAM 050155Z 26008KT 9999 FEW008 08/06 Q1036 BECMG 6000 -RADZ BKN008

EHAM Flight Activity (Flightaware)

Listeners: 0 out of 1709 total

Schiphol Ground (Backup): 122.425

EHAM Ground (North) (Archives)
Amsterdam, Netherlands

Feed Status: UP
Listen in your browser - HTML5 player(in browser, HTML5)
Click here to listen with your own player(launches your MP3 player)

EHAM 050155Z 26008KT 9999 FEW008 08/06 Q1036 BECMG 6000 -RADZ BKN008

EHAM Flight Activity (Flightaware)

Listeners: 0 out of 1709 total

Schiphol Ground (North): 121.805

EHAM Ground (South) (Archives)
Amsterdam, Netherlands

Feed Status: UP
Listen in your browser - HTML5 player(in browser, HTML5)
Click here to listen with your own player(launches your MP3 player)

EHAM 050155Z 26008KT 9999 FEW008 08/06 Q1036 BECMG 6000 -RADZ BKN008

EHAM Flight Activity (Flightaware)

Listeners: 0 out of 1709 total

Schiphol Ground (South): 121.705

EHAM Ground (West) (Archives)
Amsterdam, Netherlands

Feed Status: UP
Listen in your browser - HTML5 player(in browser, HTML5)
Click here to listen with your own player(launches your MP3 player)

EHAM 050155Z 26008KT 9999 FEW008 08/06 Q1036 BECMG 6000 -RADZ BKN008

EHAM Flight Activity (Flightaware)

Listeners: 0 out of 1709 total

Schiphol Ground (West): 121.560

EHAM Info North Sea (North) (Archives)
Amsterdam, Netherlands

Feed Status: UP
Listen in your browser - HTML5 player(in browser, HTML5)
Click here to listen with your own player(launches your MP3 player)

EHAM 050155Z 26008KT 9999 FEW008 08/06 Q1036 BECMG 6000 -RADZ BKN008

EHAM Flight Activity (Flightaware)

Listeners: 0 out of 1709 total

Amsterdam Info North Sea (North): 119.175

EHAM Info North Sea (Over Land) (Archives)
Amsterdam, Netherlands

Feed Status: UP
Listen in your browser - HTML5 player(in browser, HTML5)
Click here to listen with your own player(launches your MP3 player)

EHAM 050155Z 26008KT 9999 FEW008 08/06 Q1036 BECMG 6000 -RADZ BKN008

EHAM Flight Activity (Flightaware)

Listeners: 0 out of 1709 total

Amsterdam Info North Sea (Over Land): 124.300

EHAM Info North Sea (South)
Amsterdam, Netherlands

Feed Status: DOWN
Offline since: 2022-03-10 10:29:38 UTC

EHAM 050155Z 26008KT 9999 FEW008 08/06 Q1036 BECMG 6000 -RADZ BKN008

Amsterdam Info North Sea (South): 136.650

EHAM Schiphol Outbound Planner (Archives)
Amsterdam, Netherlands

Feed Status: UP
Listen in your browser - HTML5 player(in browser, HTML5)
Click here to listen with your own player(launches your MP3 player)

EHAM 050155Z 26008KT 9999 FEW008 08/06 Q1036 BECMG 6000 -RADZ BKN008

EHAM Flight Activity (Flightaware)

Listeners: 0 out of 1709 total

Schiphol Outbound Planner: 121.655

EHAM Tow Traffic
Amsterdam, Netherlands

Feed Status: DOWN
Offline since: 2022-03-10 10:29:38 UTC

EHAM 050155Z 26008KT 9999 FEW008 08/06 Q1036 BECMG 6000 -RADZ BKN008

Schiphol Tow Traffic: 134.875

EHAM Tower (06/24)
Amsterdam, Netherlands

Feed Status: DOWN
Offline since: 2022-12-23 22:08:21 UTC

EHAM 050155Z 26008KT 9999 FEW008 08/06 Q1036 BECMG 6000 -RADZ BKN008

Schiphol Tower Main 06/24: 135.110

EHAM Tower (18C/36C-27/09) (Archives)
Amsterdam, Netherlands

Feed Status: UP
Listen in your browser - HTML5 player(in browser, HTML5)
Click here to listen with your own player(launches your MP3 player)

EHAM 050155Z 26008KT 9999 FEW008 08/06 Q1036 BECMG 6000 -RADZ BKN008

EHAM Flight Activity (Flightaware)

Listeners: 0 out of 1709 total

Schiphol Tower Main 18C/36C - 27/09: 118.100

EHAM Tower (18L/36R-22/04) (Archives)
Amsterdam, Netherlands

Feed Status: UP
Listen in your browser - HTML5 player(in browser, HTML5)
Click here to listen with your own player(launches your MP3 player)

EHAM 050155Z 26008KT 9999 FEW008 08/06 Q1036 BECMG 6000 -RADZ BKN008

EHAM Flight Activity (Flightaware)

Listeners: 1 out of 1709 total

Schiphol Tower Main 18L/36R - 22/04: 119.225

EHAM Tower Backup (Archives)
Amsterdam, Netherlands

Feed Status: UP
Listen in your browser - HTML5 player(in browser, HTML5)
Click here to listen with your own player(launches your MP3 player)

EHAM 050155Z 26008KT 9999 FEW008 08/06 Q1036 BECMG 6000 -RADZ BKN008

EHAM Flight Activity (Flightaware)

Listeners: 0 out of 1709 total

Schiphol Tower Backup: 119.905

EHAM Tower West (18R/36L) (Archives)
Amsterdam, Netherlands

Feed Status: UP
Listen in your browser - HTML5 player(in browser, HTML5)
Click here to listen with your own player(launches your MP3 player)

EHAM 050155Z 26008KT 9999 FEW008 08/06 Q1036 BECMG 6000 -RADZ BKN008

EHAM Flight Activity (Flightaware)

Listeners: 0 out of 1709 total

Schiphol Tower West 18R/36L: 118.280

EHBK ATIS (Archives)
Beek, Netherlands

Feed Status: UP
Listen in your browser - HTML5 player(in browser, HTML5)
Click here to listen with your own player(launches your MP3 player)

EHBK 050155Z AUTO 25004KT 3100 BR FEW006 SCT007 BKN008 07/07 Q1036

EHBK Flight Activity (Flightaware)

Listeners: 0 out of 1709 total

Beek ATIS: 124.575

EHBK Gnd/Twr/App (Archives)
Beek, Netherlands

Feed Status: UP
Listen in your browser - HTML5 player(in browser, HTML5)
Click here to listen with your own player(launches your MP3 player)

EHBK 050155Z AUTO 25004KT 3100 BR FEW006 SCT007 BKN008 07/07 Q1036

EHBK Flight Activity (Flightaware)

Listeners: 0 out of 1709 total

Beek Approach: 120.200
Beek Approach: 123.975
Beek Ground: 121.825
Beek Tower: 119.475
Beek Tower: 119.700

MUAC/Eurocontrol Koksy (Archives)
Beek, Netherlands

Feed Status: UP
Listen in your browser - HTML5 player(in browser, HTML5)
Click here to listen with your own player(launches your MP3 player)

EHBK 050155Z AUTO 25004KT 3100 BR FEW006 SCT007 BKN008 07/07 Q1036

EHBK Flight Activity (Flightaware)

Listeners: 0 out of 1709 total

MUAC Koksy Sector: 132.205

MUAC/Eurocontrol Koksy High (Archives)
Beek, Netherlands

Feed Status: UP
Listen in your browser - HTML5 player(in browser, HTML5)
Click here to listen with your own player(launches your MP3 player)

EHBK 050155Z AUTO 25004KT 3100 BR FEW006 SCT007 BKN008 07/07 Q1036

EHBK Flight Activity (Flightaware)

Listeners: 0 out of 1709 total

MUAC Koksy High Sector: 132.755

MUAC/Eurocontrol Lux High (Archives)
Beek, Netherlands

Feed Status: UP
Listen in your browser - HTML5 player(in browser, HTML5)
Click here to listen with your own player(launches your MP3 player)

EHBK 050155Z AUTO 25004KT 3100 BR FEW006 SCT007 BKN008 07/07 Q1036

EHBK Flight Activity (Flightaware)

Listeners: 0 out of 1709 total

MUAC Lux High Sector: 132.315

MUAC/Eurocontrol Lux Low (Archives)
Beek, Netherlands

Feed Status: UP
Listen in your browser - HTML5 player(in browser, HTML5)
Click here to listen with your own player(launches your MP3 player)

EHBK 050155Z AUTO 25004KT 3100 BR FEW006 SCT007 BKN008 07/07 Q1036

EHBK Flight Activity (Flightaware)

Listeners: 0 out of 1709 total

MUAC Lux Low Sector: 133.355

MUAC/Eurocontrol Olno Low (Archives)
Beek, Netherlands

Feed Status: UP
Listen in your browser - HTML5 player(in browser, HTML5)
Click here to listen with your own player(launches your MP3 player)

EHBK 050155Z AUTO 25004KT 3100 BR FEW006 SCT007 BKN008 07/07 Q1036

EHBK Flight Activity (Flightaware)

Listeners: 0 out of 1709 total

MUAC Olno Low Sector: 132.855

MUAC/Eurocontrol Ruhr (Archives)
Beek, Netherlands

Feed Status: UP
Listen in your browser - HTML5 player(in browser, HTML5)
Click here to listen with your own player(launches your MP3 player)

EHBK 050155Z AUTO 25004KT 3100 BR FEW006 SCT007 BKN008 07/07 Q1036

EHBK Flight Activity (Flightaware)

Listeners: 0 out of 1709 total

MUAC Ruhr Sector: 124.425

EHEH Approach #1 (Archives)
Eindhoven, Netherlands

Feed Status: UP
Listen in your browser - HTML5 player(in browser, HTML5)
Click here to listen with your own player(launches your MP3 player)

EHEH 050155Z AUTO 26005KT 230V300 2600 BR BKN003 OVC004 07/07 Q1036 YLO

EHEH Flight Activity (Flightaware)

Listeners: 1 out of 1709 total

DutchMil Info: 132.355
DutchMil Info UHF: 341.600
DutchMil RAPCON South: 123.180
Eindhoven Arrival: 125.530
Eindhoven Arrival (UHF): 265.975
Emergency/Guard: 121.500
Rapcon South UHF: 388.525
Volkel Arrival UHF: 291.200

EHEH Tower #1 (Archives)
Eindhoven, Netherlands

Feed Status: UP
Listen in your browser - HTML5 player(in browser, HTML5)
Click here to listen with your own player(launches your MP3 player)

EHEH 050155Z AUTO 26005KT 230V300 2600 BR BKN003 OVC004 07/07 Q1036 YLO

EHEH Flight Activity (Flightaware)

Listeners: 0 out of 1709 total

Eindhoven Tower: 131.005
Eindhoven Tower (UHF): 241.550
Generic Tower: 122.100
Generic Tower (UHF): 257.800
Volkel Tower: 136.080
Volkel Tower (UHF): 291.100

EHGG Approach (Archives)
Groningen, Netherlands

Feed Status: UP
Listen in your browser - HTML5 player(in browser, HTML5)
Click here to listen with your own player(launches your MP3 player)

EHGG 050155Z AUTO 19003KT 160V230 2800 -SHUP FEW001 SCT012 BKN019 04/03 Q1034 REDZ

EHGG Flight Activity (Flightaware)

Listeners: 0 out of 1709 total

Eelde Approach: 120.305

EHGG ATIS (Archives)
Groningen, Netherlands

Feed Status: UP
Listen in your browser - HTML5 player(in browser, HTML5)
Click here to listen with your own player(launches your MP3 player)

EHGG 050155Z AUTO 19003KT 160V230 2800 -SHUP FEW001 SCT012 BKN019 04/03 Q1034 REDZ

EHGG Flight Activity (Flightaware)

Listeners: 0 out of 1709 total

Groningen ATIS: 133.555

EHGG Ground (Archives)
Groningen, Netherlands

Feed Status: UP
Listen in your browser - HTML5 player(in browser, HTML5)
Click here to listen with your own player(launches your MP3 player)

EHGG 050155Z AUTO 19003KT 160V230 2800 -SHUP FEW001 SCT012 BKN019 04/03 Q1034 REDZ

EHGG Flight Activity (Flightaware)

Listeners: 0 out of 1709 total

Eelde Clearance Delivery/Ground: 121.705

EHGG Guard/Emergency (Archives)
Groningen, Netherlands

Feed Status: UP
Listen in your browser - HTML5 player(in browser, HTML5)
Click here to listen with your own player(launches your MP3 player)

EHGG 050155Z AUTO 19003KT 160V230 2800 -SHUP FEW001 SCT012 BKN019 04/03 Q1034 REDZ

EHGG Flight Activity (Flightaware)

Listeners: 0 out of 1709 total

Emergency/Guard: 121.500

EHGG Tower (Archives)
Groningen, Netherlands

Feed Status: UP
Listen in your browser - HTML5 player(in browser, HTML5)
Click here to listen with your own player(launches your MP3 player)

EHGG 050155Z AUTO 19003KT 160V230 2800 -SHUP FEW001 SCT012 BKN019 04/03 Q1034 REDZ

EHGG Flight Activity (Flightaware)

Listeners: 2 out of 1709 total

Eelde Tower: 118.705

EHGG Twr/App (Secondary) (Archives)
Groningen, Netherlands

Feed Status: UP
Listen in your browser - HTML5 player(in browser, HTML5)
Click here to listen with your own player(launches your MP3 player)

EHGG 050155Z AUTO 19003KT 160V230 2800 -SHUP FEW001 SCT012 BKN019 04/03 Q1034 REDZ

EHGG Flight Activity (Flightaware)

Listeners: 0 out of 1709 total

Eelde Tower/App (Backup): 119.705

MUAC/Eurocontrol (EHGG Area) (Archives)
Groningen, Netherlands

Feed Status: UP
Listen in your browser - HTML5 player(in browser, HTML5)
Click here to listen with your own player(launches your MP3 player)

EHGG 050155Z AUTO 19003KT 160V230 2800 -SHUP FEW001 SCT012 BKN019 04/03 Q1034 REDZ

EHGG Flight Activity (Flightaware)

Listeners: 0 out of 1709 total

MUAC Holstein High Sector: 132.775
MUAC Holstein Sector: 120.9333
MUAC Javer High Sector: 134.700
MUAC Jever Sector: 136.4666

EHGR Ground (Archives)
Breda, Netherlands

Feed Status: UP
Listen in your browser - HTML5 player(in browser, HTML5)
Click here to listen with your own player(launches your MP3 player)

EHGR 050155Z AUTO 25004KT 2500 BR FEW001 OVC053 07/07 Q1037 YLO

EHGR Flight Activity (Flightaware)

Listeners: 0 out of 1709 total

Gilze Rijen Ground: 121.680

EHGR Ground/Tower (Archives)
Breda, Netherlands

Feed Status: UP
Listen in your browser - HTML5 player(in browser, HTML5)
Click here to listen with your own player(launches your MP3 player)

EHGR 050155Z AUTO 25004KT 2500 BR FEW001 OVC053 07/07 Q1037 YLO

EHGR Flight Activity (Flightaware)

Listeners: 0 out of 1709 total

Gilze Rijen Ground: 121.680
Gilze Rijen Tower: 125.330

EHGR Tower (Archives)
Breda, Netherlands

Feed Status: UP
Listen in your browser - HTML5 player(in browser, HTML5)
Click here to listen with your own player(launches your MP3 player)

EHGR 050155Z AUTO 25004KT 2500 BR FEW001 OVC053 07/07 Q1037 YLO

EHGR Flight Activity (Flightaware)

Listeners: 0 out of 1709 total

Gilze Rijen Tower: 125.330

EHHV CTAF
Hilversum, Netherlands

Feed Status: DOWN
Offline since: 2023-01-20 04:59:05 UTC

Hilversum Radio: 131.030

EHKD ATIS (Archives)
Den Helder, Netherlands

Feed Status: UP
Listen in your browser - HTML5 player(in browser, HTML5)
Click here to listen with your own player(launches your MP3 player)

EHKD 050155Z AUTO 27008KT 9999 SCT038 SCT043 BKN060 07/06 Q1035 BLU

EHKD Flight Activity (Flightaware)

Listeners: 0 out of 1709 total

De Kooy ATIS: 133.015

EHKD Ground/Tower (Archives)
Den Helder, Netherlands

Feed Status: UP
Listen in your browser - HTML5 player(in browser, HTML5)
Click here to listen with your own player(launches your MP3 player)

EHKD 050155Z AUTO 27008KT 9999 SCT038 SCT043 BKN060 07/06 Q1035 BLU

EHKD Flight Activity (Flightaware)

Listeners: 0 out of 1709 total

De Kooy Ground: 121.730
De Kooy Tower: 120.130

Approach/Dutch Mil Radar (Archives)
Lelystad, Netherlands

Feed Status: UP
Listen in your browser - HTML5 player(in browser, HTML5)
Click here to listen with your own player(launches your MP3 player)

EHLE 050155Z AUTO 25006KT 4300 BR FEW048 07/07 Q1036

EHLE Flight Activity (Flightaware)

Listeners: 1 out of 1709 total

Approach: 124.530
Dutch Mil Flight Info: 264.325
Dutch Mil Radar: 128.355
Dutch Mil Radar: 132.350

EHLE App/Dep (Archives)
Lelystad, Netherlands

Feed Status: UP
Listen in your browser - HTML5 player(in browser, HTML5)
Click here to listen with your own player(launches your MP3 player)

EHLE 050155Z AUTO 25006KT 4300 BR FEW048 07/07 Q1036

EHLE Flight Activity (Flightaware)

Listeners: 0 out of 1709 total

Lelystad Approach: 134.530

EHLE Clearance Delivery (Archives)
Lelystad, Netherlands

Feed Status: UP
Listen in your browser - HTML5 player(in browser, HTML5)
Click here to listen with your own player(launches your MP3 player)

EHLE 050155Z AUTO 25006KT 4300 BR FEW048 07/07 Q1036

EHLE Flight Activity (Flightaware)

Listeners: 0 out of 1709 total

Lelystad Clearance Delivery: 123.680

EHLE FIC (Archives)
Lelystad, Netherlands

Feed Status: UP
Listen in your browser - HTML5 player(in browser, HTML5)
Click here to listen with your own player(launches your MP3 player)

EHLE 050155Z AUTO 25006KT 4300 BR FEW048 07/07 Q1036

EHLE Flight Activity (Flightaware)

Listeners: 0 out of 1709 total

FIC Amsterdam Information: 124.300

EHLE Tower (Archives)
Lelystad, Netherlands

Feed Status: UP
Listen in your browser - HTML5 player(in browser, HTML5)
Click here to listen with your own player(launches your MP3 player)

EHLE 050155Z AUTO 25006KT 4300 BR FEW048 07/07 Q1036

EHLE Flight Activity (Flightaware)

Listeners: 0 out of 1709 total

Lelystad Tower: 135.180
Lelystad Tower: 123.830

EHMM CTAF (Archives)
Middenmeer, Netherlands

Feed Status: UP
Listen in your browser - HTML5 player(in browser, HTML5)
Click here to listen with your own player(launches your MP3 player)

EHMM Flight Activity (Flightaware)

Listeners: 0 out of 1709 total

Middenmeer CTAF: 123.425

EHMZ (Archives)
Middelburg, Netherlands

Feed Status: UP
Listen in your browser - HTML5 player(in browser, HTML5)
Click here to listen with your own player(launches your MP3 player)

EHMZ Flight Activity (Flightaware)

Listeners: 0 out of 1709 total

Midden-Zeeland Radio: 119.255

EHRD Approach (Archives)
Rotterdam, Netherlands

Feed Status: UP
Listen in your browser - HTML5 player(in browser, HTML5)
Click here to listen with your own player(launches your MP3 player)

EHRD 050155Z AUTO 26006KT 230V290 9999 NSC 08/07 Q1036 NOSIG

EHRD Flight Activity (Flightaware)

Listeners: 2 out of 1709 total

Rotterdam Approach: 122.990
Rotterdam Approach: 124.535
Rotterdam Approach: 281.050

EHRD Clearance Delivery (Archives)
Rotterdam, Netherlands

Feed Status: UP
Listen in your browser - HTML5 player(in browser, HTML5)
Click here to listen with your own player(launches your MP3 player)

EHRD 050155Z AUTO 26006KT 230V290 9999 NSC 08/07 Q1036 NOSIG

EHRD Flight Activity (Flightaware)

Listeners: 1 out of 1709 total

Rotterdam Del/Gnd: 122.180

EHRD Del/Twr (Archives)
Rotterdam, Netherlands

Feed Status: UP
Listen in your browser - HTML5 player(in browser, HTML5)
Click here to listen with your own player(launches your MP3 player)

EHRD 050155Z AUTO 26006KT 230V290 9999 NSC 08/07 Q1036 NOSIG

EHRD Flight Activity (Flightaware)

Listeners: 1 out of 1709 total

Rotterdam Del/Gnd: 122.180
Rotterdam Tower: 118.205

EHRD Gnd/Twr/App (Archives)
Rotterdam, Netherlands

Feed Status: UP
Listen in your browser - HTML5 player(in browser, HTML5)
Click here to listen with your own player(launches your MP3 player)

EHRD 050155Z AUTO 26006KT 230V290 9999 NSC 08/07 Q1036 NOSIG

EHRD Flight Activity (Flightaware)

Listeners: 1 out of 1709 total

Adam Info: 124.300
Regional Guard: 119.705
Rotterdam Approach: 127.025
Rotterdam Del/Gnd: 122.180
Rotterdam Tower: 118.205
SAR: 123.100
SAR: 282.800

EHRD Tower (Archives)
Rotterdam, Netherlands

Feed Status: UP
Listen in your browser - HTML5 player(in browser, HTML5)
Click here to listen with your own player(launches your MP3 player)

EHRD 050155Z AUTO 26006KT 230V290 9999 NSC 08/07 Q1036 NOSIG

EHRD Flight Activity (Flightaware)

Listeners: 1 out of 1709 total

Rotterdam Tower: 118.205
Rotterdam Tower: 362.300

EHRD Twr/App
Rotterdam, Netherlands

Feed Status: DOWN
Offline since: 2020-03-14 14:15:39 UTC

EHRD 050155Z AUTO 26006KT 230V290 9999 NSC 08/07 Q1036 NOSIG

Rotterdam Approach: 127.025
Rotterdam Tower: 118.205

EHVL CTAF/Range Control
Vlieland, Netherlands

Feed Status: DOWN
Offline since: 2021-06-08 14:20:38 UTC

EHVL 050155Z AUTO 26011KT 9999 FEW048 BKN057 OVC066 07/06 Q1034 BLU

Cornfield VHF (CTAF): 122.100
Range Controller (Primary): 291.650
Range Controller (Secondary): 370.300
Range Controller VHF: 138.075

EICK Approach/Departure (Archives)
Cork, Ireland

Feed Status: UP
Listen in your browser - HTML5 player(in browser, HTML5)
Click here to listen with your own player(launches your MP3 player)

EICK 050130Z 10005KT 9999 FEW015 03/01 Q1043 NOSIG

EICK Flight Activity (Flightaware)

Listeners: 0 out of 1709 total

Cork Approach: 119.900

EICK Gnd/Twr/App/Dep (Archives)
Cork, Ireland

Feed Status: UP
Listen in your browser - HTML5 player(in browser, HTML5)
Click here to listen with your own player(launches your MP3 player)

EICK 050130Z 10005KT 9999 FEW015 03/01 Q1043 NOSIG

EICK Flight Activity (Flightaware)

Listeners: 1 out of 1709 total

Cork Approach: 119.900
Cork Ground: 121.850
Cork Tower: 119.300

EICK Ground/Tower (Archives)
Cork, Ireland

Feed Status: UP
Listen in your browser - HTML5 player(in browser, HTML5)
Click here to listen with your own player(launches your MP3 player)

EICK 050130Z 10005KT 9999 FEW015 03/01 Q1043 NOSIG

EICK Flight Activity (Flightaware)

Listeners: 0 out of 1709 total

Cork Ground: 121.850
Cork Tower: 119.300

EIDW Approach (Archives)
Dublin, Ireland

Feed Status: UP
Listen in your browser - HTML5 player(in browser, HTML5)
Click here to listen with your own player(launches your MP3 player)

EIDW 050130Z 31009KT 9999 FEW014 00/M01 Q1045 NOSIG

EIDW Flight Activity (Flightaware)

Listeners: 1 out of 1709 total

Dublin Approach: 121.100

EIDW Approach (Final) (Archives)
Dublin, Ireland

Feed Status: UP
Listen in your browser - HTML5 player(in browser, HTML5)
Click here to listen with your own player(launches your MP3 player)

EIDW 050130Z 31009KT 9999 FEW014 00/M01 Q1045 NOSIG

EIDW Flight Activity (Flightaware)

Listeners: 0 out of 1709 total

Dublin Approach (Final): 119.930

EIDW Clearance Delivery (Archives)
Dublin, Ireland

Feed Status: UP
Listen in your browser - HTML5 player(in browser, HTML5)
Click here to listen with your own player(launches your MP3 player)

EIDW 050130Z 31009KT 9999 FEW014 00/M01 Q1045 NOSIG

EIDW Flight Activity (Flightaware)

Listeners: 1 out of 1709 total

Dublin Clearance Delivery: 121.875

EIDW Del/Gnd/Twr/App/Center (Archives)
Dublin, Ireland

Feed Status: UP
Listen in your browser - HTML5 player(in browser, HTML5)
Click here to listen with your own player(launches your MP3 player)

EIDW 050130Z 31009KT 9999 FEW014 00/M01 Q1045 NOSIG

EIDW Flight Activity (Flightaware)

Listeners: 6 out of 1709 total

Dublin Approach: 121.100
Dublin Approach (backup): 119.555
Dublin Centre North: 129.175
Dublin Centre South: 126.250
Dublin Clearance Delivery: 121.875
Dublin FIS: 118.500
Dublin Ground: 121.800
Dublin Tower: 118.600

EIDW Dublin Center (Archives)
Dublin, Ireland

Feed Status: UP
Listen in your browser - HTML5 player(in browser, HTML5)
Click here to listen with your own player(launches your MP3 player)

EIDW 050130Z 31009KT 9999 FEW014 00/M01 Q1045 NOSIG

EIDW Flight Activity (Flightaware)

Listeners: 0 out of 1709 total

Dublin Center: 120.755

EIDW Ground (Archives)
Dublin, Ireland

Feed Status: UP
Listen in your browser - HTML5 player(in browser, HTML5)
Click here to listen with your own player(launches your MP3 player)

EIDW 050130Z 31009KT 9999 FEW014 00/M01 Q1045 NOSIG

EIDW Flight Activity (Flightaware)

Listeners: 0 out of 1709 total

Dublin Ground: 121.800

EIDW Tower #1 (Archives)
Dublin, Ireland

Feed Status: UP
Listen in your browser - HTML5 player(in browser, HTML5)
Click here to listen with your own player(launches your MP3 player)

EIDW 050130Z 31009KT 9999 FEW014 00/M01 Q1045 NOSIG

EIDW Flight Activity (Flightaware)

Listeners: 1 out of 1709 total

Dublin Tower: 118.600

EIDW Tower (North) (Archives)
Dublin, Ireland

Feed Status: UP
Listen in your browser - HTML5 player(in browser, HTML5)
Click here to listen with your own player(launches your MP3 player)

EIDW 050130Z 31009KT 9999 FEW014 00/M01 Q1045 NOSIG

EIDW Flight Activity (Flightaware)

Listeners: 0 out of 1709 total

Dublin Tower (North): 124.680

EIKN Gnd/Twr/App (Archives)
Charlestown, Ireland

Feed Status: UP
Listen in your browser - HTML5 player(in browser, HTML5)
Click here to listen with your own player(launches your MP3 player)


EIKN Flight Activity (Flightaware)

Listeners: 0 out of 1709 total

Connaught Ground: 121.900
Connaught Tower: 130.700
Shannon Low Level: 119.075

EINN Shannon Control High (East) (Archives)
Shannon, Ireland

Feed Status: UP
Listen in your browser - HTML5 player(in browser, HTML5)
Click here to listen with your own player(launches your MP3 player)

EINN 050130Z 07003KT 9999 R24/P2000 R06/P2000 MIFG FEW002 00/M01 Q1045 NOSIG

EINN Flight Activity (Flightaware)

Listeners: 0 out of 1709 total

Shannon Clearance (Oceanic only): 121.700
Shannon Control: 134.260
Shannon Control: 134.630
Shannon Control: 135.230
Shannon Control: 135.600
Shannon Control: 136.255
Shannon Control (BABAN/DEVOL Sector): 132.150

EINN Shannon Control High (West/Coastal) (Archives)
Shannon, Ireland

Feed Status: UP
Listen in your browser - HTML5 player(in browser, HTML5)
Click here to listen with your own player(launches your MP3 player)

EINN 050130Z 07003KT 9999 R24/P2000 R06/P2000 MIFG FEW002 00/M01 Q1045 NOSIG

EINN Flight Activity (Flightaware)

Listeners: 0 out of 1709 total

Shannon Control: 131.150
Shannon Control: 125.880
Shannon Control: 120.040
Shannon Control: 122.980
Shannon Control: 127.130
Shannon Control: 129.665
Shannon Control: 133.360

EINN Shannon Control Low (Archives)
Shannon, Ireland

Feed Status: UP
Listen in your browser - HTML5 player(in browser, HTML5)
Click here to listen with your own player(launches your MP3 player)

EINN 050130Z 07003KT 9999 R24/P2000 R06/P2000 MIFG FEW002 00/M01 Q1045 NOSIG

EINN Flight Activity (Flightaware)

Listeners: 0 out of 1709 total

Shannon Control (Low): 119.080
Shannon Control Low: 124.700

EINN Twr/App #1 (Archives)
Shannon, Ireland

Feed Status: UP
Listen in your browser - HTML5 player(in browser, HTML5)
Click here to listen with your own player(launches your MP3 player)

EINN 050130Z 07003KT 9999 R24/P2000 R06/P2000 MIFG FEW002 00/M01 Q1045 NOSIG

EINN Flight Activity (Flightaware)

Listeners: 1 out of 1709 total

Aer Lingus Ops: 131.500
Service Air Ops: 131.450
Shannon Approach Radar: 121.400
Shannon Control: Misc
Shannon Ground: 121.800
Shannon Tower: 118.700
Sig Ops (Pre-Clearance): 131.590

ENAL Twr/App (Archives)
Alesund, Norway

Feed Status: UP
Listen in your browser - HTML5 player(in browser, HTML5)
Click here to listen with your own player(launches your MP3 player)

ENAL 050150Z AUTO 27012KT 9999 FEW042/// 06/M00 Q1026

ENAL Flight Activity (Flightaware)

Listeners: 0 out of 1709 total

More Approach: 129.325
More Approach: 119.350
Vigra Tower: 118.100

ENAT Twr/App/Control
Alta, Norway

Feed Status: DOWN
Offline since: 2023-02-05 01:00:22 UTC

ENAT 050150Z AUTO 15010KT 9999 NCD M03/M07 Q1015 RMK WIND 700FT 18016KT

Alta Tower (to boat, Harbour Channel 12): 156.600
Alta Tower (to vehicle): 462.400
Alta Tower/Approach: 120.400
Norway Control: 126.700

ENBO Approach (Archives)
Bodo, Norway

Feed Status: UP
Listen in your browser - HTML5 player(in browser, HTML5)
Click here to listen with your own player(launches your MP3 player)

ENBO 050150Z AUTO 10020KT 9999 OVC033/// 01/M02 Q1011

ENBO Flight Activity (Flightaware)

Listeners: 0 out of 1709 total

Bodo Approach: 119.700

ENBO Tower (Archives)
Bodo, Norway

Feed Status: UP
Listen in your browser - HTML5 player(in browser, HTML5)
Click here to listen with your own player(launches your MP3 player)

ENBO 050150Z AUTO 10020KT 9999 OVC033/// 01/M02 Q1011

ENBO Flight Activity (Flightaware)

Listeners: 0 out of 1709 total

Bodo Tower: 118.100

ENCN Tower/Approach (Archives)
Kristiansand, Norway

Feed Status: UP
Listen in your browser - HTML5 player(in browser, HTML5)
Click here to listen with your own player(launches your MP3 player)

ENCN 050150Z AUTO 20014KT 4300 -RASN BKN002/// OVC004/// 04/04 Q1028 RERA

ENCN Flight Activity (Flightaware)

Listeners: 0 out of 1709 total

Kjevik Tower: 118.100
Kjevik Tower/Approach: 119.950

ENGM App/Polaris ACC (Archives)
Honefoss, Norway

Feed Status: UP
Listen in your browser - HTML5 player(in browser, HTML5)
Click here to listen with your own player(launches your MP3 player)

ENEG Flight Activity (Flightaware)

Listeners: 0 out of 1709 total

ENGM Approach (East): 118.475
ENGM Approach (West): 120.450
Polaris ACC Sector 4: 118.875
Polaris ACC Sector 7: 124.775
Polaris ACC Sector 8: 134.350

ENEV Twr/App/ACC (Archives)
Evenes, Norway

Feed Status: UP
Listen in your browser - HTML5 player(in browser, HTML5)
Click here to listen with your own player(launches your MP3 player)

ENEV 050150Z 20008KT 2900 -SN VV014 01/M02 Q1012 RMK WIND 1400FT 18010KT

ENEV Flight Activity (Flightaware)

Listeners: 2 out of 1709 total

Evenes Approach: 120.100
Evenes Tower: 118.000
Norway ACC (Bodo Sector 25): 126.450

ENGK Info (Archives)
Arendal, Norway

Feed Status: UP
Listen in your browser - HTML5 player(in browser, HTML5)
Click here to listen with your own player(launches your MP3 player)


ENGK Flight Activity (Flightaware)

Listeners: 0 out of 1709 total

Gullknapp Info: 129.900

ENGM App/Director/Final (Archives)
Oslo, Norway

Feed Status: UP
Listen in your browser - HTML5 player(in browser, HTML5)
Click here to listen with your own player(launches your MP3 player)

ENGM 050150Z 17006KT 7000 -SN OVC004 M02/M03 Q1028

ENGM Flight Activity (Flightaware)

Listeners: 0 out of 1709 total

Oslo Approach: 120.450
Oslo Approach: 118.475
Oslo Approach (Final): 128.900
Oslo Director: 136.400
Oslo Director: 119.975

ENGM App/Polaris ACC (Archives)
Oslo, Norway

Feed Status: UP
Listen in your browser - HTML5 player(in browser, HTML5)
Click here to listen with your own player(launches your MP3 player)

ENEG Flight Activity (Flightaware)

Listeners: 0 out of 1709 total

ENGM Approach (East): 118.475
ENGM Approach (West): 120.450
Polaris ACC Sector 4: 118.875
Polaris ACC Sector 7: 124.775
Polaris ACC Sector 8: 134.350

ENGM Tower (Archives)
Oslo, Norway

Feed Status: UP
Listen in your browser - HTML5 player(in browser, HTML5)
Click here to listen with your own player(launches your MP3 player)

ENGM 050150Z 17006KT 7000 -SN OVC004 M02/M03 Q1028

ENGM Flight Activity (Flightaware)

Listeners: 1 out of 1709 total

Oslo Tower (East): 120.100
Oslo Tower (West): 118.300

ENHD Tower (Archives)
Haugesund, Norway

Feed Status: UP
Listen in your browser - HTML5 player(in browser, HTML5)
Click here to listen with your own player(launches your MP3 player)

ENHD 050150Z AUTO 33012KT 9999 FEW011/// BKN027/// 06/03 Q1029

ENHD Flight Activity (Flightaware)

Listeners: 0 out of 1709 total

Karmoy Tower: 120.500

ENJB CTAF (Archives)
Tonsberg, Norway

Feed Status: UP
Listen in your browser - HTML5 player(in browser, HTML5)
Click here to listen with your own player(launches your MP3 player)

ENTO 050150Z AUTO 19014KT 9999 BKN010/// OVC014/// 01/00 Q1030

ENTO Flight Activity (Flightaware)

Listeners: 0 out of 1709 total

Jarlsberg CTAF: 122.300

ENLI CTAF
Farsund, Norway

Feed Status: DOWN
Offline since: 2023-02-02 01:02:21 UTC

Lista Traffic/Lista Radio: 126.450

ENOR Sector 8 (Archives)
Moss, Norway

Feed Status: UP
Listen in your browser - HTML5 player(in browser, HTML5)
Click here to listen with your own player(launches your MP3 player)

ENOR Flight Activity (Flightaware)

Listeners: 0 out of 1709 total

Norway Center (FIR) Sector 8: 118.875

ENRY Tower (Archives)
Moss, Norway

Feed Status: UP
Listen in your browser - HTML5 player(in browser, HTML5)
Click here to listen with your own player(launches your MP3 player)

ENRY 050150Z AUTO 18013KT 9999NDV BKN014/// OVC018/// 02/M01 Q1031

ENRY Flight Activity (Flightaware)

Listeners: 0 out of 1709 total

Rygge Tower: 119.500

ENTC Tower/App
Langnes, Norway

Feed Status: DOWN
Offline since: 2023-01-27 11:32:22 UTC

ENTC 050150Z AUTO 18005KT 100V250 9999 SCT039/// BKN051/// 01/M04 Q1011 RMK WIND 2600FT 17034KT

Langnes Tower: 118.300
Langnes VDF (Approach): 123.750

ENTO App/Dep (Archives)
Sandefjord, Norway

Feed Status: UP
Listen in your browser - HTML5 player(in browser, HTML5)
Click here to listen with your own player(launches your MP3 player)

ENTO 050150Z AUTO 19014KT 9999 BKN010/// OVC014/// 01/00 Q1030

ENTO Flight Activity (Flightaware)

Listeners: 0 out of 1709 total

Sandefjord Approach (TMA): 134.050

ENTO Control Sector 4 (Archives)
Sandefjord, Norway

Feed Status: UP
Listen in your browser - HTML5 player(in browser, HTML5)
Click here to listen with your own player(launches your MP3 player)

ENTO 050150Z AUTO 19014KT 9999 BKN010/// OVC014/// 01/00 Q1030

ENTO Flight Activity (Flightaware)

Listeners: 0 out of 1709 total

Norway control Sector 4: 118.875

ENTO Tower (Archives)
Sandefjord, Norway

Feed Status: UP
Listen in your browser - HTML5 player(in browser, HTML5)
Click here to listen with your own player(launches your MP3 player)

ENTO 050150Z AUTO 19014KT 9999 BKN010/// OVC014/// 01/00 Q1030

ENTO Flight Activity (Flightaware)

Listeners: 2 out of 1709 total

Sandefjord Tower: 118.650

ENTO Tower/App (Archives)
Sandefjord, Norway

Feed Status: UP
Listen in your browser - HTML5 player(in browser, HTML5)
Click here to listen with your own player(launches your MP3 player)

ENTO 050150Z AUTO 19014KT 9999 BKN010/// OVC014/// 01/00 Q1030

ENTO Flight Activity (Flightaware)

Listeners: 0 out of 1709 total

ENJB Tonsberg Airport - Jarlsberg - CTAF: 122.300
Farris Approach (TCA): 134.050
Sandefjord Tower: 118.650

ENTO Twr/App (Archives)
Sandefjord, Norway

Feed Status: UP
Listen in your browser - HTML5 player(in browser, HTML5)
Click here to listen with your own player(launches your MP3 player)

ENTO 050150Z AUTO 19014KT 9999 BKN010/// OVC014/// 01/00 Q1030

ENTO Flight Activity (Flightaware)

Listeners: 0 out of 1709 total

Sandefjord Approach (TMA): 134.050
Sandefjord Tower: 118.650

ENVA Gnd/Twr/App (Archives)
Trondheim, Norway

Feed Status: UP
Listen in your browser - HTML5 player(in browser, HTML5)
Click here to listen with your own player(launches your MP3 player)

ENVA 050120Z VRB03KT 9999 -SN SCT016 BKN029 02/M01 Q1021 RMK WIND 670FT 28006KT

ENVA Flight Activity (Flightaware)

Listeners: 0 out of 1709 total

Trondheim Approach: 118.600
Trondheim Ground: 121.600
Trondheim Tower: 119.400

ENZV Gnd/Twr/App (Archives)
Stavanger, Norway

Feed Status: UP
Listen in your browser - HTML5 player(in browser, HTML5)
Click here to listen with your own player(launches your MP3 player)

ENZV 050150Z AUTO 32013KT 9999 -RA BKN013/// BKN034/// OVC048/// 05/04 Q1029

ENZV Flight Activity (Flightaware)

Listeners: 0 out of 1709 total

Sola Approach/Departure: 119.600
Sola Ground: 121.750
Sola Tower: 118.350

EPGD Tower/Approach
Gdansk, Poland

Feed Status: DOWN
Offline since: 2022-11-28 02:06:39 UTC

EPGD 050130Z 33003KT 9999 BKN017 M05/M06 Q1036

Gdansk Approach: 127.275
Gdansk Tower: 118.100

EPKK Tower/App (Archives)
Krakow, Poland

Feed Status: UP
Listen in your browser - HTML5 player(in browser, HTML5)
Click here to listen with your own player(launches your MP3 player)

EPKK 050130Z 33006KT 9999 BKN057 M04/M07 Q1033

EPKK Flight Activity (Flightaware)

Listeners: 2 out of 1709 total

Krakow Approach: 121.075
Krakow Approach: 123.255
Krakow Tower: 123.255

EPKR CTAF (Archives)
Krosno, Poland

Feed Status: UP
Listen in your browser - HTML5 player(in browser, HTML5)
Click here to listen with your own player(launches your MP3 player)

EPKR Flight Activity (Flightaware)

Listeners: 0 out of 1709 total

Krosno CTAF: 119.555

EPKT Del/Twr/App (Archives)
Katowice, Poland

Feed Status: UP
Listen in your browser - HTML5 player(in browser, HTML5)
Click here to listen with your own player(launches your MP3 player)

EPKT 050130Z 35006KT 8000 -SHSN FEW016 FEW031CB BKN038 M03/M06 Q1033

EPKT Flight Activity (Flightaware)

Listeners: 0 out of 1709 total

Katowice Delivery: 121.800
Katowice Tower: 129.250
Krakow Approach: 135.400
Krakow Approach: 121.075

EPKT Delivery/Approach (Archives)
Katowice, Poland

Feed Status: UP
Listen in your browser - HTML5 player(in browser, HTML5)
Click here to listen with your own player(launches your MP3 player)

EPKT 050130Z 35006KT 8000 -SHSN FEW016 FEW031CB BKN038 M03/M06 Q1033

EPKT Flight Activity (Flightaware)

Listeners: 0 out of 1709 total

Katowice Delivery: 121.800
Krakow Approach: 121.075

EPKT Tower/Approach (Archives)
Katowice, Poland

Feed Status: UP
Listen in your browser - HTML5 player(in browser, HTML5)
Click here to listen with your own player(launches your MP3 player)

EPKT 050130Z 35006KT 8000 -SHSN FEW016 FEW031CB BKN038 M03/M06 Q1033

EPKT Flight Activity (Flightaware)

Listeners: 1 out of 1709 total

Katowice Tower: 129.250
Krakow Approach: 135.400

EPLL Tower (Archives)
Lodz, Poland

Feed Status: UP
Listen in your browser - HTML5 player(in browser, HTML5)
Click here to listen with your own player(launches your MP3 player)

EPLL 050130Z 35004KT 320V020 CAVOK M05/M06 Q1035

EPLL Flight Activity (Flightaware)

Listeners: 0 out of 1709 total

Lodz Tower: 124.230

EPLS CTAF/Radio (Archives)
Leszno, Poland

Feed Status: UP
Listen in your browser - HTML5 player(in browser, HTML5)
Click here to listen with your own player(launches your MP3 player)

EPLS Flight Activity (Flightaware)

Listeners: 0 out of 1709 total

Leszno Radio: 122.305

EPPO Twr/App/FIS (Archives)
Poznan, Poland

Feed Status: UP
Listen in your browser - HTML5 player(in browser, HTML5)
Click here to listen with your own player(launches your MP3 player)

EPPO 050130Z 34003KT CAVOK M04/M05 Q1037

EPPO Flight Activity (Flightaware)

Listeners: 0 out of 1709 total

Poznan Approach: 129.025
Poznan Approach: 127.225
Poznan FIS: 126.300
Poznan Tower: 119.975

EPRZ Del/Twr/EPWW Radar
Jasionka, Poland

Feed Status: DOWN
Offline since: 2022-02-26 08:35:38 UTC

EPRZ 050130Z 35010KT 9999 BKN023 M03/M07 Q1031

EPWW Radar: 134.175
EPWW Radar: 120.950
Rzeszow Delivery: 121.800
Rzeszow Tower: 126.800

EPWA Approach #1 (Archives)
Warsaw, Poland

Feed Status: UP
Listen in your browser - HTML5 player(in browser, HTML5)
Click here to listen with your own player(launches your MP3 player)

EPWA 050130Z 33006KT 9999 BKN029 M04/M07 Q1034 NOSIG

EPWA Flight Activity (Flightaware)

Listeners: 1 out of 1709 total

Warsaw Approach: 128.805

EPWA Approach #2 (Archives)
Warsaw, Poland

Feed Status: UP
Listen in your browser - HTML5 player(in browser, HTML5)
Click here to listen with your own player(launches your MP3 player)

EPWA 050130Z 33006KT 9999 BKN029 M04/M07 Q1034 NOSIG

EPWA Flight Activity (Flightaware)

Listeners: 0 out of 1709 total

Warsaw Approach: 125.055

EPWA Ground (Archives)
Warsaw, Poland

Feed Status: UP
Listen in your browser - HTML5 player(in browser, HTML5)
Click here to listen with your own player(launches your MP3 player)

EPWA 050130Z 33006KT 9999 BKN029 M04/M07 Q1034 NOSIG

EPWA Flight Activity (Flightaware)

Listeners: 0 out of 1709 total

Warsaw Ground: 121.900

EPWA Tower (Archives)
Warsaw, Poland

Feed Status: UP
Listen in your browser - HTML5 player(in browser, HTML5)
Click here to listen with your own player(launches your MP3 player)

EPWA 050130Z 33006KT 9999 BKN029 M04/M07 Q1034 NOSIG

EPWA Flight Activity (Flightaware)

Listeners: 1 out of 1709 total

Warsaw Tower: 118.300

EPWR Twr/App
Wroclaw, Poland

Feed Status: DOWN
Offline since: 2023-01-12 12:42:39 UTC

EPPO 050130Z 34003KT CAVOK M04/M05 Q1037

Poznan Approach (South): 127.225

EPRZ Del/Twr/EPWW Radar
Jasionka, Poland

Feed Status: DOWN
Offline since: 2022-02-26 08:35:38 UTC

EPRZ 050130Z 35010KT 9999 BKN023 M03/M07 Q1031

EPWW Radar: 134.175
EPWW Radar: 120.950
Rzeszow Delivery: 121.800
Rzeszow Tower: 126.800

ESMQ Tower (Archives)
Kalmar, Sweden

Feed Status: UP
Listen in your browser - HTML5 player(in browser, HTML5)
Click here to listen with your own player(launches your MP3 player)

ESMQ 050150Z AUTO VRB01KT 9999 NCD M12/M13 Q1038

ESMQ Flight Activity (Flightaware)

Listeners: 1 out of 1709 total

Kalmar Tower: 130.805

ESMS Radar (Archives)
Svedala, Sweden

Feed Status: UP
Listen in your browser - HTML5 player(in browser, HTML5)
Click here to listen with your own player(launches your MP3 player)

ESMS 050150Z 13004KT CAVOK M03/M06 Q1037

ESMS Flight Activity (Flightaware)

Listeners: 0 out of 1709 total

Sweden Control (Sector L, Malmo): 134.980

ESMS Tower (Archives)
Svedala, Sweden

Feed Status: UP
Listen in your browser - HTML5 player(in browser, HTML5)
Click here to listen with your own player(launches your MP3 player)

ESMS 050150Z 13004KT CAVOK M03/M06 Q1037

ESMS Flight Activity (Flightaware)

Listeners: 0 out of 1709 total

Malmo Tower: 118.800

ESOE Tower/Control (Archives)
Orebro, Sweden

Feed Status: UP
Listen in your browser - HTML5 player(in browser, HTML5)
Click here to listen with your own player(launches your MP3 player)

ESOE 050150Z AUTO 22009KT 9999 OVC100/// M03/M07 Q1033

ESOE Flight Activity (Flightaware)

Listeners: 0 out of 1709 total

Orebro Tower: 120.275
Orebro Tower: 120.280
Sweden Control: 131.125
Sweden Control (aircraft only): 131.125

ESPA Twr/Control (Archives)
Lulea, Sweden

Feed Status: UP
Listen in your browser - HTML5 player(in browser, HTML5)
Click here to listen with your own player(launches your MP3 player)

ESPA 050150Z AUTO 34004KT 9999 OVC110/// M20/M22 Q1019

ESPA Flight Activity (Flightaware)

Listeners: 0 out of 1709 total

Emergency/Guard: 121.500
Kallax Control: 125.450
Kallax Tower: 128.200
Sweden Control North: 131.050

ESSG Misc (Archives)
Ludvika, Sweden

Feed Status: UP
Listen in your browser - HTML5 player(in browser, HTML5)
Click here to listen with your own player(launches your MP3 player)

ESSG Flight Activity (Flightaware)

Listeners: 0 out of 1709 total

Borlange Tower: 127.305
Club Frequency: 123.375
Club Frequency: 123.450
Club Frequency: 123.425
Club Frequency: 123.525
Club Frequency: 123.350
Club Frequency: 123.300
Club Frequency: 123.200
Club Frequency: 123.550
Club Frequency: 123.600
Club Frequency: 123.650
Emergency/Guard: 121.500
Hagfors Airport: 122.230
Karlstad Airport: 119.455
Ludvika Club Freq: 123.150
Mora Airport: 119.055
Orebro Airport: 120.280
Orsa Club Frequency: 123.400
Orsa Club Frequency: 123.500
Scandinavian Mountains Airport: 124.460
Search and Rescue: 123.100
Sweden Control: 131.055
Sweden Control: 131.125
Sweden Control: 131.155
Sweden Control: 132.765
Sweden Control: 131.130
Sweden Control: 129.180
Sweden Control: 128.630
Sweden Control: 132.150
Torsby Airport: 122.055
Vasteras Control: 125.955

ESSL Twr/App/Control (Archives)
Linkoping, Sweden

Feed Status: UP
Listen in your browser - HTML5 player(in browser, HTML5)
Click here to listen with your own player(launches your MP3 player)

ESSL 050150Z AUTO 19003KT 9999 OVC130/// M05/M10 Q1035

ESSL Flight Activity (Flightaware)

Listeners: 1 out of 1709 total

Emergency/Guard: 121.500
Linkoping Tower: 118.800
Linkoping Tower (Secondary): 123.400
Ostgota Control: 127.350
Ostgota Control: 126.400
Ostgota Control: 135.850
Ostgota Control: 132.950
Ostgota Control: 128.700
Ostgota Control (Malmen Sector): 133.100
Ostgota Control/Sweden Control: 118.400

ESSP Twr/App/Control (Archives)
Norrkoping, Sweden

Feed Status: UP
Listen in your browser - HTML5 player(in browser, HTML5)
Click here to listen with your own player(launches your MP3 player)

ESSP 050150Z AUTO 07002KT 9999 OVC130/// M09/M10 Q1035

ESSP Flight Activity (Flightaware)

Listeners: 1 out of 1709 total

Kungsangen Tower: 120.355
Osgota Approach/Departure: 132.955
Sweden Control: 118.280
Sweden Control: 118.405
Sweden Control: 134.455

ESVQ CTAF
Koping, Sweden

Feed Status: DOWN
Offline since: 2021-09-28 07:56:21 UTC

Koping CTAF: 123.150

EVRA Approach (Archives)
Riga, Latvia

Feed Status: UP
Listen in your browser - HTML5 player(in browser, HTML5)
Click here to listen with your own player(launches your MP3 player)

EVRA 050150Z 01007KT 9999 BKN016 M04/M06 Q1034 NOSIG

EVRA Flight Activity (Flightaware)

Listeners: 2 out of 1709 total

Riga Approach: 129.925

EVRA CTAF (Archives)
Riga, Latvia

Feed Status: UP
Listen in your browser - HTML5 player(in browser, HTML5)
Click here to listen with your own player(launches your MP3 player)

EVRA 050150Z 01007KT 9999 BKN016 M04/M06 Q1034 NOSIG

EVRA Flight Activity (Flightaware)

Listeners: 2 out of 1709 total

Riga Approach (evenings): 134.850
Riga CTAF: 123.950

EVRA FIC (Archives)
Riga, Latvia

Feed Status: UP
Listen in your browser - HTML5 player(in browser, HTML5)
Click here to listen with your own player(launches your MP3 player)

EVRA 050150Z 01007KT 9999 BKN016 M04/M06 Q1034 NOSIG

EVRA Flight Activity (Flightaware)

Listeners: 0 out of 1709 total

Riga FIC: 120.225

EVRA Tower/Guard (Archives)
Riga, Latvia

Feed Status: UP
Listen in your browser - HTML5 player(in browser, HTML5)
Click here to listen with your own player(launches your MP3 player)

EVRA 050150Z 01007KT 9999 BKN016 M04/M06 Q1034 NOSIG

EVRA Flight Activity (Flightaware)

Listeners: 0 out of 1709 total

Emergency/Guard: 121.500
Riga Tower: 118.100

EYVI Twr/App/Misc (Archives)
Vilnius, Lithuania

Feed Status: UP
Listen in your browser - HTML5 player(in browser, HTML5)
Click here to listen with your own player(launches your MP3 player)

EYVI 050150Z 35012KT 9999 -SN OVC011 M04/M07 Q1031 NOSIG

EYVI Flight Activity (Flightaware)

Listeners: 0 out of 1709 total

Emergency / GUARD: 121.500
FlyLAL, AirBaltic transit services: 131.900
FlyLAL, AirBaltic transit services: 131.600
FlyLAL, AirBaltic transit services: 131.500
Kaunas Approach (EYKA): 124.200
Vilnius Approach: 120.700
Vilnius Control: 132.275
Vilnius Control: 133.425
Vilnius Control: 133.300
Vilnius FIS: 123.850
Vilnius Tower: 118.200
Zokniai A/G (mil): 122.775

FIMP Twr/App/Ctr #1 (Archives)
Plaine Magnien, Mauritius

Feed Status: UP
Listen in your browser - HTML5 player(in browser, HTML5)
Click here to listen with your own player(launches your MP3 player)

FIMP 050100Z 10005KT 9999 VCSH SCT016 SCT050 26/23 Q1010


Listeners: 1 out of 1709 total

FIMP Approach: 119.100
FIMP Tower: 118.100
FMEE Approach/Departure: 127.200
Mauritius Centre: 129.300

FIMP Twr/App/Ctr #2 (Archives)
Plaine Magnien, Mauritius

Feed Status: UP
Listen in your browser - HTML5 player(in browser, HTML5)
Click here to listen with your own player(launches your MP3 player)

FIMP 050100Z 10005KT 9999 VCSH SCT016 SCT050 26/23 Q1010


Listeners: 1 out of 1709 total

FIMP Approach: 119.100
FIMP Tower: 118.100
Mauritius Centre: 129.300

FMEP Info (Archives)
Saint-Pierre, Reunion

Feed Status: UP
Listen in your browser - HTML5 player(in browser, HTML5)
Click here to listen with your own player(launches your MP3 player)

FMEP 050130Z AUTO 04005KT CAVOK 25/21 Q1009


Listeners: 0 out of 1709 total

Saint-Pierre Info: 122.400

FMMI Twr/App/Center (Archives)
Antananarivo, Madagascar

Feed Status: UP
Listen in your browser - HTML5 player(in browser, HTML5)
Click here to listen with your own player(launches your MP3 player)

FMMI 050130Z 05002KT 9999 FEW017CB BKN020 18/18 Q1015 NOSIG


Listeners: 0 out of 1709 total

Ivato Approach: 125.700
Ivato Tower: 120.100
Tana Control: 128.900

GOBD Gnd/Twr/App (Archives)
Dakar, Senegal

Feed Status: UP
Listen in your browser - HTML5 player(in browser, HTML5)
Click here to listen with your own player(launches your MP3 player)

GOBD 050130Z 01013KT 8000 NSC 20/09 Q1015 NOSIG


Listeners: 0 out of 1709 total

Dakar Approach/Departure: 120.500
Dakar Ground: 121.800
Dakar Tower: 118.800

HAAB Approach (Archives)
Addis Ababa, Ethiopia

Feed Status: UP
Listen in your browser - HTML5 player(in browser, HTML5)
Click here to listen with your own player(launches your MP3 player)

HAAB 050200Z 07006KT 9999 FEW025 10/07 Q1025 NOSIG


Listeners: 0 out of 1709 total

Bole Approach: 119.700

HAAB Ground (Archives)
Addis Ababa, Ethiopia

Feed Status: UP
Listen in your browser - HTML5 player(in browser, HTML5)
Click here to listen with your own player(launches your MP3 player)

HAAB 050200Z 07006KT 9999 FEW025 10/07 Q1025 NOSIG


Listeners: 0 out of 1709 total

Bole Ground: 121.900

HAAB Tower
Addis Ababa, Ethiopia

Feed Status: DOWN
Offline since: 2023-02-05 02:00:22 UTC

HAAB 050200Z 07006KT 9999 FEW025 10/07 Q1025 NOSIG

Bole Tower: 118.100

LBBG Twr/App (Archives)
Burgas, Bulgaria

Feed Status: UP
Listen in your browser - HTML5 player(in browser, HTML5)
Click here to listen with your own player(launches your MP3 player)

LBBG 050200Z AUTO 01010KT 9999 -SHRA SCT021/// SCT032/// 02/M01 Q1014 NOSIG

LBBG Flight Activity (Flightaware)

Listeners: 0 out of 1709 total

Burgas Approach: 125.100
Burgas Tower: 118.000

LBPD Tower (Archives)
Plovdiv, Bulgaria

Feed Status: UP
Listen in your browser - HTML5 player(in browser, HTML5)
Click here to listen with your own player(launches your MP3 player)

LBSF 050200Z AUTO 28015KT 8000 -SN FEW018/// OVC040/// M04/M06 Q1018 TEMPO 3000 SN BLSN BKN010

LBSF Flight Activity (Flightaware)

Listeners: 0 out of 1709 total

Plovdiv Tower: 125.500
Plovdiv Tower: 133.600

LBSF ATIS (Archives)
Sofia, Bulgaria

Feed Status: UP
Listen in your browser - HTML5 player(in browser, HTML5)
Click here to listen with your own player(launches your MP3 player)

LBSF 050200Z AUTO 28015KT 8000 -SN FEW018/// OVC040/// M04/M06 Q1018 TEMPO 3000 SN BLSN BKN010

LBSF Flight Activity (Flightaware)

Listeners: 0 out of 1709 total

Sofia ATIS: 126.680

LBSF Sofia Control East (Archives)
Sofia, Bulgaria

Feed Status: UP
Listen in your browser - HTML5 player(in browser, HTML5)
Click here to listen with your own player(launches your MP3 player)

LBSF 050200Z AUTO 28015KT 8000 -SN FEW018/// OVC040/// M04/M06 Q1018 TEMPO 3000 SN BLSN BKN010

LBSF Flight Activity (Flightaware)

Listeners: 1 out of 1709 total

Sofia Control (East/Middle Sector): 129.100
Sofia Control (Varna Sector): 134.700

LBSF Twr/App #1 (Archives)
Sofia, Bulgaria

Feed Status: UP
Listen in your browser - HTML5 player(in browser, HTML5)
Click here to listen with your own player(launches your MP3 player)

LBSF 050200Z AUTO 28015KT 8000 -SN FEW018/// OVC040/// M04/M06 Q1018 TEMPO 3000 SN BLSN BKN010

LBSF Flight Activity (Flightaware)

Listeners: 0 out of 1709 total

Sofia Approach: 123.700
Sofia Approach: 129.900
Sofia Tower: 118.100
Sofia Tower: 120.200

LBSF Twr/App #2 (Archives)
Sofia, Bulgaria

Feed Status: UP
Listen in your browser - HTML5 player(in browser, HTML5)
Click here to listen with your own player(launches your MP3 player)

LBSF 050200Z AUTO 28015KT 8000 -SN FEW018/// OVC040/// M04/M06 Q1018 TEMPO 3000 SN BLSN BKN010

LBSF Flight Activity (Flightaware)

Listeners: 0 out of 1709 total

Sofia Approach: 123.700
Sofia Tower: 118.100

LHBP Approach (Archives)
Budapest, Hungary

Feed Status: UP
Listen in your browser - HTML5 player(in browser, HTML5)
Click here to listen with your own player(launches your MP3 player)

LHBP 050200Z 35008KT 9999 VCSH SCT040 M02/M06 Q1031 NOSIG

LHBP Flight Activity (Flightaware)

Listeners: 1 out of 1709 total

Budapest Approach: 122.975
Budapest Approach (Upper): 123.860

LHBP Approach (Director) (Archives)
Budapest, Hungary

Feed Status: UP
Listen in your browser - HTML5 player(in browser, HTML5)
Click here to listen with your own player(launches your MP3 player)

LHBP 050200Z 35008KT 9999 VCSH SCT040 M02/M06 Q1031 NOSIG

LHBP Flight Activity (Flightaware)

Listeners: 3 out of 1709 total

Budapest Director: 119.510

LHBP ATIS (Archives)
Budapest, Hungary

Feed Status: UP
Listen in your browser - HTML5 player(in browser, HTML5)
Click here to listen with your own player(launches your MP3 player)

LHBP 050200Z 35008KT 9999 VCSH SCT040 M02/M06 Q1031 NOSIG

LHBP Flight Activity (Flightaware)

Listeners: 0 out of 1709 total

Budapest ATIS: 132.380

LHBP Clearance Delivery (Archives)
Budapest, Hungary

Feed Status: UP
Listen in your browser - HTML5 player(in browser, HTML5)
Click here to listen with your own player(launches your MP3 player)

LHBP 050200Z 35008KT 9999 VCSH SCT040 M02/M06 Q1031 NOSIG

LHBP Flight Activity (Flightaware)

Listeners: 0 out of 1709 total

Budapest Clearance Delivery: 134.540

LHBP Ground (Archives)
Budapest, Hungary

Feed Status: UP
Listen in your browser - HTML5 player(in browser, HTML5)
Click here to listen with your own player(launches your MP3 player)

LHBP 050200Z 35008KT 9999 VCSH SCT040 M02/M06 Q1031 NOSIG

LHBP Flight Activity (Flightaware)

Listeners: 2 out of 1709 total

Budapest Ground: 121.910

LHBP Info (Archives)
Budapest, Hungary

Feed Status: UP
Listen in your browser - HTML5 player(in browser, HTML5)
Click here to listen with your own player(launches your MP3 player)

LHBP 050200Z 35008KT 9999 VCSH SCT040 M02/M06 Q1031 NOSIG

LHBP Flight Activity (Flightaware)

Listeners: 1 out of 1709 total

Budapest Info: 119.350

LHBP Tower #2 (Archives)
Budapest, Hungary

Feed Status: UP
Listen in your browser - HTML5 player(in browser, HTML5)
Click here to listen with your own player(launches your MP3 player)

LHBP 050200Z 35008KT 9999 VCSH SCT040 M02/M06 Q1031 NOSIG

LHBP Flight Activity (Flightaware)

Listeners: 1 out of 1709 total

Budapest Tower: 118.100

LHBP Tower (Backup) (Archives)
Budapest, Hungary

Feed Status: UP
Listen in your browser - HTML5 player(in browser, HTML5)
Click here to listen with your own player(launches your MP3 player)

LHBP 050200Z 35008KT 9999 VCSH SCT040 M02/M06 Q1031 NOSIG

LHBP Flight Activity (Flightaware)

Listeners: 0 out of 1709 total


LHBP Twr/Info (Archives)
Budapest, Hungary

Feed Status: UP
Listen in your browser - HTML5 player(in browser, HTML5)
Click here to listen with your own player(launches your MP3 player)

LHBP 050200Z 35008KT 9999 VCSH SCT040 M02/M06 Q1031 NOSIG

LHBP Flight Activity (Flightaware)

Listeners: 1 out of 1709 total

Budapest Info: 119.350
Budapest Tower: 118.100

LHCC Control (East/West) (Archives)
Budapest, Hungary

Feed Status: UP
Listen in your browser - HTML5 player(in browser, HTML5)
Click here to listen with your own player(launches your MP3 player)

LHBP 050200Z 35008KT 9999 VCSH SCT040 M02/M06 Q1031 NOSIG

LHBP Flight Activity (Flightaware)

Listeners: 0 out of 1709 total

Budapest Control (East Low Sector): 120.375
Budapest Control (West Low Sector): 133.200

LHDC Info/Tower (Archives)
Debrecen, Hungary

Feed Status: UP
Listen in your browser - HTML5 player(in browser, HTML5)
Click here to listen with your own player(launches your MP3 player)

LHDC 050115Z AUTO 35011KT 320V020 CAVOK M03/M08 Q1029 NOSIG

LHDC Flight Activity (Flightaware)

Listeners: 0 out of 1709 total

Debrecen Info/Tower: 125.900

LHEM CTAF
Esztergom, Hungary

Feed Status: DOWN
Offline since: 2022-08-23 06:58:26 UTC

Esztergom CTAF: 126.850

LHFH CTAF (Archives)
Farkashegy, Hungary

Feed Status: UP
Listen in your browser - HTML5 player(in browser, HTML5)
Click here to listen with your own player(launches your MP3 player)

LHFH Flight Activity (Flightaware)

Listeners: 0 out of 1709 total

Farkashegy Info (CTAF): 125.610

LHOY CTAF
Ocseny, Hungary

Feed Status: DOWN
Offline since: 2022-01-07 14:33:22 UTC

Ocseny CTAF: 122.830

LHPR Info/AFIS
Gyor, Hungary

Feed Status: DOWN
Offline since: 2022-07-11 08:08:23 UTC

LHPR 050115Z AUTO 34017KT CAVOK M01/M06 Q1033

Gyor AFIS: 129.910

LJLJ Info (Archives)
Ljubljana, Slovenia

Feed Status: UP
Listen in your browser - HTML5 player(in browser, HTML5)
Click here to listen with your own player(launches your MP3 player)

LJLJ 050130Z VRB02KT 9999 SCT070 M03/M06 Q1032 NOSIG

LJLJ Flight Activity (Flightaware)

Listeners: 0 out of 1709 total

Ljubljana Info: 118.475

LJLJ Radar (Archives)
Ljubljana, Slovenia

Feed Status: UP
Listen in your browser - HTML5 player(in browser, HTML5)
Click here to listen with your own player(launches your MP3 player)

LJLJ 050130Z VRB02KT 9999 SCT070 M03/M06 Q1032 NOSIG

LJLJ Flight Activity (Flightaware)

Listeners: 0 out of 1709 total

Ljubljana Approach: 135.275

LJLJ Tower (Archives)
Ljubljana, Slovenia

Feed Status: UP
Listen in your browser - HTML5 player(in browser, HTML5)
Click here to listen with your own player(launches your MP3 player)

LJLJ 050130Z VRB02KT 9999 SCT070 M03/M06 Q1032 NOSIG

LJLJ Flight Activity (Flightaware)

Listeners: 0 out of 1709 total

Ljubljana Tower: 118.000

LJMB Tower (Archives)
Maribor, Slovenia

Feed Status: UP
Listen in your browser - HTML5 player(in browser, HTML5)
Click here to listen with your own player(launches your MP3 player)

LJMB 050130Z AUTO 10005KT 9999 NSC M01/M05 Q1033

LJMB Flight Activity (Flightaware)

Listeners: 0 out of 1709 total

Maribor Tower/Approach: 119.200

LJMS CTAF
Murska Sobota, Slovenia

Feed Status: DOWN
Offline since: 2022-11-12 04:27:06 UTC

Murska Sobota Aerodrome Radio: 123.500

LJPZ Tower (Archives)
Secovlje, Slovenia

Feed Status: UP
Listen in your browser - HTML5 player(in browser, HTML5)
Click here to listen with your own player(launches your MP3 player)

LJPZ 050130Z AUTO 00000KT 9999 BKN070/// 05/M05 Q1031

LJPZ Flight Activity (Flightaware)

Listeners: 0 out of 1709 total

Portoroz Tower: 124.875

LKPM Tower (Archives)
Pribram, Czech Republic

Feed Status: UP
Listen in your browser - HTML5 player(in browser, HTML5)
Click here to listen with your own player(launches your MP3 player)

LKPM Flight Activity (Flightaware)

Listeners: 0 out of 1709 total

Pribram Tower: 118.755

LKAA FIR (High) (Archives)
Prague, Czech Republic

Feed Status: UP
Listen in your browser - HTML5 player(in browser, HTML5)
Click here to listen with your own player(launches your MP3 player)

LKAA Flight Activity (Flightaware)

Listeners: 1 out of 1709 total

LKAA FIR Sector West High / Praha Radar : 132.065

LKAA FIR (Low) (Archives)
Prague, Czech Republic

Feed Status: UP
Listen in your browser - HTML5 player(in browser, HTML5)
Click here to listen with your own player(launches your MP3 player)

LKAA Flight Activity (Flightaware)

Listeners: 1 out of 1709 total

LKAA FIR Sector West Low / Praha Radar: 120.275

LKPR Approach (Archives)
Prague, Czech Republic

Feed Status: UP
Listen in your browser - HTML5 player(in browser, HTML5)
Click here to listen with your own player(launches your MP3 player)

LKPR 050130Z 01005KT 9999 FEW038 M04/M08 Q1037 NOSIG

LKPR Flight Activity (Flightaware)

Listeners: 1 out of 1709 total

Prague Approach/Radar: 127.580

LKPR Clearance Del (Archives)
Prague, Czech Republic

Feed Status: UP
Listen in your browser - HTML5 player(in browser, HTML5)
Click here to listen with your own player(launches your MP3 player)

LKPR 050130Z 01005KT 9999 FEW038 M04/M08 Q1037 NOSIG

LKPR Flight Activity (Flightaware)

Listeners: 0 out of 1709 total

Prague/Ruzyne Clearance Delivery: 120.060

LKPR Director/Ruzyne Radar (Archives)
Prague, Czech Republic

Feed Status: UP
Listen in your browser - HTML5 player(in browser, HTML5)
Click here to listen with your own player(launches your MP3 player)

LKPR 050130Z 01005KT 9999 FEW038 M04/M08 Q1037 NOSIG

LKPR Flight Activity (Flightaware)

Listeners: 1 out of 1709 total

Prague Director/Ruzyne Radar: 119.010

LKPR Ground (Archives)
Prague, Czech Republic

Feed Status: UP
Listen in your browser - HTML5 player(in browser, HTML5)
Click here to listen with your own player(launches your MP3 player)

LKPR 050130Z 01005KT 9999 FEW038 M04/M08 Q1037 NOSIG

LKPR Flight Activity (Flightaware)

Listeners: 0 out of 1709 total

Prague/Ruzyne Ground: 121.910

LKPR Tower (Archives)
Prague, Czech Republic

Feed Status: UP
Listen in your browser - HTML5 player(in browser, HTML5)
Click here to listen with your own player(launches your MP3 player)

LKPR 050130Z 01005KT 9999 FEW038 M04/M08 Q1037 NOSIG

LKPR Flight Activity (Flightaware)

Listeners: 2 out of 1709 total

Prague/Ruzyne Tower: 134.560

LKTB Gnd/Twr/Radar (Archives)
Brno, Czech Republic

Feed Status: UP
Listen in your browser - HTML5 player(in browser, HTML5)
Click here to listen with your own player(launches your MP3 player)

LKTB 050130Z 33014KT CAVOK M02/M08 Q1035 NOSIG

LKTB Flight Activity (Flightaware)

Listeners: 0 out of 1709 total

Brno Ground: 125.430
Brno Handling: 131.800
Brno Tower: 119.605
Praha Radar (Approach): 127.350

LMML GndTwr/App/Control (Archives)
Luqa, Malta

Feed Status: UP
Listen in your browser - HTML5 player(in browser, HTML5)
Click here to listen with your own player(launches your MP3 player)

LMML 050145Z 32006KT 9999 FEW049 10/08 Q1020 NOSIG

LMML Flight Activity (Flightaware)

Listeners: 0 out of 1709 total

Emergency/Guard: 121.500
Luqa Ground: 121.600
Luqa Radar: 128.150
Luqa Tower: 135.100
Malta Radar - East (Primary): 122.775
Malta Radar - East (Secondary): 123.625
Malta Radar - UHF: 284.500
Malta Radar - West (Primary): 130.975
Malta Radar - West (Secondary): 127.525

LPLA Twr/App (Archives)
Lajes, Portugal

Feed Status: UP
Listen in your browser - HTML5 player(in browser, HTML5)
Click here to listen with your own player(launches your MP3 player)

LPLA 050100Z /////KT 9999 SCT012 15/14 Q1035

LPLA Flight Activity (Flightaware)

Listeners: 0 out of 1709 total

Lajes Approach: 135.000
Lajes Tower: 122.100

LPMA App/LPPC Center
Madeira, Portugal

Feed Status: DOWN
Offline since: 2022-11-13 20:36:06 UTC

Lisboa Control (Madeira Sector): 132.255
Madeira Approach: 119.605

LPMA Approach (Archives)
Madeira, Portugal

Feed Status: UP
Listen in your browser - HTML5 player(in browser, HTML5)
Click here to listen with your own player(launches your MP3 player)

LPMA 050130Z 36015KT 330V030 9999 SCT015 16/09 Q1030

LPMA Flight Activity (Flightaware)

Listeners: 0 out of 1709 total

Madeira Approach: 119.605

LPPR Approach #1 (Archives)
Porto, Portugal

Feed Status: UP
Listen in your browser - HTML5 player(in browser, HTML5)
Click here to listen with your own player(launches your MP3 player)

LPPR 050130Z 10004KT 7000 NSC 06/05 Q1032

LPPR Flight Activity (Flightaware)

Listeners: 1 out of 1709 total

Porto Approach: 121.105

LPPT Approach (Archives)
Lisbon, Portugal

Feed Status: UP
Listen in your browser - HTML5 player(in browser, HTML5)
Click here to listen with your own player(launches your MP3 player)

LPPT 050130Z 33008KT CAVOK 12/02 Q1030

LPPT Flight Activity (Flightaware)

Listeners: 2 out of 1709 total

Lisbon Approach: 119.105

LRCL Twr/App #1 (Archives)
Cluj-Napoca, Romania

Feed Status: UP
Listen in your browser - HTML5 player(in browser, HTML5)
Click here to listen with your own player(launches your MP3 player)

LRCL 050130Z 31010KT 9999 OVC051 M04/M09 Q1024

LRCL Flight Activity (Flightaware)

Listeners: 1 out of 1709 total

Cluj Approach: 126.425
Cluj Tower: 118.705

LRCL Twr/App/ACC (Archives)
Cluj-Napoca, Romania

Feed Status: UP
Listen in your browser - HTML5 player(in browser, HTML5)
Click here to listen with your own player(launches your MP3 player)

LRCL 050130Z 31010KT 9999 OVC051 M04/M09 Q1024

LRCL Flight Activity (Flightaware)

Listeners: 1 out of 1709 total

Cluj Approach: 126.425
Cluj Tower: 118.705
Napoc ACC: 127.075

LROP Ground (Archives)
Bucharest, Romania

Feed Status: UP
Listen in your browser - HTML5 player(in browser, HTML5)
Click here to listen with your own player(launches your MP3 player)

LROP 050130Z 05017KT CAVOK M01/M05 Q1019 NOSIG

LROP Flight Activity (Flightaware)

Listeners: 0 out of 1709 total

Bucharest Ground: 121.855

LROP Radar (Archives)
Bucharest, Romania

Feed Status: UP
Listen in your browser - HTML5 player(in browser, HTML5)
Click here to listen with your own player(launches your MP3 player)

LROP 050130Z 05017KT CAVOK M01/M05 Q1019 NOSIG

LROP Flight Activity (Flightaware)

Listeners: 0 out of 1709 total

Bucharest Radar (Arges Mid sector): 121.175
Bucharest Radar (Arges Top Sector): 123.265
Bucharest Radar (Lomos Top Sector): 132.865

LROP Tower/Approach (Archives)
Bucharest, Romania

Feed Status: UP
Listen in your browser - HTML5 player(in browser, HTML5)
Click here to listen with your own player(launches your MP3 player)

LROP 050130Z 05017KT CAVOK M01/M05 Q1019 NOSIG

LROP Flight Activity (Flightaware)

Listeners: 0 out of 1709 total

Bucharest Approach: 119.415
Bucharest Director: 127.155
Bucharest Tower: 118.805

LROP Twr/App/Radar (Archives)
Bucharest, Romania

Feed Status: UP
Listen in your browser - HTML5 player(in browser, HTML5)
Click here to listen with your own player(launches your MP3 player)

LROP 050130Z 05017KT CAVOK M01/M05 Q1019 NOSIG

LROP Flight Activity (Flightaware)

Listeners: 1 out of 1709 total

Bucharest Approach: 119.415
Bucharest Director: 127.155
Bucharest Radar (Arges Mid sector): 121.175
Bucharest Radar (Arges Top Sector): 123.265
Bucharest Radar (Lomos Top Sector): 132.865
Bucharest Tower: 118.805

LRSB Tower/CTAF (Archives)
Sibiu, Romania

Feed Status: UP
Listen in your browser - HTML5 player(in browser, HTML5)
Click here to listen with your own player(launches your MP3 player)

LRSB 050130Z 31007KT 3200 -SN BR SCT006 OVC015 M05/M05 Q1022

LRSB Flight Activity (Flightaware)

Listeners: 0 out of 1709 total

Sibiu Tower: 121.305

LRTR Tower (Archives)
Timisoara, Romania

Feed Status: UP
Listen in your browser - HTML5 player(in browser, HTML5)
Click here to listen with your own player(launches your MP3 player)

LRTR 050130Z 34015KT CAVOK M03/M07 Q1027

LRTR Flight Activity (Flightaware)

Listeners: 0 out of 1709 total

ARAD Approach: 127.250
Timisoara Tower: 120.100

LSGG Arr/Dep (Archives)
Geneva, Switzerland

Feed Status: UP
Listen in your browser - HTML5 player(in browser, HTML5)
Click here to listen with your own player(launches your MP3 player)

LSGG 050150Z AUTO 01005KT CAVOK 03/M00 Q1035 NOSIG

LSGG Flight Activity (Flightaware)

Listeners: 1 out of 1709 total

Geneva Arrival: 136.255
Geneva Departure: 119.530

LSGG Arrival (Archives)
Geneva, Switzerland

Feed Status: UP
Listen in your browser - HTML5 player(in browser, HTML5)
Click here to listen with your own player(launches your MP3 player)

LSGG 050150Z AUTO 01005KT CAVOK 03/M00 Q1035 NOSIG

LSGG Flight Activity (Flightaware)

Listeners: 0 out of 1709 total

Geneva Arrival: 136.255

LSGG ATIS (Archives)
Geneva, Switzerland

Feed Status: UP
Listen in your browser - HTML5 player(in browser, HTML5)
Click here to listen with your own player(launches your MP3 player)

LSGG 050150Z AUTO 01005KT CAVOK 03/M00 Q1035 NOSIG

LSGG Flight Activity (Flightaware)

Listeners: 0 out of 1709 total

Geneva ATIS: 135.575

LSGG Delta (VFR) (Archives)
Geneva, Switzerland

Feed Status: UP
Listen in your browser - HTML5 player(in browser, HTML5)
Click here to listen with your own player(launches your MP3 player)

LSGG 050150Z AUTO 01005KT CAVOK 03/M00 Q1035 NOSIG

LSGG Flight Activity (Flightaware)

Listeners: 0 out of 1709 total

Geneva Delta (VFR): 119.175

LSGG Departure (Archives)
Geneva, Switzerland

Feed Status: UP
Listen in your browser - HTML5 player(in browser, HTML5)
Click here to listen with your own player(launches your MP3 player)

LSGG 050150Z AUTO 01005KT CAVOK 03/M00 Q1035 NOSIG

LSGG Flight Activity (Flightaware)

Listeners: 0 out of 1709 total

Geneva Departure: 119.530

LSGG Glider (Archives)
Geneva, Switzerland

Feed Status: UP
Listen in your browser - HTML5 player(in browser, HTML5)
Click here to listen with your own player(launches your MP3 player)

LSGG 050150Z AUTO 01005KT CAVOK 03/M00 Q1035 NOSIG

LSGG Flight Activity (Flightaware)

Listeners: 0 out of 1709 total

Geneva Glider: 124.750

LSGG Info (VFR) (Archives)
Geneva, Switzerland

Feed Status: UP
Listen in your browser - HTML5 player(in browser, HTML5)
Click here to listen with your own player(launches your MP3 player)

LSGG 050150Z AUTO 01005KT CAVOK 03/M00 Q1035 NOSIG

LSGG Flight Activity (Flightaware)

Listeners: 2 out of 1709 total

Geneva Information (VFR): 126.350

LSGG Radar Ini N/E/S (Archives)
Geneva, Switzerland

Feed Status: UP
Listen in your browser - HTML5 player(in browser, HTML5)
Click here to listen with your own player(launches your MP3 player)

LSGG 050150Z AUTO 01005KT CAVOK 03/M00 Q1035 NOSIG

LSGG Flight Activity (Flightaware)

Listeners: 0 out of 1709 total

Geneva Radar Initial East: 128.905
Geneva Radar Initial North: 134.030
Geneva Radar Initial South: 124.225

LSGG Radar Initial East (Archives)
Geneva, Switzerland

Feed Status: UP
Listen in your browser - HTML5 player(in browser, HTML5)
Click here to listen with your own player(launches your MP3 player)

LSGG 050150Z AUTO 01005KT CAVOK 03/M00 Q1035 NOSIG

LSGG Flight Activity (Flightaware)

Listeners: 0 out of 1709 total

Geneva Radar Initial East: 128.905

LSGG Radar Initial North (Archives)
Geneva, Switzerland

Feed Status: UP
Listen in your browser - HTML5 player(in browser, HTML5)
Click here to listen with your own player(launches your MP3 player)

LSGG 050150Z AUTO 01005KT CAVOK 03/M00 Q1035 NOSIG

LSGG Flight Activity (Flightaware)

Listeners: 0 out of 1709 total

Geneva Radar Initial North: 134.030

LSGG Radar Initial South (Archives)
Geneva, Switzerland

Feed Status: UP
Listen in your browser - HTML5 player(in browser, HTML5)
Click here to listen with your own player(launches your MP3 player)

LSGG 050150Z AUTO 01005KT CAVOK 03/M00 Q1035 NOSIG

LSGG Flight Activity (Flightaware)

Listeners: 0 out of 1709 total

Geneva Radar Initial South: 124.225

LSGG Radar L1 250-280 (Archives)
Geneva, Switzerland

Feed Status: UP
Listen in your browser - HTML5 player(in browser, HTML5)
Click here to listen with your own player(launches your MP3 player)

LSGG 050150Z AUTO 01005KT CAVOK 03/M00 Q1035 NOSIG

LSGG Flight Activity (Flightaware)

Listeners: 0 out of 1709 total

Geneva Radar L1 FL250-280: 134.850

LSGG Radar L1/L2/L3/L4/L5 (Archives)
Geneva, Switzerland

Feed Status: UP
Listen in your browser - HTML5 player(in browser, HTML5)
Click here to listen with your own player(launches your MP3 player)

LSGG 050150Z AUTO 01005KT CAVOK 03/M00 Q1035 NOSIG

LSGG Flight Activity (Flightaware)

Listeners: 0 out of 1709 total

Geneva Radar L1 FL250-280: 134.850
Geneva Radar L2 FL290-310: 126.050
Geneva Radar L3 FL320-330: 134.315
Geneva Radar L3 FL320-330: 136.015
Geneva Radar L5 FL360-370: 128.155

LSGG Radar L2 290-310 (Archives)
Geneva, Switzerland

Feed Status: UP
Listen in your browser - HTML5 player(in browser, HTML5)
Click here to listen with your own player(launches your MP3 player)

LSGG 050150Z AUTO 01005KT CAVOK 03/M00 Q1035 NOSIG

LSGG Flight Activity (Flightaware)

Listeners: 0 out of 1709 total

Geneva Radar L2 FL290-310: 126.050

LSGG Radar L3 320-330 (Archives)
Geneva, Switzerland

Feed Status: UP
Listen in your browser - HTML5 player(in browser, HTML5)
Click here to listen with your own player(launches your MP3 player)

LSGG 050150Z AUTO 01005KT CAVOK 03/M00 Q1035 NOSIG

LSGG Flight Activity (Flightaware)

Listeners: 0 out of 1709 total

Geneva Radar L3 FL320-330: 134.315

LSGG Radar L4 340-350 (Archives)
Geneva, Switzerland

Feed Status: UP
Listen in your browser - HTML5 player(in browser, HTML5)
Click here to listen with your own player(launches your MP3 player)

LSGG 050150Z AUTO 01005KT CAVOK 03/M00 Q1035 NOSIG

LSGG Flight Activity (Flightaware)

Listeners: 0 out of 1709 total

Geneva Radar L4 FL340-350: 136.015

LSGG Radar L5 360-370 (Archives)
Geneva, Switzerland

Feed Status: UP
Listen in your browser - HTML5 player(in browser, HTML5)
Click here to listen with your own player(launches your MP3 player)

LSGG 050150Z AUTO 01005KT CAVOK 03/M00 Q1035 NOSIG

LSGG Flight Activity (Flightaware)

Listeners: 0 out of 1709 total

Geneva Radar L5 FL360-370: 128.155

LSGS Gnd/Twr/App (Archives)
Sion, Switzerland

Feed Status: UP
Listen in your browser - HTML5 player(in browser, HTML5)
Click here to listen with your own player(launches your MP3 player)

LSGS 050150Z AUTO VRB01KT 9999 SCT030 01/M01 Q1034

LSGS Flight Activity (Flightaware)

Listeners: 0 out of 1709 total

Alpine Jet Service Handling: 131.675
Sion Airport Handling: 131.475
Sion Approach (IFR ARR MIL OFF): 126.825
Sion Ground: 121.700
Sion Tower: 118.275

LSMD Tower (Archives)
Dubendorf, Switzerland

Feed Status: UP
Listen in your browser - HTML5 player(in browser, HTML5)
Click here to listen with your own player(launches your MP3 player)

LSZH 050150Z AUTO 34003KT CAVOK 01/M00 Q1037 NOSIG

LSZH Flight Activity (Flightaware)

Listeners: 0 out of 1709 total

Dubendorf Tower: 118.975

LSMP Arrival (Archives)
Payerne, Switzerland

Feed Status: UP
Listen in your browser - HTML5 player(in browser, HTML5)
Click here to listen with your own player(launches your MP3 player)

LSMP 050150Z AUTO 00000KT 9000NDV NCD M01/M01 Q1036 RMK

LSMP Flight Activity (Flightaware)

Listeners: 0 out of 1709 total

Payerne Arrival: 136.350

LSMP Arrival/Tower (Archives)
Payerne, Switzerland

Feed Status: UP
Listen in your browser - HTML5 player(in browser, HTML5)
Click here to listen with your own player(launches your MP3 player)

LSMP 050150Z AUTO 00000KT 9000NDV NCD M01/M01 Q1036 RMK

LSMP Flight Activity (Flightaware)

Listeners: 0 out of 1709 total

Payerne Arrival: 136.350
Payerne Tower: 128.675

LSMP Tower (Archives)
Payerne, Switzerland

Feed Status: UP
Listen in your browser - HTML5 player(in browser, HTML5)
Click here to listen with your own player(launches your MP3 player)

LSMP 050150Z AUTO 00000KT 9000NDV NCD M01/M01 Q1036 RMK

LSMP Flight Activity (Flightaware)

Listeners: 0 out of 1709 total

Payerne Tower: 128.675

LSMV Heli Tower
Davos, Switzerland

Feed Status: DOWN
Offline since: 2023-01-24 13:25:22 UTC

LSMV Tower: 130.700

LSPM AFIS (Archives)
Ambri, Switzerland

Feed Status: UP
Listen in your browser - HTML5 player(in browser, HTML5)
Click here to listen with your own player(launches your MP3 player)

LSPM Flight Activity (Flightaware)

Listeners: 0 out of 1709 total

Ambri AFIS: 118.525

LSZA Tower (Archives)
Agno, Switzerland

Feed Status: UP
Listen in your browser - HTML5 player(in browser, HTML5)
Click here to listen with your own player(launches your MP3 player)

LSZA 050150Z AUTO 16003KT 130V210 9999 NSC 06/01 Q1031

LSZA Flight Activity (Flightaware)

Listeners: 0 out of 1709 total

Lugano Tower: 120.250

LSZB App/Dep (Archives)
Bern, Switzerland

Feed Status: UP
Listen in your browser - HTML5 player(in browser, HTML5)
Click here to listen with your own player(launches your MP3 player)

LSZB 050150Z AUTO VRB02KT 2200 BR NCD 00/M00 Q1035 REFZDZ

LSZB Flight Activity (Flightaware)

Listeners: 0 out of 1709 total

Bern Arrival/Departure: 127.325

LSZB ATIS (Archives)
Bern, Switzerland

Feed Status: UP
Listen in your browser - HTML5 player(in browser, HTML5)
Click here to listen with your own player(launches your MP3 player)

LSZB 050150Z AUTO VRB02KT 2200 BR NCD 00/M00 Q1035 REFZDZ

LSZB Flight Activity (Flightaware)

Listeners: 0 out of 1709 total

Bern ATIS: 125.130

LSZB Clearance Delivery (Archives)
Bern, Switzerland

Feed Status: UP
Listen in your browser - HTML5 player(in browser, HTML5)
Click here to listen with your own player(launches your MP3 player)

LSZB 050150Z AUTO VRB02KT 2200 BR NCD 00/M00 Q1035 REFZDZ

LSZB Flight Activity (Flightaware)

Listeners: 0 out of 1709 total

Bern Clearance Delivery: 121.905

LSZB Del/Twr/App/Dep (Archives)
Bern, Switzerland

Feed Status: UP
Listen in your browser - HTML5 player(in browser, HTML5)
Click here to listen with your own player(launches your MP3 player)

LSZB 050150Z AUTO VRB02KT 2200 BR NCD 00/M00 Q1035 REFZDZ

LSZB Flight Activity (Flightaware)

Listeners: 0 out of 1709 total

Bern Arrival/Departure: 127.325
Bern Clearance Delivery: 121.905
Bern Tower: 121.025

LSZB Tower (Archives)
Bern, Switzerland

Feed Status: UP
Listen in your browser - HTML5 player(in browser, HTML5)
Click here to listen with your own player(launches your MP3 player)

LSZB 050150Z AUTO VRB02KT 2200 BR NCD 00/M00 Q1035 REFZDZ

LSZB Flight Activity (Flightaware)

Listeners: 0 out of 1709 total

Bern Tower: 121.025

LSZB Twr/App/Dep (Archives)
Bern, Switzerland

Feed Status: UP
Listen in your browser - HTML5 player(in browser, HTML5)
Click here to listen with your own player(launches your MP3 player)

LSZB 050150Z AUTO VRB02KT 2200 BR NCD 00/M00 Q1035 REFZDZ

LSZB Flight Activity (Flightaware)

Listeners: 0 out of 1709 total

Bern Arrival/Departure: 127.325
Bern Tower: 121.025

LSZG Tower (Archives)
Grenchen, Switzerland

Feed Status: UP
Listen in your browser - HTML5 player(in browser, HTML5)
Click here to listen with your own player(launches your MP3 player)

LSZG 050150Z AUTO 00000KT 0800 FZFG NCD M01/M01 Q1036

LSZG Flight Activity (Flightaware)

Listeners: 0 out of 1709 total

Grenchen Tower: 120.100

LSZH Approach (East) (Archives)
Zurich, Switzerland

Feed Status: UP
Listen in your browser - HTML5 player(in browser, HTML5)
Click here to listen with your own player(launches your MP3 player)

LSZH 050150Z AUTO 34003KT CAVOK 01/M00 Q1037 NOSIG

LSZH Flight Activity (Flightaware)

Listeners: 0 out of 1709 total

Zurich Approach (East): 135.230

LSZH Approach (Final/125.325) (Archives)
Zurich, Switzerland

Feed Status: UP
Listen in your browser - HTML5 player(in browser, HTML5)
Click here to listen with your own player(launches your MP3 player)

LSZH 050150Z AUTO 34003KT CAVOK 01/M00 Q1037 NOSIG

LSZH Flight Activity (Flightaware)

Listeners: 0 out of 1709 total

Zurich Approach (Final): 125.325

LSZH Apron (South) (Archives)
Zurich, Switzerland

Feed Status: UP
Listen in your browser - HTML5 player(in browser, HTML5)
Click here to listen with your own player(launches your MP3 player)

LSZH 050150Z AUTO 34003KT CAVOK 01/M00 Q1037 NOSIG

LSZH Flight Activity (Flightaware)

Listeners: 0 out of 1709 total

Zurich Apron (South): 121.755

LSZH Apron (West) (Archives)
Zurich, Switzerland

Feed Status: UP
Listen in your browser - HTML5 player(in browser, HTML5)
Click here to listen with your own player(launches your MP3 player)

LSZH 050150Z AUTO 34003KT CAVOK 01/M00 Q1037 NOSIG

LSZH Flight Activity (Flightaware)

Listeners: 0 out of 1709 total

Zurich Apron (West): 121.855

LSZH Clearance Delivery (Archives)
Zurich, Switzerland

Feed Status: UP
Listen in your browser - HTML5 player(in browser, HTML5)
Click here to listen with your own player(launches your MP3 player)

LSZH 050150Z AUTO 34003KT CAVOK 01/M00 Q1037 NOSIG

LSZH Flight Activity (Flightaware)

Listeners: 0 out of 1709 total

Zurich Clearance Delivery: 121.925

LSZH Departure 125.950 (Archives)
Zurich, Switzerland

Feed Status: UP
Listen in your browser - HTML5 player(in browser, HTML5)
Click here to listen with your own player(launches your MP3 player)

LSZH 050150Z AUTO 34003KT CAVOK 01/M00 Q1037 NOSIG

LSZH Flight Activity (Flightaware)

Listeners: 0 out of 1709 total

Zurich Departure: 125.950

LSZH Ground (Archives)
Zurich, Switzerland

Feed Status: UP
Listen in your browser - HTML5 player(in browser, HTML5)
Click here to listen with your own player(launches your MP3 player)

LSZH 050150Z AUTO 34003KT CAVOK 01/M00 Q1037 NOSIG

LSZH Flight Activity (Flightaware)

Listeners: 0 out of 1709 total

Zurich Ground: 121.905

LSZH Radar East 133.905 (Archives)
Zurich, Switzerland

Feed Status: UP
Listen in your browser - HTML5 player(in browser, HTML5)
Click here to listen with your own player(launches your MP3 player)

LSZH 050150Z AUTO 34003KT CAVOK 01/M00 Q1037 NOSIG

LSZH Flight Activity (Flightaware)

Listeners: 0 out of 1709 total

Zurich Radar (Below FL240 East): 133.905

LSZH Radar M1 133.050 (Archives)
Zurich, Switzerland

Feed Status: UP
Listen in your browser - HTML5 player(in browser, HTML5)
Click here to listen with your own player(launches your MP3 player)

LSZH 050150Z AUTO 34003KT CAVOK 01/M00 Q1037 NOSIG

LSZH Flight Activity (Flightaware)

Listeners: 0 out of 1709 total

Zurich Radar M1: 133.050

LSZH Radar M2 133.405 (Archives)
Zurich, Switzerland

Feed Status: UP
Listen in your browser - HTML5 player(in browser, HTML5)
Click here to listen with your own player(launches your MP3 player)

LSZH 050150Z AUTO 34003KT CAVOK 01/M00 Q1037 NOSIG

LSZH Flight Activity (Flightaware)

Listeners: 0 out of 1709 total

Zurich Radar M2: 133.405

LSZH Radar M3 132.815 (Archives)
Zurich, Switzerland

Feed Status: UP
Listen in your browser - HTML5 player(in browser, HTML5)
Click here to listen with your own player(launches your MP3 player)

LSZH 050150Z AUTO 34003KT CAVOK 01/M00 Q1037 NOSIG

LSZH Flight Activity (Flightaware)

Listeners: 0 out of 1709 total

Zurich Radar: 132.815

LSZH Radar M4 134.605 (Archives)
Zurich, Switzerland

Feed Status: UP
Listen in your browser - HTML5 player(in browser, HTML5)
Click here to listen with your own player(launches your MP3 player)

LSZH 050150Z AUTO 34003KT CAVOK 01/M00 Q1037 NOSIG

LSZH Flight Activity (Flightaware)

Listeners: 0 out of 1709 total

Zurich Radar M4: 134.605

LSZH Radar M5 132.835 (Archives)
Zurich, Switzerland

Feed Status: UP
Listen in your browser - HTML5 player(in browser, HTML5)
Click here to listen with your own player(launches your MP3 player)

LSZH 050150Z AUTO 34003KT CAVOK 01/M00 Q1037 NOSIG

LSZH Flight Activity (Flightaware)

Listeners: 0 out of 1709 total

Zurich Radar M5: 132.835

LSZH Radar M6 133.690 (Archives)
Zurich, Switzerland

Feed Status: UP
Listen in your browser - HTML5 player(in browser, HTML5)
Click here to listen with your own player(launches your MP3 player)

LSZH 050150Z AUTO 34003KT CAVOK 01/M00 Q1037 NOSIG

LSZH Flight Activity (Flightaware)

Listeners: 0 out of 1709 total

Zurich Radar M6: 133.690

LSZH Radar North 136.155 (Archives)
Zurich, Switzerland

Feed Status: UP
Listen in your browser - HTML5 player(in browser, HTML5)
Click here to listen with your own player(launches your MP3 player)

LSZH 050150Z AUTO 34003KT CAVOK 01/M00 Q1037 NOSIG

LSZH Flight Activity (Flightaware)

Listeners: 0 out of 1709 total

Zurich Radar (Below FL240 North): 136.155

LSZH Radar West 135.680 (Archives)
Zurich, Switzerland

Feed Status: UP
Listen in your browser - HTML5 player(in browser, HTML5)
Click here to listen with your own player(launches your MP3 player)

LSZH 050150Z AUTO 34003KT CAVOK 01/M00 Q1037 NOSIG

LSZH Flight Activity (Flightaware)

Listeners: 0 out of 1709 total


LSZH Tower (Archives)
Zurich, Switzerland

Feed Status: UP
Listen in your browser - HTML5 player(in browser, HTML5)
Click here to listen with your own player(launches your MP3 player)

LSZH 050150Z AUTO 34003KT CAVOK 01/M00 Q1037 NOSIG

LSZH Flight Activity (Flightaware)

Listeners: 1 out of 1709 total

Zurich Tower: 118.100

LSZH Tower (14/32) (Archives)
Zurich, Switzerland

Feed Status: UP
Listen in your browser - HTML5 player(in browser, HTML5)
Click here to listen with your own player(launches your MP3 player)

LSZH 050150Z AUTO 34003KT CAVOK 01/M00 Q1037 NOSIG

LSZH Flight Activity (Flightaware)

Listeners: 0 out of 1709 total

Zurich Tower (Rwy 14 App/32 Takeoff): 120.225

LSZH Twr/Gnd (backup) (Archives)
Zurich, Switzerland

Feed Status: UP
Listen in your browser - HTML5 player(in browser, HTML5)
Click here to listen with your own player(launches your MP3 player)

LSZH 050150Z AUTO 34003KT CAVOK 01/M00 Q1037 NOSIG

LSZH Flight Activity (Flightaware)

Listeners: 0 out of 1709 total

Zurich Twr/Gnd (backup): 119.700

LSZL Tower (Archives)
Locarno, Switzerland

Feed Status: UP
Listen in your browser - HTML5 player(in browser, HTML5)
Click here to listen with your own player(launches your MP3 player)

LSZL 050150Z AUTO 30005KT 250V360 9999NDV NCD 09/01 Q1030 RMK

LSZL Flight Activity (Flightaware)

Listeners: 0 out of 1709 total


LSZN CTAF (Archives)
Zurich, Switzerland

Feed Status: UP
Listen in your browser - HTML5 player(in browser, HTML5)
Click here to listen with your own player(launches your MP3 player)

LSZN Flight Activity (Flightaware)

Listeners: 0 out of 1709 total

Hausen am Albis CTAF: 130.755

LSZR Tower (Archives)
Altenrhein, Switzerland

Feed Status: UP
Listen in your browser - HTML5 player(in browser, HTML5)
Click here to listen with your own player(launches your MP3 player)

LSZR 050150Z AUTO 16001KT 6000 BKN050 01/00 Q1037

LSZR Flight Activity (Flightaware)

Listeners: 0 out of 1709 total

Altenrhein Tower: 135.425

LSZW CTAF (Archives)
Thun, Switzerland

Feed Status: UP
Listen in your browser - HTML5 player(in browser, HTML5)
Click here to listen with your own player(launches your MP3 player)

LSZW Flight Activity (Flightaware)

Listeners: 0 out of 1709 total

Thun CTAF/Info: 123.250

LTBA Gnd/Twr/App (Archives)
Istanbul, Turkey

Feed Status: UP
Listen in your browser - HTML5 player(in browser, HTML5)
Click here to listen with your own player(launches your MP3 player)

LTBA 050150Z 33014KT 9999 SCT035 BKN080 03/01 Q1011 RMK RWY23 33012KT

LTBA Flight Activity (Flightaware)

Listeners: 6 out of 1709 total

Istanbul Approach: 126.425
Istanbul Approach: 133.075
Istanbul Tower: 118.100
Istanbul Tower: 118.375

LTFJ Del/Gnd/Twr (Archives)
Istanbul, Turkey

Feed Status: UP
Listen in your browser - HTML5 player(in browser, HTML5)
Click here to listen with your own player(launches your MP3 player)

LTFJ 050150Z 32005KT 300V360 9999 SCT012 BKN030 04/03 Q1011 NOSIG RMK RWY24 00000KT

LTFJ Flight Activity (Flightaware)

Listeners: 4 out of 1709 total

Pegasus Dispatch: 131.750

LTFM Gnd/Twr
Istanbul, Turkey

Feed Status: DOWN
Offline since: 2022-12-07 10:23:06 UTC

LTFM 050150Z 32015G26KT 8000 -SHRASN BKN008 BKN022 03/02 Q1011 NOSIG RMK RWY17L 31016KT RWY34L 31014KT RWY16R 30014KT RWY36 32017KT RWY18 31017KT

Istanbul Ground : 122.600
Istanbul Ground: 124.425
Istanbul Tower: 118.075
Istanbul Tower: 122.700
Istanbul Tower: 127.500

LUKK ACC #1 (Archives)
Chisinau, Moldova

Feed Status: UP
Listen in your browser - HTML5 player(in browser, HTML5)
Click here to listen with your own player(launches your MP3 player)

LUKK 050200Z 36012KT CAVOK M02/M07 Q1021 NOSIG

LUKK Flight Activity (Flightaware)

Listeners: 0 out of 1709 total

Chisinau ACC: 130.975

LUKK ACC #2 (Archives)
Chisinau, Moldova

Feed Status: UP
Listen in your browser - HTML5 player(in browser, HTML5)
Click here to listen with your own player(launches your MP3 player)

LUKK 050200Z 36012KT CAVOK M02/M07 Q1021 NOSIG

LUKK Flight Activity (Flightaware)

Listeners: 0 out of 1709 total

Chisinau ACC: 128.975

LUKK Air to Air (Archives)
Chisinau, Moldova

Feed Status: UP
Listen in your browser - HTML5 player(in browser, HTML5)
Click here to listen with your own player(launches your MP3 player)

LUKK 050200Z 36012KT CAVOK M02/M07 Q1021 NOSIG

LUKK Flight Activity (Flightaware)

Listeners: 0 out of 1709 total

Chisinau Air to Air: 123.450

LUKK Alternate (Archives)
Chisinau, Moldova

Feed Status: UP
Listen in your browser - HTML5 player(in browser, HTML5)
Click here to listen with your own player(launches your MP3 player)

LUKK 050200Z 36012KT CAVOK M02/M07 Q1021 NOSIG

LUKK Flight Activity (Flightaware)

Listeners: 0 out of 1709 total

Chisinau Alternate: 129.725

LUKK Approach #1 (Archives)
Chisinau, Moldova

Feed Status: UP
Listen in your browser - HTML5 player(in browser, HTML5)
Click here to listen with your own player(launches your MP3 player)

LUKK 050200Z 36012KT CAVOK M02/M07 Q1021 NOSIG

LUKK Flight Activity (Flightaware)

Listeners: 0 out of 1709 total

Chisinau Approach: 133.300

LUKK Approach #2 (Archives)
Chisinau, Moldova

Feed Status: UP
Listen in your browser - HTML5 player(in browser, HTML5)
Click here to listen with your own player(launches your MP3 player)

LUKK 050200Z 36012KT CAVOK M02/M07 Q1021 NOSIG

LUKK Flight Activity (Flightaware)

Listeners: 0 out of 1709 total

Chisinau Approach: 133.300

LUKK Emergency/Guard (Archives)
Chisinau, Moldova

Feed Status: UP
Listen in your browser - HTML5 player(in browser, HTML5)
Click here to listen with your own player(launches your MP3 player)

LUKK 050200Z 36012KT CAVOK M02/M07 Q1021 NOSIG

LUKK Flight Activity (Flightaware)

Listeners: 0 out of 1709 total

Emergency/Guard: 121.500

LUKK Ground #2 (Archives)
Chisinau, Moldova

Feed Status: UP
Listen in your browser - HTML5 player(in browser, HTML5)
Click here to listen with your own player(launches your MP3 player)

LUKK 050200Z 36012KT CAVOK M02/M07 Q1021 NOSIG

LUKK Flight Activity (Flightaware)

Listeners: 0 out of 1709 total

Chisinau Ground: 121.800

LUKK Handling (Archives)
Chisinau, Moldova

Feed Status: UP
Listen in your browser - HTML5 player(in browser, HTML5)
Click here to listen with your own player(launches your MP3 player)

LUKK 050200Z 36012KT CAVOK M02/M07 Q1021 NOSIG

LUKK Flight Activity (Flightaware)

Listeners: 0 out of 1709 total

Chisinau Handling: 131.700

LUKK Tower #2 (Archives)
Chisinau, Moldova

Feed Status: UP
Listen in your browser - HTML5 player(in browser, HTML5)
Click here to listen with your own player(launches your MP3 player)

LUKK 050200Z 36012KT CAVOK M02/M07 Q1021 NOSIG

LUKK Flight Activity (Flightaware)

Listeners: 0 out of 1709 total

Chisinau Tower: 118.100

LWSK ACC (Lower) (Archives)
Petrovec, North Macedonia, Republic of

Feed Status: UP
Listen in your browser - HTML5 player(in browser, HTML5)
Click here to listen with your own player(launches your MP3 player)

LWSK 050200Z 35020G31KT 9999 SCT050 BKN090 00/M11 Q1022 NOSIG

LWSK Flight Activity (Flightaware)

Listeners: 0 out of 1709 total

Skopje Control (Lower): 119.375

LWSK ACC (Upper) (Archives)
Petrovec, North Macedonia, Republic of

Feed Status: UP
Listen in your browser - HTML5 player(in browser, HTML5)
Click here to listen with your own player(launches your MP3 player)

LWSK 050200Z 35020G31KT 9999 SCT050 BKN090 00/M11 Q1022 NOSIG

LWSK Flight Activity (Flightaware)

Listeners: 0 out of 1709 total

Skopje Control (Upper): 120.015

LWSK Approach (Archives)
Petrovec, North Macedonia, Republic of

Feed Status: UP
Listen in your browser - HTML5 player(in browser, HTML5)
Click here to listen with your own player(launches your MP3 player)

LWSK 050200Z 35020G31KT 9999 SCT050 BKN090 00/M11 Q1022 NOSIG

LWSK Flight Activity (Flightaware)

Listeners: 0 out of 1709 total

Skopje Approach/Departure: 120.300

LWSK ATIS (Archives)
Petrovec, North Macedonia, Republic of

Feed Status: UP
Listen in your browser - HTML5 player(in browser, HTML5)
Click here to listen with your own player(launches your MP3 player)

LWSK 050200Z 35020G31KT 9999 SCT050 BKN090 00/M11 Q1022 NOSIG

LWSK Flight Activity (Flightaware)

Listeners: 0 out of 1709 total

Skopje ATIS: 130.125

LWSK Tower (Archives)
Petrovec, North Macedonia, Republic of

Feed Status: UP
Listen in your browser - HTML5 player(in browser, HTML5)
Click here to listen with your own player(launches your MP3 player)

LWSK 050200Z 35020G31KT 9999 SCT050 BKN090 00/M11 Q1022 NOSIG

LWSK Flight Activity (Flightaware)

Listeners: 1 out of 1709 total

Skopje Tower: 118.500

LYNI Twr/App (Archives)
Nis, Serbia

Feed Status: UP
Listen in your browser - HTML5 player(in browser, HTML5)
Click here to listen with your own player(launches your MP3 player)

LYNI 050130Z 31026G41KT 9999 BKN030 M02/M08 Q1023 NOSIG

LYNI Flight Activity (Flightaware)

Listeners: 0 out of 1709 total

Nis Approach: 119.525
Nis Approach/Tower (Alternate): 136.075
Nis Tower: 118.950

LZKZ Gnd/Twr/App (Archives)
Kosice, Slovakia

Feed Status: UP
Listen in your browser - HTML5 player(in browser, HTML5)
Click here to listen with your own player(launches your MP3 player)

LZKZ 050200Z 01014KT CAVOK M03/M08 Q1030 NOSIG

LZKZ Flight Activity (Flightaware)

Listeners: 2 out of 1709 total

Kosice Approach: 129.350
Kosice Approach (backup): 119.850
Kosice Ground: 121.700
Kosice Handling: 131.850
Kosice Tower: 120.400

LZNI CTAF (Archives)
Nitra, Slovakia

Feed Status: UP
Listen in your browser - HTML5 player(in browser, HTML5)
Click here to listen with your own player(launches your MP3 player)

LZNI Flight Activity (Flightaware)

Listeners: 0 out of 1709 total

Nitra Traffic Radio: 123.405

LZPE CTAF/UNICOM (Archives)
Prievidza, Slovakia

Feed Status: UP
Listen in your browser - HTML5 player(in browser, HTML5)
Click here to listen with your own player(launches your MP3 player)

LZPE Flight Activity (Flightaware)

Listeners: 0 out of 1709 total

Prievidza CTAF/UNICOM: 123.055

LZPP Ground/Tower
Piestany, Slovakia

Feed Status: DOWN
Offline since: 2023-02-04 05:45:22 UTC

LZPP 050130Z AUTO 35005KT 310V030 9999 SCT037/// M03/M07 Q1033

Piestany Ground: 121.700
Piestany Tower: 118.575

LZPT CTAF (Archives)
Partizanske, Slovakia

Feed Status: UP
Listen in your browser - HTML5 player(in browser, HTML5)
Click here to listen with your own player(launches your MP3 player)

LZPT Flight Activity (Flightaware)

Listeners: 0 out of 1709 total

Male Bielice CTAF: 123.500

MDPP App/Dep
Puerto Plata, Dominican Republic

Feed Status: DOWN
Offline since: 2022-12-03 17:43:22 UTC

MDPP 050200Z 13008KT 9999 FEW018 23/22 Q1021

Puerto Plata Approach/Departure: 119.000

MDPP Ground/Center
Puerto Plata, Dominican Republic

Feed Status: DOWN
Offline since: 2022-12-03 05:25:23 UTC

MDPP 050200Z 13008KT 9999 FEW018 23/22 Q1021

Puerto Plata Ground: 121.900
Santo Domingo Center: 124.300

MDPP Ground/Tower/Center
Puerto Plata, Dominican Republic

Feed Status: DOWN
Offline since: 2022-12-03 17:43:22 UTC

MDPP 050200Z 13008KT 9999 FEW018 23/22 Q1021

Puerto Plata Ground: 121.900
Puerto Plata Tower: 118.000
Santo Domingo Center: 124.300

MDPP Tower
Puerto Plata, Dominican Republic

Feed Status: DOWN
Offline since: 2022-12-03 17:43:22 UTC

MDPP 050200Z 13008KT 9999 FEW018 23/22 Q1021

Puerto Plata Tower: 118.000

MHLC Gnd/Twr/Center (Archives)
La Ceiba, Honduras

Feed Status: UP
Listen in your browser - HTML5 player(in browser, HTML5)
Click here to listen with your own player(launches your MP3 player)

MHLC 050200Z 10003KT 4000 RA FEW020 BKN070 22/21 Q1018 A3006 NOSIG

MHLC Flight Activity (Flightaware)

Listeners: 0 out of 1709 total

CENAMER: 123.900
CENAMER: 124.300
Goloson Ground: 121.900
Goloson Tower: 118.500
La Ceiba Radio: 128.900

MHLM Gnd/Twr/App (Archives)
San Pedro Sula, Honduras

Feed Status: UP
Listen in your browser - HTML5 player(in browser, HTML5)
Click here to listen with your own player(launches your MP3 player)

MHLM 050200Z 02007KT 9999 FEW028 SCT080 24/20 Q1018 A3006 NOSIG

MHLM Flight Activity (Flightaware)

Listeners: 0 out of 1709 total

La Mesa Ground: 121.900
La Mesa Tower: 118.200
San Pedro Sula Approach: 119.700

MHTG ATIS (Archives)
Tegucigalpa, Honduras

Feed Status: UP
Listen in your browser - HTML5 player(in browser, HTML5)
Click here to listen with your own player(launches your MP3 player)

MHTG 050200Z 10008KT 9999 FEW038 22/12 Q1021 A3015 NOSIG

MHTG Flight Activity (Flightaware)

Listeners: 0 out of 1709 total

Toncontin ATIS: 127.750

MHTG Gnd/Twr/App/Ctr/Ops (Archives)
Tegucigalpa, Honduras

Feed Status: UP
Listen in your browser - HTML5 player(in browser, HTML5)
Click here to listen with your own player(launches your MP3 player)

MHTG 050200Z 10008KT 9999 FEW038 22/12 Q1021 A3015 NOSIG

MHTG Flight Activity (Flightaware)

Listeners: 2 out of 1709 total

American Airlines Ops: 130.700
ARINC ACARS: 131.550
Cenamer Center: 123.900
Cenamer Center: 124.300
Cenamer Center: 124.100
CMP Ops: 129.925
Continental Airlines Ops: 129.925
FAH Ground: 122.900
Palmerola (MHPR) Tower: 118.900
Taca Ops: 131.300
Taca Ops Sal: 130.300
Tecnologias Unidas: 133.000
Tegucigalpa RDO: 126.700
Toncontin Approach: 119.100
Toncontin Ground: 121.900
Toncontin Tower: 118.700

MMAN Tower (Archives)
Monterrey, Mexico

Feed Status: UP
Listen in your browser - HTML5 player(in browser, HTML5)
Click here to listen with your own player(launches your MP3 player)

MMAN 050140Z 00000KT 10SM SKC 17/05 A3022

MMAN Flight Activity (Flightaware)

Listeners: 0 out of 1709 total

Monterrey Tower: 118.600

MMGL Twr/App (Archives)
Guadalajara, Mexico

Feed Status: UP
Listen in your browser - HTML5 player(in browser, HTML5)
Click here to listen with your own player(launches your MP3 player)

MMGL 050145Z 20003KT 10SM SKC 19/01 A3023

MMGL Flight Activity (Flightaware)

Listeners: 2 out of 1709 total

Guadalajara Approach: 120.800
Guadalajara Tower: 118.100

MMHO App/Dep
Hermosillo, Mexico

Feed Status: DOWN
Offline since: 2023-01-05 17:57:06 UTC

MMHO 050140Z 26003KT 10SM SKC 23/01 A3008 RMK HZY

Hermosillo Approach/Departure: 121.400

MMHO Info
Hermosillo, Mexico

Feed Status: DOWN
Offline since: 2023-01-05 17:57:06 UTC

MMHO 050140Z 26003KT 10SM SKC 23/01 A3008 RMK HZY

Hermosillo Info: 122.300

MMHO Tower
Hermosillo, Mexico

Feed Status: DOWN
Offline since: 2023-01-05 17:57:06 UTC

MMHO 050140Z 26003KT 10SM SKC 23/01 A3008 RMK HZY

Hermosillo Tower: 118.700

MMHO Twr/App
Hermosillo, Mexico

Feed Status: DOWN
Offline since: 2023-01-05 17:57:06 UTC

MMHO 050140Z 26003KT 10SM SKC 23/01 A3008 RMK HZY

Hermosillo Approach/Departure: 121.400
Hermosillo Info: 122.300
Hermosillo Tower: 118.700

MMLP Twr/App (Archives)
La Paz, Mexico

Feed Status: UP
Listen in your browser - HTML5 player(in browser, HTML5)
Click here to listen with your own player(launches your MP3 player)

MMLP 050145Z 05003KT 10SM SKC 18/07 A3009

MMLP Flight Activity (Flightaware)

Listeners: 0 out of 1709 total

La Paz Approach: 120.600
La Paz Tower: 118.100

MMMD App/Dep (Archives)
Merida, Mexico

Feed Status: UP
Listen in your browser - HTML5 player(in browser, HTML5)
Click here to listen with your own player(launches your MP3 player)

MMMD 050146Z 07008KT 7SM SCT070 21/19 A3017 RMK 8/070 HZY

MMMD Flight Activity (Flightaware)

Listeners: 0 out of 1709 total

Merida Approach: 121.200

MMMD Merida Center 125.2/128.2 (Archives)
Merida, Mexico

Feed Status: UP
Listen in your browser - HTML5 player(in browser, HTML5)
Click here to listen with your own player(launches your MP3 player)

MMMD 050146Z 07008KT 7SM SCT070 21/19 A3017 RMK 8/070 HZY

MMMD Flight Activity (Flightaware)

Listeners: 0 out of 1709 total

Merida Center: 125.200
Merida Center: 128.200

MMMD Merida Center 125.8/123.75 (Archives)
Merida, Mexico

Feed Status: UP
Listen in your browser - HTML5 player(in browser, HTML5)
Click here to listen with your own player(launches your MP3 player)

MMMD 050146Z 07008KT 7SM SCT070 21/19 A3017 RMK 8/070 HZY

MMMD Flight Activity (Flightaware)

Listeners: 0 out of 1709 total

Merida Center: 125.800
Merida Center: 123.750

MMMD Tower (Archives)
Merida, Mexico

Feed Status: UP
Listen in your browser - HTML5 player(in browser, HTML5)
Click here to listen with your own player(launches your MP3 player)

MMMD 050146Z 07008KT 7SM SCT070 21/19 A3017 RMK 8/070 HZY

MMMD Flight Activity (Flightaware)

Listeners: 0 out of 1709 total

Merida Tower: 118.300

MMMX Aeromexico Ops (Archives)
Mexico City, Mexico

Feed Status: UP
Listen in your browser - HTML5 player(in browser, HTML5)
Click here to listen with your own player(launches your MP3 player)

MMMX 050145Z 07012KT 6SM SKC 18/03 A3037 NOSIG RMK HZY

MMMX Flight Activity (Flightaware)

Listeners: 0 out of 1709 total

Aeromexico Ops: 131.000

MMMX Approach (Archives)
Mexico City, Mexico

Feed Status: UP
Listen in your browser - HTML5 player(in browser, HTML5)
Click here to listen with your own player(launches your MP3 player)

MMMX 050145Z 07012KT 6SM SKC 18/03 A3037 NOSIG RMK HZY

MMMX Flight Activity (Flightaware)

Listeners: 0 out of 1709 total

Mexico City Approach: 121.200

MMMX Approach (CVJ/PBC) (Archives)
Mexico City, Mexico

Feed Status: UP
Listen in your browser - HTML5 player(in browser, HTML5)
Click here to listen with your own player(launches your MP3 player)

MMMX 050145Z 07012KT 6SM SKC 18/03 A3037 NOSIG RMK HZY

MMMX Flight Activity (Flightaware)

Listeners: 0 out of 1709 total

Mexico City Approach (CVJ/PBC): 119.250

MMMX Approach (Final) (Archives)
Mexico City, Mexico

Feed Status: UP
Listen in your browser - HTML5 player(in browser, HTML5)
Click here to listen with your own player(launches your MP3 player)

MMMX 050145Z 07012KT 6SM SKC 18/03 A3037 NOSIG RMK HZY

MMMX Flight Activity (Flightaware)

Listeners: 3 out of 1709 total

Mexico City Approach (Final): 119.750

MMMX Arrival (North) (Archives)
Mexico City, Mexico

Feed Status: UP
Listen in your browser - HTML5 player(in browser, HTML5)
Click here to listen with your own player(launches your MP3 player)

MMMX 050145Z 07012KT 6SM SKC 18/03 A3037 NOSIG RMK HZY

MMMX Flight Activity (Flightaware)

Listeners: 0 out of 1709 total

Mexico City Arrival (North): 129.650

MMMX Arrival (North/South) (Archives)
Mexico City, Mexico

Feed Status: UP
Listen in your browser - HTML5 player(in browser, HTML5)
Click here to listen with your own player(launches your MP3 player)

MMMX 050145Z 07012KT 6SM SKC 18/03 A3037 NOSIG RMK HZY

MMMX Flight Activity (Flightaware)

Listeners: 0 out of 1709 total

Mexico City Arrival (North): 129.650
Mexico City Arrival (South): 119.100

MMMX Arrival (South) (Archives)
Mexico City, Mexico

Feed Status: UP
Listen in your browser - HTML5 player(in browser, HTML5)
Click here to listen with your own player(launches your MP3 player)

MMMX 050145Z 07012KT 6SM SKC 18/03 A3037 NOSIG RMK HZY

MMMX Flight Activity (Flightaware)

Listeners: 0 out of 1709 total

Mexico City Arrival (South): 119.100

MMMX ATIS (Archives)
Mexico City, Mexico

Feed Status: UP
Listen in your browser - HTML5 player(in browser, HTML5)
Click here to listen with your own player(launches your MP3 player)

MMMX 050145Z 07012KT 6SM SKC 18/03 A3037 NOSIG RMK HZY

MMMX Flight Activity (Flightaware)

Listeners: 0 out of 1709 total

Mexico City ATIS: 127.650

MMMX Center (Southeast) (Archives)
Mexico City, Mexico

Feed Status: UP
Listen in your browser - HTML5 player(in browser, HTML5)
Click here to listen with your own player(launches your MP3 player)

MMMX 050145Z 07012KT 6SM SKC 18/03 A3037 NOSIG RMK HZY

MMMX Flight Activity (Flightaware)

Listeners: 0 out of 1709 total

Mexico Center (Southeast): 128.250

MMMX Center (West) (Archives)
Mexico City, Mexico

Feed Status: UP
Listen in your browser - HTML5 player(in browser, HTML5)
Click here to listen with your own player(launches your MP3 player)

MMMX 050145Z 07012KT 6SM SKC 18/03 A3037 NOSIG RMK HZY

MMMX Flight Activity (Flightaware)

Listeners: 0 out of 1709 total

Mexico Center (West): 125.100

MMMX Clearance Delivery (Archives)
Mexico City, Mexico

Feed Status: UP
Listen in your browser - HTML5 player(in browser, HTML5)
Click here to listen with your own player(launches your MP3 player)

MMMX 050145Z 07012KT 6SM SKC 18/03 A3037 NOSIG RMK HZY

MMMX Flight Activity (Flightaware)

Listeners: 1 out of 1709 total

Mexico City Clearance Delivery: 122.100

MMMX Departure (North) (Archives)
Mexico City, Mexico

Feed Status: UP
Listen in your browser - HTML5 player(in browser, HTML5)
Click here to listen with your own player(launches your MP3 player)

MMMX 050145Z 07012KT 6SM SKC 18/03 A3037 NOSIG RMK HZY

MMMX Flight Activity (Flightaware)

Listeners: 0 out of 1709 total

Mexico City Departure (North): 120.500

MMMX Departure (South) (Archives)
Mexico City, Mexico

Feed Status: UP
Listen in your browser - HTML5 player(in browser, HTML5)
Click here to listen with your own player(launches your MP3 player)

MMMX 050145Z 07012KT 6SM SKC 18/03 A3037 NOSIG RMK HZY

MMMX Flight Activity (Flightaware)

Listeners: 0 out of 1709 total

Mexico City Departure (South): 129.100

MMMX Ground (North) (Archives)
Mexico City, Mexico

Feed Status: UP
Listen in your browser - HTML5 player(in browser, HTML5)
Click here to listen with your own player(launches your MP3 player)

MMMX 050145Z 07012KT 6SM SKC 18/03 A3037 NOSIG RMK HZY

MMMX Flight Activity (Flightaware)

Listeners: 0 out of 1709 total

Mexico City Ground (North): 121.850

MMMX Ground (North/South) (Archives)
Mexico City, Mexico

Feed Status: UP
Listen in your browser - HTML5 player(in browser, HTML5)
Click here to listen with your own player(launches your MP3 player)

MMMX 050145Z 07012KT 6SM SKC 18/03 A3037 NOSIG RMK HZY

MMMX Flight Activity (Flightaware)

Listeners: 0 out of 1709 total

Mexico City Ground (North): 121.850
Mexico City Ground (South): 121.000

MMMX Ground (South) (Archives)
Mexico City, Mexico

Feed Status: UP
Listen in your browser - HTML5 player(in browser, HTML5)
Click here to listen with your own player(launches your MP3 player)

MMMX 050145Z 07012KT 6SM SKC 18/03 A3037 NOSIG RMK HZY

MMMX Flight Activity (Flightaware)

Listeners: 0 out of 1709 total

Mexico City Ground (South): 121.000

MMMX Mexico Center North (Archives)
Mexico City, Mexico

Feed Status: UP
Listen in your browser - HTML5 player(in browser, HTML5)
Click here to listen with your own player(launches your MP3 player)

MMMX 050145Z 07012KT 6SM SKC 18/03 A3037 NOSIG RMK HZY

MMMX Flight Activity (Flightaware)

Listeners: 0 out of 1709 total

Mexico Center North: 133.100

MMMX Tower (Archives)
Mexico City, Mexico

Feed Status: UP
Listen in your browser - HTML5 player(in browser, HTML5)
Click here to listen with your own player(launches your MP3 player)

MMMX 050145Z 07012KT 6SM SKC 18/03 A3037 NOSIG RMK HZY

MMMX Flight Activity (Flightaware)

Listeners: 3 out of 1709 total

Mexico City Tower: 118.550

MMMX Tower (Helicopters) (Archives)
Mexico City, Mexico

Feed Status: UP
Listen in your browser - HTML5 player(in browser, HTML5)
Click here to listen with your own player(launches your MP3 player)

MMMX 050145Z 07012KT 6SM SKC 18/03 A3037 NOSIG RMK HZY

MMMX Flight Activity (Flightaware)

Listeners: 0 out of 1709 total

Mexico City Tower (Helicopters): 118.150

MMMX Twr/App #1
Mexico City, Mexico

Feed Status: DOWN
Offline since: 2023-01-28 04:14:39 UTC

MMMX 050145Z 07012KT 6SM SKC 18/03 A3037 NOSIG RMK HZY

Mexico City Approach: 121.200
Mexico City Arrival (North): 129.650
Mexico City Arrival (South): 119.100
Mexico City Final Approach: 119.750
Mexico City Tower: 118.550

MMMX UNICOM (Archives)
Mexico City, Mexico

Feed Status: UP
Listen in your browser - HTML5 player(in browser, HTML5)
Click here to listen with your own player(launches your MP3 player)

MMMX 050145Z 07012KT 6SM SKC 18/03 A3037 NOSIG RMK HZY

MMMX Flight Activity (Flightaware)

Listeners: 0 out of 1709 total

Mexico City UNICOM: 122.500

MMMX Volaris Ops (Archives)
Mexico City, Mexico

Feed Status: UP
Listen in your browser - HTML5 player(in browser, HTML5)
Click here to listen with your own player(launches your MP3 player)

MMMX 050145Z 07012KT 6SM SKC 18/03 A3037 NOSIG RMK HZY

MMMX Flight Activity (Flightaware)

Listeners: 0 out of 1709 total

Volaris Ops: 130.375

MMMY Tower/Approach (Archives)
Monterrey, Mexico

Feed Status: UP
Listen in your browser - HTML5 player(in browser, HTML5)
Click here to listen with your own player(launches your MP3 player)

MMMY 050140Z 10004KT 15SM SKC 15/06 A3019 RMK ISOL CI

MMMY Flight Activity (Flightaware)

Listeners: 1 out of 1709 total

Monterrey Approach/Departure: 119.750
Monterrey Tower: 118.100

MMPC CTAF (Archives)
Pachuca, Mexico

Feed Status: UP
Listen in your browser - HTML5 player(in browser, HTML5)
Click here to listen with your own player(launches your MP3 player)

MMPC Flight Activity (Flightaware)

Listeners: 0 out of 1709 total

Pachuca CTAF/AFIS: 122.900

MMQT Tower/App (Archives)
Queretaro, Mexico

Feed Status: UP
Listen in your browser - HTML5 player(in browser, HTML5)
Click here to listen with your own player(launches your MP3 player)

MMQT 050149Z 10005KT 8SM SKC 17/M03 A3036

MMQT Flight Activity (Flightaware)

Listeners: 0 out of 1709 total

Queretaro Approach: 127.200
Queretaro Tower: 118.950

MMMX Departure (North) (Archives)
Santa Lucia, Mexico

Feed Status: UP
Listen in your browser - HTML5 player(in browser, HTML5)
Click here to listen with your own player(launches your MP3 player)

MMMX 050145Z 07012KT 6SM SKC 18/03 A3037 NOSIG RMK HZY

MMMX Flight Activity (Flightaware)

Listeners: 0 out of 1709 total

Mexico City Departure (North): 120.500

MMSM Approach (119.0) (Archives)
Santa Lucia, Mexico

Feed Status: UP
Listen in your browser - HTML5 player(in browser, HTML5)
Click here to listen with your own player(launches your MP3 player)

MMMX 050145Z 07012KT 6SM SKC 18/03 A3037 NOSIG RMK HZY

MMMX Flight Activity (Flightaware)

Listeners: 0 out of 1709 total

Santa Lucia Approach: 119.000

MMSM Approach (128.85) (Archives)
Santa Lucia, Mexico

Feed Status: UP
Listen in your browser - HTML5 player(in browser, HTML5)
Click here to listen with your own player(launches your MP3 player)

MMMX 050145Z 07012KT 6SM SKC 18/03 A3037 NOSIG RMK HZY

MMMX Flight Activity (Flightaware)

Listeners: 0 out of 1709 total

Santa Lucia Approach: 128.850

MMSM ATIS (Archives)
Santa Lucia, Mexico

Feed Status: UP
Listen in your browser - HTML5 player(in browser, HTML5)
Click here to listen with your own player(launches your MP3 player)

MMMX 050145Z 07012KT 6SM SKC 18/03 A3037 NOSIG RMK HZY

MMMX Flight Activity (Flightaware)

Listeners: 0 out of 1709 total

Santa Lucia ATIS:

MMSM Clearance Delivery (Archives)
Santa Lucia, Mexico

Feed Status: UP
Listen in your browser - HTML5 player(in browser, HTML5)
Click here to listen with your own player(launches your MP3 player)

MMMX 050145Z 07012KT 6SM SKC 18/03 A3037 NOSIG RMK HZY

MMMX Flight Activity (Flightaware)

Listeners: 0 out of 1709 total

Santa Lucia Clearance Delivery: 121.900

MMSM Ground (Archives)
Santa Lucia, Mexico

Feed Status: UP
Listen in your browser - HTML5 player(in browser, HTML5)
Click here to listen with your own player(launches your MP3 player)

MMMX 050145Z 07012KT 6SM SKC 18/03 A3037 NOSIG RMK HZY

MMMX Flight Activity (Flightaware)

Listeners: 0 out of 1709 total

Santa Lucia Ground: 121.800

MMSM Tower (Archives)
Santa Lucia, Mexico

Feed Status: UP
Listen in your browser - HTML5 player(in browser, HTML5)
Click here to listen with your own player(launches your MP3 player)

MMMX 050145Z 07012KT 6SM SKC 18/03 A3037 NOSIG RMK HZY

MMMX Flight Activity (Flightaware)

Listeners: 0 out of 1709 total

Santa Lucia Tower: 118.300

MMTC Twr/App/Center (Archives)
Torreon, Mexico

Feed Status: UP
Listen in your browser - HTML5 player(in browser, HTML5)
Click here to listen with your own player(launches your MP3 player)

MMTC 050140Z 36005KT 8SM SKC 21/02 A3020

MMTC Flight Activity (Flightaware)

Listeners: 0 out of 1709 total

Mazatlan Center: 124.200
Mazatlan Center: 124.400
Mazatlan Center: 128.000
Mexico Center: 123.900
Monterrey Center: 125.600
Monterrey Center: 125.425
Monterrey Center: 127.400
Torreon Approach: 119.500
Torreon Tower: 118.500

MMTJ Approach (Archives)
Tijuana, Mexico

Feed Status: UP
Listen in your browser - HTML5 player(in browser, HTML5)
Click here to listen with your own player(launches your MP3 player)

MMTJ 050140Z 00000KT 8SM FEW200 15/08 A3016 RMK 8/008 HZY

MMTJ Flight Activity (Flightaware)

Listeners: 0 out of 1709 total

Tijuana Approach: 120.300

MMTJ Twr/Ramp (Archives)
Tijuana, Mexico

Feed Status: UP
Listen in your browser - HTML5 player(in browser, HTML5)
Click here to listen with your own player(launches your MP3 player)

MMTJ 050140Z 00000KT 8SM FEW200 15/08 A3016 RMK 8/008 HZY

MMTJ Flight Activity (Flightaware)

Listeners: 0 out of 1709 total

Tijuana Ramp: 126.100
Tijuana Tower: 118.100

MPMG Ground
Panama City, Panama

Feed Status: DOWN
Offline since: 2023-02-02 23:02:22 UTC

MPMG 050200Z 30003KT 300V360 9999 FEW020 25/21 Q1013 NOSIG

Gelabert Ground: 121.700

MPMG Tower
Panama City, Panama

Feed Status: DOWN
Offline since: 2023-02-02 23:02:22 UTC

MPMG 050200Z 30003KT 300V360 9999 FEW020 25/21 Q1013 NOSIG

Gelabert Tower: 118.300

Panama App/Dep #2 (Archives)
Panama City, Panama

Feed Status: UP
Listen in your browser - HTML5 player(in browser, HTML5)
Click here to listen with your own player(launches your MP3 player)

MPPA 050200Z 35006KT 9999 FEW020 24/22 Q1013

MPPA Flight Activity (Flightaware)

Listeners: 0 out of 1709 total

Panama Approach: 119.700
Panama Departure: 119.200

Panama Approach #1
Panama City, Panama

Feed Status: DOWN
Offline since: 2023-02-02 23:02:22 UTC

MPMG 050200Z 30003KT 300V360 9999 FEW020 25/21 Q1013 NOSIG

Panama Approach: 119.700

Panama Center #1
Panama City, Panama

Feed Status: DOWN
Offline since: 2021-11-29 18:41:05 UTC

MPMG 050200Z 30003KT 300V360 9999 FEW020 25/21 Q1013 NOSIG

Panama Center: 134.900
Panama Center (North): 133.300
Panama Center (North): 125.500
Panama Center (South): 123.300
Panama Center (South): 133.000

Panama Center #2 (Archives)
Panama City, Panama

Feed Status: UP
Listen in your browser - HTML5 player(in browser, HTML5)
Click here to listen with your own player(launches your MP3 player)

MPPA 050200Z 35006KT 9999 FEW020 24/22 Q1013

MPPA Flight Activity (Flightaware)

Listeners: 1 out of 1709 total

Panama Center: 134.900
Panama Center (North): 125.500
Panama Center (North): 133.300
Panama Center (South): 123.300
Panama Center (South): 133.000

Panama Radio #1
Panama City, Panama

Feed Status: DOWN
Offline since: 2021-12-17 13:13:39 UTC

MPMG 050200Z 30003KT 300V360 9999 FEW020 25/21 Q1013 NOSIG

Panama Radio: 123.600
Panama Radio: 126.900

Panama Traffic Advisory #1
Panama City, Panama

Feed Status: DOWN
Offline since: 2023-02-02 23:02:22 UTC

MPMG 050200Z 30003KT 300V360 9999 FEW020 25/21 Q1013 NOSIG

Panama Traffic Advisory: 121.200

MPPA Ground (Archives)
Panama City, Panama

Feed Status: UP
Listen in your browser - HTML5 player(in browser, HTML5)
Click here to listen with your own player(launches your MP3 player)

MPPA 050200Z 35006KT 9999 FEW020 24/22 Q1013

MPPA Flight Activity (Flightaware)

Listeners: 0 out of 1709 total

Pacifico Ground: 121.100

MPPA Ground/Tower (Archives)
Panama City, Panama

Feed Status: UP
Listen in your browser - HTML5 player(in browser, HTML5)
Click here to listen with your own player(launches your MP3 player)

MPPA 050200Z 35006KT 9999 FEW020 24/22 Q1013

MPPA Flight Activity (Flightaware)

Listeners: 0 out of 1709 total

Pacifico Ground: 121.100
Pacifico Tower: 118.900

MPPA Tower (Archives)
Panama City, Panama

Feed Status: UP
Listen in your browser - HTML5 player(in browser, HTML5)
Click here to listen with your own player(launches your MP3 player)

MPPA 050200Z 35006KT 9999 FEW020 24/22 Q1013

MPPA Flight Activity (Flightaware)

Listeners: 0 out of 1709 total

Pacifico Tower: 118.900

Panama App/Dep #2 (Archives)
Panama City, Panama

Feed Status: UP
Listen in your browser - HTML5 player(in browser, HTML5)
Click here to listen with your own player(launches your MP3 player)

MPPA 050200Z 35006KT 9999 FEW020 24/22 Q1013

MPPA Flight Activity (Flightaware)

Listeners: 0 out of 1709 total

Panama Approach: 119.700
Panama Departure: 119.200

Panama Approach #1
Panama City, Panama

Feed Status: DOWN
Offline since: 2023-02-02 23:02:22 UTC

MPMG 050200Z 30003KT 300V360 9999 FEW020 25/21 Q1013 NOSIG

Panama Approach: 119.700

Panama Center #1
Panama City, Panama

Feed Status: DOWN
Offline since: 2021-11-29 18:41:05 UTC

MPMG 050200Z 30003KT 300V360 9999 FEW020 25/21 Q1013 NOSIG

Panama Center: 134.900
Panama Center (North): 133.300
Panama Center (North): 125.500
Panama Center (South): 123.300
Panama Center (South): 133.000

Panama Center #2 (Archives)
Panama City, Panama

Feed Status: UP
Listen in your browser - HTML5 player(in browser, HTML5)
Click here to listen with your own player(launches your MP3 player)

MPPA 050200Z 35006KT 9999 FEW020 24/22 Q1013

MPPA Flight Activity (Flightaware)

Listeners: 1 out of 1709 total

Panama Center: 134.900
Panama Center (North): 125.500
Panama Center (North): 133.300
Panama Center (South): 123.300
Panama Center (South): 133.000

Panama Radio #1
Panama City, Panama

Feed Status: DOWN
Offline since: 2021-12-17 13:13:39 UTC

MPMG 050200Z 30003KT 300V360 9999 FEW020 25/21 Q1013 NOSIG

Panama Radio: 123.600
Panama Radio: 126.900

Panama Traffic Advisory #1
Panama City, Panama

Feed Status: DOWN
Offline since: 2023-02-02 23:02:22 UTC

MPMG 050200Z 30003KT 300V360 9999 FEW020 25/21 Q1013 NOSIG

Panama Traffic Advisory: 121.200

Panama App/Dep #2 (Archives)
Panama City, Panama

Feed Status: UP
Listen in your browser - HTML5 player(in browser, HTML5)
Click here to listen with your own player(launches your MP3 player)

MPPA 050200Z 35006KT 9999 FEW020 24/22 Q1013

MPPA Flight Activity (Flightaware)

Listeners: 0 out of 1709 total

Panama Approach: 119.700
Panama Departure: 119.200

Panama Approach #1
Panama City, Panama

Feed Status: DOWN
Offline since: 2023-02-02 23:02:22 UTC

MPMG 050200Z 30003KT 300V360 9999 FEW020 25/21 Q1013 NOSIG

Panama Approach: 119.700

Panama Center #1
Panama City, Panama

Feed Status: DOWN
Offline since: 2021-11-29 18:41:05 UTC

MPMG 050200Z 30003KT 300V360 9999 FEW020 25/21 Q1013 NOSIG

Panama Center: 134.900
Panama Center (North): 133.300
Panama Center (North): 125.500
Panama Center (South): 123.300
Panama Center (South): 133.000

Panama Center #2 (Archives)
Panama City, Panama

Feed Status: UP
Listen in your browser - HTML5 player(in browser, HTML5)
Click here to listen with your own player(launches your MP3 player)

MPPA 050200Z 35006KT 9999 FEW020 24/22 Q1013

MPPA Flight Activity (Flightaware)

Listeners: 1 out of 1709 total

Panama Center: 134.900
Panama Center (North): 125.500
Panama Center (North): 133.300
Panama Center (South): 123.300
Panama Center (South): 133.000

Panama Radio #1
Panama City, Panama

Feed Status: DOWN
Offline since: 2021-12-17 13:13:39 UTC

MPMG 050200Z 30003KT 300V360 9999 FEW020 25/21 Q1013 NOSIG

Panama Radio: 123.600
Panama Radio: 126.900

Panama Traffic Advisory #1
Panama City, Panama

Feed Status: DOWN
Offline since: 2023-02-02 23:02:22 UTC

MPMG 050200Z 30003KT 300V360 9999 FEW020 25/21 Q1013 NOSIG

Panama Traffic Advisory: 121.200

CENAMER/Panama ACC (Archives)
San Jose, Costa Rica

Feed Status: UP
Listen in your browser - HTML5 player(in browser, HTML5)
Click here to listen with your own player(launches your MP3 player)

MROC 050200Z 10018G28KT CAVOK 21/13 A3004 NOSIG

MROC Flight Activity (Flightaware)

Listeners: 0 out of 1709 total

Central American Center (CENAMER Control): 124.100
Central American Center (CENAMER Control): 123.900
Panama Center: 133.000

MROC ATIS (Archives)
San Jose, Costa Rica

Feed Status: UP
Listen in your browser - HTML5 player(in browser, HTML5)
Click here to listen with your own player(launches your MP3 player)

MROC 050200Z 10018G28KT CAVOK 21/13 A3004 NOSIG

MROC Flight Activity (Flightaware)

Listeners: 0 out of 1709 total

Coco ATIS: 127.675

MROC Del/Gnd/Twr/App/Center/Misc (Archives)
San Jose, Costa Rica

Feed Status: UP
Listen in your browser - HTML5 player(in browser, HTML5)
Click here to listen with your own player(launches your MP3 player)

MROC 050200Z 10018G28KT CAVOK 21/13 A3004 NOSIG

MROC Flight Activity (Flightaware)

Listeners: 5 out of 1709 total

Coco Center (Control over CR Airspace): 119.600
Coco Clearance Delivery: 121.300
Coco Ground: 121.900
Coco Terminal Control: 120.500
Coco Tower: 118.600
Coco UNICOM: 126.800

MROC Gnd/Twr/App/Center (Archives)
San Jose, Costa Rica

Feed Status: UP
Listen in your browser - HTML5 player(in browser, HTML5)
Click here to listen with your own player(launches your MP3 player)

MROC 050200Z 10018G28KT CAVOK 21/13 A3004 NOSIG

MROC Flight Activity (Flightaware)

Listeners: 3 out of 1709 total

Central American Center (CENAMER Control): 124.100
Coco Center (Control over CR Airspace): 119.600
Coco Ground: 121.900
Coco Terminal Control: 120.500
Coco Tower: 118.600

MRPV Ground/Tower (Archives)
San Jose, Costa Rica

Feed Status: UP
Listen in your browser - HTML5 player(in browser, HTML5)
Click here to listen with your own player(launches your MP3 player)


MRPV Flight Activity (Flightaware)

Listeners: 0 out of 1709 total

Pavas Ground: 121.700
Pavas Tower: 118.300

MSLP Gnd/Twr/App
San Salvador, El Salvador

Feed Status: DOWN
Offline since: 2022-07-24 00:46:06 UTC

MSLP 050150Z VRB02KT 9999 FEW075 24/20 Q1013 A2992 NOSIG

Comalapa Ground: 121.700
Comalapa Tower: 118.000
Compalapa Approach: 119.900

MSLP Gnd/Twr/App/Center (Archives)
San Salvador, El Salvador

Feed Status: UP
Listen in your browser - HTML5 player(in browser, HTML5)
Click here to listen with your own player(launches your MP3 player)

MSLP 050150Z VRB02KT 9999 FEW075 24/20 Q1013 A2992 NOSIG

MSLP Flight Activity (Flightaware)

Listeners: 1 out of 1709 total

Avianca Ops: 123.500
CCA: 119.300
CENAMER: 124.100
Comalapa Authorizations: 121.250
Comalapa Departure: 123.900
Comalapa Ground: 121.700
Comalapa Tower: 118.000
Compalapa Approach: 119.900
Ilopango Tower: 118.300
TACA Ops: 130.500

MSSS Gnd/Twr/App (Archives)
San Salvador, El Salvador

Feed Status: UP
Listen in your browser - HTML5 player(in browser, HTML5)
Click here to listen with your own player(launches your MP3 player)


MSSS Flight Activity (Flightaware)

Listeners: 2 out of 1709 total

CENAMER (airborne only0: 124.100
CENAMER (airborne only0: 133.500
El Salvador Control: 129.200
El Salvador Tower: 118.000
Ilopango Approach: 129.225
Ilopango Ground: 121.900
Ilopango Radio: 127.050
Ilopango Tower: 118.300

MUFH Havana FIR (App/Center)
Havana, Cuba

Feed Status: DOWN
Offline since: 2023-02-03 22:43:22 UTC

Hava Approach: 120.300
Havana Center: 120.250
Havana Center: 123.700
Havana Center: 124.550
Havana Center: 133.700
Havana Center: 135.100

OBBI Gnd/Twr/App
Muharraq, Bahrain

Feed Status: DOWN
Offline since: 2023-01-03 23:13:05 UTC

OBBI 050200Z 34006KT CAVOK 17/09 Q1017 NOSIG

Bahrain Arrival: 127.850
Bahrain Control (Low Central): 124.300
Bahrain Control (Low East): 125.700
Bahrain Control (Low North): 126.700
Bahrain Departure: 119.100
Bahrain Ground: 121.850
Bahrain Tower: 118.500

OKBK Gnd/Twr/App/Radar (Archives)
Kuwait City, Kuwait

Feed Status: UP
Listen in your browser - HTML5 player(in browser, HTML5)
Click here to listen with your own player(launches your MP3 player)

OKBK 050200Z 17004KT CAVOK 09/06 Q1017 NOSIG


Listeners: 5 out of 1709 total

Kuwait Approach: 121.300
Kuwait Approach: 124.800
Kuwait Ground: 121.700
Kuwait Radar (Center): 125.300
Kuwait Tower: 118.300

OPKC Gnd/Twr/Radar (Archives)
Karachi, Pakistan

Feed Status: UP
Listen in your browser - HTML5 player(in browser, HTML5)
Click here to listen with your own player(launches your MP3 player)

OPKC 050200Z 06004KT 0050M FG VV111 15/14 Q1013 TEMPO 0020M FG


Listeners: 7 out of 1709 total

Karachi Ground: 121.600
Karachi Radar: 125.500
Karachi Tower: 118.300

RCSS Tower/App/Dep (Archives)
Taipei, Taiwan

Feed Status: UP
Listen in your browser - HTML5 player(in browser, HTML5)
Click here to listen with your own player(launches your MP3 player)

RCSS 050130Z VRB02KT 9000 -RA FEW003 BKN005 BKN080 19/19 Q1018 NOSIG RMK A3008

RCSS Flight Activity (Flightaware)

Listeners: 6 out of 1709 total

Emergency/Guard: 121.500
FIR Service (North of Taiwan): 125.500
Songshan Ground: 121.900
Songshan Tower: 118.100
Taipei Arrival/Departure: 119.700
Taipei Arrival/Departure: 119.600
Taipei Arrival/Departure (RCTP): 125.100

RJAA Approach (Archives)
Tokyo, Japan

Feed Status: UP
Listen in your browser - HTML5 player(in browser, HTML5)
Click here to listen with your own player(launches your MP3 player)

RJAA 050130Z 35004KT 300V040 9999 FEW030 08/M03 Q1023 BECMG 09005KT

RJAA Flight Activity (Flightaware)

Listeners: 16 out of 1709 total

Tokyo Approach: 124.400
Tokyo Approach: 127.700

RJAA ATIS (Archives)
Tokyo, Japan

Feed Status: UP
Listen in your browser - HTML5 player(in browser, HTML5)
Click here to listen with your own player(launches your MP3 player)

RJAA 050130Z 35004KT 300V040 9999 FEW030 08/M03 Q1023 BECMG 09005KT

RJAA Flight Activity (Flightaware)

Listeners: 1 out of 1709 total

Narita ATIS: 128.250

RJAA Clearance Delivery (Archives)
Tokyo, Japan

Feed Status: UP
Listen in your browser - HTML5 player(in browser, HTML5)
Click here to listen with your own player(launches your MP3 player)

RJAA 050130Z 35004KT 300V040 9999 FEW030 08/M03 Q1023 BECMG 09005KT

RJAA Flight Activity (Flightaware)

Listeners: 6 out of 1709 total

Narita Clearance Delivery (Asia/Pacific): 121.650
Narita Clearance Delivery (US/Europe): 121.900

RJAA Clearance Delivery #1 (Archives)
Tokyo, Japan

Feed Status: UP
Listen in your browser - HTML5 player(in browser, HTML5)
Click here to listen with your own player(launches your MP3 player)

RJAA 050130Z 35004KT 300V040 9999 FEW030 08/M03 Q1023 BECMG 09005KT

RJAA Flight Activity (Flightaware)

Listeners: 1 out of 1709 total

Narita Clearance Delivery (Asia/Pacific): 121.650

RJAA Clearance Delivery #2 (Archives)
Tokyo, Japan

Feed Status: UP
Listen in your browser - HTML5 player(in browser, HTML5)
Click here to listen with your own player(launches your MP3 player)

RJAA 050130Z 35004KT 300V040 9999 FEW030 08/M03 Q1023 BECMG 09005KT

RJAA Flight Activity (Flightaware)

Listeners: 2 out of 1709 total

Narita Clearance Delivery (US/Europe): 121.900

RJAA Company Channels (Archives)
Tokyo, Japan

Feed Status: UP
Listen in your browser - HTML5 player(in browser, HTML5)
Click here to listen with your own player(launches your MP3 player)

RJAA 050130Z 35004KT 300V040 9999 FEW030 08/M03 Q1023 BECMG 09005KT

RJAA Flight Activity (Flightaware)

Listeners: 2 out of 1709 total

Ops: 130.450
Ops: 130.550
Ops: 130.900
Ops: 131.025
Ops: 131.100
Ops: 131.200
Ops: 131.700
Ops: 131.750

RJAA Departure (Archives)
Tokyo, Japan

Feed Status: UP
Listen in your browser - HTML5 player(in browser, HTML5)
Click here to listen with your own player(launches your MP3 player)

RJAA 050130Z 35004KT 300V040 9999 FEW030 08/M03 Q1023 BECMG 09005KT

RJAA Flight Activity (Flightaware)

Listeners: 4 out of 1709 total

Tokyo Departure: 119.600
Tokyo Departure: 124.200

RJAA Departure #1 (Archives)
Tokyo, Japan

Feed Status: UP
Listen in your browser - HTML5 player(in browser, HTML5)
Click here to listen with your own player(launches your MP3 player)

RJAA 050130Z 35004KT 300V040 9999 FEW030 08/M03 Q1023 BECMG 09005KT

RJAA Flight Activity (Flightaware)

Listeners: 1 out of 1709 total

Tokyo Departure: 124.200

RJAA Departure #2 (Archives)
Tokyo, Japan

Feed Status: UP
Listen in your browser - HTML5 player(in browser, HTML5)
Click here to listen with your own player(launches your MP3 player)

RJAA 050130Z 35004KT 300V040 9999 FEW030 08/M03 Q1023 BECMG 09005KT

RJAA Flight Activity (Flightaware)

Listeners: 0 out of 1709 total

Tokyo Departure: 119.600

RJAA Emergency/Guard (Archives)
Tokyo, Japan

Feed Status: UP
Listen in your browser - HTML5 player(in browser, HTML5)
Click here to listen with your own player(launches your MP3 player)

RJAA 050130Z 35004KT 300V040 9999 FEW030 08/M03 Q1023 BECMG 09005KT

RJAA Flight Activity (Flightaware)

Listeners: 2 out of 1709 total

Emergency/Guard: 121.500

RJAA Ground #1 (Archives)
Tokyo, Japan

Feed Status: UP
Listen in your browser - HTML5 player(in browser, HTML5)
Click here to listen with your own player(launches your MP3 player)

RJAA 050130Z 35004KT 300V040 9999 FEW030 08/M03 Q1023 BECMG 09005KT

RJAA Flight Activity (Flightaware)

Listeners: 6 out of 1709 total

Narita Ground: 121.850

RJAA Ground #2 (Archives)
Tokyo, Japan

Feed Status: UP
Listen in your browser - HTML5 player(in browser, HTML5)
Click here to listen with your own player(launches your MP3 player)

RJAA 050130Z 35004KT 300V040 9999 FEW030 08/M03 Q1023 BECMG 09005KT

RJAA Flight Activity (Flightaware)

Listeners: 4 out of 1709 total

Narita Ground: 121.950

RJAA Radar 119.025 (Archives)
Tokyo, Japan

Feed Status: UP
Listen in your browser - HTML5 player(in browser, HTML5)
Click here to listen with your own player(launches your MP3 player)

RJAA 050130Z 35004KT 300V040 9999 FEW030 08/M03 Q1023 BECMG 09005KT

RJAA Flight Activity (Flightaware)

Listeners: 2 out of 1709 total

Tokyo Radar: 119.025

RJAA Radar 120.2 (Archives)
Tokyo, Japan

Feed Status: UP
Listen in your browser - HTML5 player(in browser, HTML5)
Click here to listen with your own player(launches your MP3 player)

RJAA 050130Z 35004KT 300V040 9999 FEW030 08/M03 Q1023 BECMG 09005KT

RJAA Flight Activity (Flightaware)

Listeners: 1 out of 1709 total

Tokyo Radar: 120.200

RJAA Radar 120.6 (Archives)
Tokyo, Japan

Feed Status: UP
Listen in your browser - HTML5 player(in browser, HTML5)
Click here to listen with your own player(launches your MP3 player)

RJAA 050130Z 35004KT 300V040 9999 FEW030 08/M03 Q1023 BECMG 09005KT

RJAA Flight Activity (Flightaware)

Listeners: 2 out of 1709 total

Tokyo Radar: 120.600

RJAA Radar 132.1 (Archives)
Tokyo, Japan

Feed Status: UP
Listen in your browser - HTML5 player(in browser, HTML5)
Click here to listen with your own player(launches your MP3 player)

RJAA 050130Z 35004KT 300V040 9999 FEW030 08/M03 Q1023 BECMG 09005KT

RJAA Flight Activity (Flightaware)

Listeners: 2 out of 1709 total

Tokyo Radar: 132.100

RJAA Radar 133.35 (Archives)
Tokyo, Japan

Feed Status: UP
Listen in your browser - HTML5 player(in browser, HTML5)
Click here to listen with your own player(launches your MP3 player)

RJAA 050130Z 35004KT 300V040 9999 FEW030 08/M03 Q1023 BECMG 09005KT

RJAA Flight Activity (Flightaware)

Listeners: 1 out of 1709 total

Tokyo Radar: 133.350

RJAA Ramp #1 (Archives)
Tokyo, Japan

Feed Status: UP
Listen in your browser - HTML5 player(in browser, HTML5)
Click here to listen with your own player(launches your MP3 player)

RJAA 050130Z 35004KT 300V040 9999 FEW030 08/M03 Q1023 BECMG 09005KT

RJAA Flight Activity (Flightaware)

Listeners: 3 out of 1709 total

Narita Ramp: 121.600

RJAA Ramp #2 (Archives)
Tokyo, Japan

Feed Status: UP
Listen in your browser - HTML5 player(in browser, HTML5)
Click here to listen with your own player(launches your MP3 player)

RJAA 050130Z 35004KT 300V040 9999 FEW030 08/M03 Q1023 BECMG 09005KT

RJAA Flight Activity (Flightaware)

Listeners: 1 out of 1709 total

Narita Ramp: 121.750

RJAA TCA (Archives)
Tokyo, Japan

Feed Status: UP
Listen in your browser - HTML5 player(in browser, HTML5)
Click here to listen with your own player(launches your MP3 player)

RJAA 050130Z 35004KT 300V040 9999 FEW030 08/M03 Q1023 BECMG 09005KT

RJAA Flight Activity (Flightaware)

Listeners: 1 out of 1709 total

Tokyo TCA (Terminal Control Area): 119.450

RJAA Tokyo Control (Archives)
Tokyo, Japan

Feed Status: UP
Listen in your browser - HTML5 player(in browser, HTML5)
Click here to listen with your own player(launches your MP3 player)

RJAA 050130Z 35004KT 300V040 9999 FEW030 08/M03 Q1023 BECMG 09005KT

RJAA Flight Activity (Flightaware)

Listeners: 0 out of 1709 total

Tokyo Control: 125.900

RJAA Tower #1 (Archives)
Tokyo, Japan

Feed Status: UP
Listen in your browser - HTML5 player(in browser, HTML5)
Click here to listen with your own player(launches your MP3 player)

RJAA 050130Z 35004KT 300V040 9999 FEW030 08/M03 Q1023 BECMG 09005KT

RJAA Flight Activity (Flightaware)

Listeners: 11 out of 1709 total

Narita Tower (Rwy 16R/34L): 118.200

RJAA Tower #2 (Archives)
Tokyo, Japan

Feed Status: UP
Listen in your browser - HTML5 player(in browser, HTML5)
Click here to listen with your own player(launches your MP3 player)

RJAA 050130Z 35004KT 300V040 9999 FEW030 08/M03 Q1023 BECMG 09005KT

RJAA Flight Activity (Flightaware)

Listeners: 0 out of 1709 total

Narita Tower (Rwy 16L/34R): 118.350

RJAA Tower (Both) (Archives)
Tokyo, Japan

Feed Status: UP
Listen in your browser - HTML5 player(in browser, HTML5)
Click here to listen with your own player(launches your MP3 player)

RJAA 050130Z 35004KT 300V040 9999 FEW030 08/M03 Q1023 BECMG 09005KT

RJAA Flight Activity (Flightaware)

Listeners: 6 out of 1709 total

Narita Tower (Rwy 16L/34R): 118.350
Narita Tower (Rwy 16R/34L): 118.200

RJOO Tower (Archives)
Osaka, Japan

Feed Status: UP
Listen in your browser - HTML5 player(in browser, HTML5)
Click here to listen with your own player(launches your MP3 player)

RJOO 050100Z VRB02KT 9999 FEW025 SCT050 08/M02 Q1025 RMK 1CU025 3CU050 A3027

RJOO Flight Activity (Flightaware)

Listeners: 38 out of 1709 total

Osaka Tower: 118.100

RJSF RDO (Archives)
Sukagawa, Japan

Feed Status: UP
Listen in your browser - HTML5 player(in browser, HTML5)
Click here to listen with your own player(launches your MP3 player)

RJSF 050100Z 33009KT 280V350 9999 FEW030 SCT045 03/M04 Q1022

RJSF Flight Activity (Flightaware)

Listeners: 1 out of 1709 total

Fukushima Radio: 118.050

RJTT App/Dep (Archives)
Tokyo, Japan

Feed Status: UP
Listen in your browser - HTML5 player(in browser, HTML5)
Click here to listen with your own player(launches your MP3 player)

RJTT 050130Z 05005KT 9999 FEW030 07/M02 Q1023 BECMG 08006KT RMK 1CU030 A3023

RJTT Flight Activity (Flightaware)

Listeners: 23 out of 1709 total

Tokyo Approach: 119.100
Tokyo Approach: 119.400
Tokyo Departure: 120.800
Tokyo Departure: 126.000

RJTT Approach (Archives)
Tokyo, Japan

Feed Status: UP
Listen in your browser - HTML5 player(in browser, HTML5)
Click here to listen with your own player(launches your MP3 player)

RJTT 050130Z 05005KT 9999 FEW030 07/M02 Q1023 BECMG 08006KT RMK 1CU030 A3023

RJTT Flight Activity (Flightaware)

Listeners: 30 out of 1709 total

Tokyo Approach: 119.100
Tokyo Approach: 119.400

RJTT ATIS (Archives)
Tokyo, Japan

Feed Status: UP
Listen in your browser - HTML5 player(in browser, HTML5)
Click here to listen with your own player(launches your MP3 player)

RJTT 050130Z 05005KT 9999 FEW030 07/M02 Q1023 BECMG 08006KT RMK 1CU030 A3023

RJTT Flight Activity (Flightaware)

Listeners: 3 out of 1709 total

Tokyo ATIS: 128.800

RJTT Company Channels (Archives)
Tokyo, Japan

Feed Status: UP
Listen in your browser - HTML5 player(in browser, HTML5)
Click here to listen with your own player(launches your MP3 player)

RJTT 050130Z 05005KT 9999 FEW030 07/M02 Q1023 BECMG 08006KT RMK 1CU030 A3023

RJTT Flight Activity (Flightaware)

Listeners: 10 out of 1709 total

Company TBD: 128.500
Company TBD: 131.850
Company TBD: 129.725
Company TBD: 129.700
Company TBD: 131.900
Company TBD: 129.850
Company TBD: 128.975
Company TBD: 123.675
Company TBD: 132.075

RJTT Del/Ground (Archives)
Tokyo, Japan

Feed Status: UP
Listen in your browser - HTML5 player(in browser, HTML5)
Click here to listen with your own player(launches your MP3 player)

RJTT 050130Z 05005KT 9999 FEW030 07/M02 Q1023 BECMG 08006KT RMK 1CU030 A3023

RJTT Flight Activity (Flightaware)

Listeners: 3 out of 1709 total

Tokyo Clearance Delivery: 121.825
Tokyo Ground: 121.700
Tokyo Ground: 118.225
Tokyo Ground: 121.625
Tokyo Ground: 121.975

RJTT Del/Twr/TCA/Gnd (Archives)
Tokyo, Japan

Feed Status: UP
Listen in your browser - HTML5 player(in browser, HTML5)
Click here to listen with your own player(launches your MP3 player)

RJTT 050130Z 05005KT 9999 FEW030 07/M02 Q1023 BECMG 08006KT RMK 1CU030 A3023

RJTT Flight Activity (Flightaware)

Listeners: 4 out of 1709 total

Tokyo Clearance Delivery: 121.825
Tokyo Ground: 121.975
Tokyo Ground: 121.625
Tokyo Ground: 121.700
Tokyo Ground: 118.225
Tokyo TCA: 124.750
Tokyo Tower: 118.100
Tokyo Tower: 118.575
Tokyo Tower: 118.725
Tokyo Tower: 124.350

RJTT Departure (Archives)
Tokyo, Japan

Feed Status: UP
Listen in your browser - HTML5 player(in browser, HTML5)
Click here to listen with your own player(launches your MP3 player)

RJTT 050130Z 05005KT 9999 FEW030 07/M02 Q1023 BECMG 08006KT RMK 1CU030 A3023

RJTT Flight Activity (Flightaware)

Listeners: 11 out of 1709 total

Tokyo Departure: 120.800
Tokyo Departure: 126.000

RJTT Tokyo Control (Archives)
Tokyo, Japan

Feed Status: UP
Listen in your browser - HTML5 player(in browser, HTML5)
Click here to listen with your own player(launches your MP3 player)

RJTT 050130Z 05005KT 9999 FEW030 07/M02 Q1023 BECMG 08006KT RMK 1CU030 A3023

RJTT Flight Activity (Flightaware)

Listeners: 28 out of 1709 total

Tokyo Control: 133.700
Tokyo Control: 125.900
Tokyo Control: 120.500

RJTT Twr/TCA (Archives)
Tokyo, Japan

Feed Status: UP
Listen in your browser - HTML5 player(in browser, HTML5)
Click here to listen with your own player(launches your MP3 player)

RJTT 050130Z 05005KT 9999 FEW030 07/M02 Q1023 BECMG 08006KT RMK 1CU030 A3023

RJTT Flight Activity (Flightaware)

Listeners: 27 out of 1709 total

Tokyo TCA: 124.750
Tokyo Tower: 118.100
Tokyo Tower: 118.575
Tokyo Tower: 118.725
Tokyo Tower: 124.350

RJTY Approach (Archives)
Tokyo, Japan

Feed Status: UP
Listen in your browser - HTML5 player(in browser, HTML5)
Click here to listen with your own player(launches your MP3 player)

RJTY 050155Z AUTO 03004KT 10SM CLR 09/M04 A3021 RMK AO2 SLP237 T00861039 $

RJTY Flight Activity (Flightaware)

Listeners: 8 out of 1709 total

Yokota Approach: 118.300
Yokota APproach: 123.800
Yokota Approach: 120.700

RJTY ATIS (Archives)
Tokyo, Japan

Feed Status: UP
Listen in your browser - HTML5 player(in browser, HTML5)
Click here to listen with your own player(launches your MP3 player)

RJTY 050155Z AUTO 03004KT 10SM CLR 09/M04 A3021 RMK AO2 SLP237 T00861039 $

RJTY Flight Activity (Flightaware)

Listeners: 1 out of 1709 total

Yokota ATIS: 126.400

RJTY Ground (Archives)
Tokyo, Japan

Feed Status: UP
Listen in your browser - HTML5 player(in browser, HTML5)
Click here to listen with your own player(launches your MP3 player)

RJTY 050155Z AUTO 03004KT 10SM CLR 09/M04 A3021 RMK AO2 SLP237 T00861039 $

RJTY Flight Activity (Flightaware)

Listeners: 1 out of 1709 total

Yokota Ground: 133.200

RJTY Ground/Tower (Archives)
Tokyo, Japan

Feed Status: UP
Listen in your browser - HTML5 player(in browser, HTML5)
Click here to listen with your own player(launches your MP3 player)

RJTY 050155Z AUTO 03004KT 10SM CLR 09/M04 A3021 RMK AO2 SLP237 T00861039 $

RJTY Flight Activity (Flightaware)

Listeners: 5 out of 1709 total

Yokota Ground: 133.200
Yokota Tower: 134.300

RJTY Tower (Archives)
Tokyo, Japan

Feed Status: UP
Listen in your browser - HTML5 player(in browser, HTML5)
Click here to listen with your own player(launches your MP3 player)

RJTY 050155Z AUTO 03004KT 10SM CLR 09/M04 A3021 RMK AO2 SLP237 T00861039 $

RJTY Flight Activity (Flightaware)

Listeners: 1 out of 1709 total

Yokota Tower: 134.300

RPLL App/Dep 124.4 (Archives)
Manila, Philippines

Feed Status: UP
Listen in your browser - HTML5 player(in browser, HTML5)
Click here to listen with your own player(launches your MP3 player)

RPLL 050100Z 29004KT 220V320 9999 FEW025 BKN100 27/21 Q1013 NOSIG RMK A2991

RPLL Flight Activity (Flightaware)

Listeners: 1 out of 1709 total

Manila Approach/.Departure: 124.400

RPLL App/Dep 124.8 (Archives)
Manila, Philippines

Feed Status: UP
Listen in your browser - HTML5 player(in browser, HTML5)
Click here to listen with your own player(launches your MP3 player)

RPLL 050100Z 29004KT 220V320 9999 FEW025 BKN100 27/21 Q1013 NOSIG RMK A2991

RPLL Flight Activity (Flightaware)

Listeners: 0 out of 1709 total

Manila Approach/.Departure: 124.800

RPLL Ground (Archives)
Manila, Philippines

Feed Status: UP
Listen in your browser - HTML5 player(in browser, HTML5)
Click here to listen with your own player(launches your MP3 player)

RPLL 050100Z 29004KT 220V320 9999 FEW025 BKN100 27/21 Q1013 NOSIG RMK A2991

RPLL Flight Activity (Flightaware)

Listeners: 1 out of 1709 total

Manila Ground: 121.800

RPLL Ramp T3 (Archives)
Manila, Philippines

Feed Status: UP
Listen in your browser - HTML5 player(in browser, HTML5)
Click here to listen with your own player(launches your MP3 player)

RPLL 050100Z 29004KT 220V320 9999 FEW025 BKN100 27/21 Q1013 NOSIG RMK A2991

RPLL Flight Activity (Flightaware)

Listeners: 2 out of 1709 total

Manila Ramp/Taxi: 121.350

RPLL Ramp T4 (Archives)
Manila, Philippines

Feed Status: UP
Listen in your browser - HTML5 player(in browser, HTML5)
Click here to listen with your own player(launches your MP3 player)

RPLL 050100Z 29004KT 220V320 9999 FEW025 BKN100 27/21 Q1013 NOSIG RMK A2991

RPLL Flight Activity (Flightaware)

Listeners: 2 out of 1709 total

Manila Ramp T4: 123.250

RPLL Ramp/Taxi 121.7 (Archives)
Manila, Philippines

Feed Status: UP
Listen in your browser - HTML5 player(in browser, HTML5)
Click here to listen with your own player(launches your MP3 player)

RPLL 050100Z 29004KT 220V320 9999 FEW025 BKN100 27/21 Q1013 NOSIG RMK A2991

RPLL Flight Activity (Flightaware)

Listeners: 1 out of 1709 total

Manila Ramp/Taxi: 121.700

RPLL Tower (Archives)
Manila, Philippines

Feed Status: UP
Listen in your browser - HTML5 player(in browser, HTML5)
Click here to listen with your own player(launches your MP3 player)

RPLL 050100Z 29004KT 220V320 9999 FEW025 BKN100 27/21 Q1013 NOSIG RMK A2991

RPLL Flight Activity (Flightaware)

Listeners: 9 out of 1709 total

Manila Tower: 118.100

RPUX Gnd/Twr
Plaridel, Philippines

Feed Status: DOWN
Offline since: 2023-01-11 14:38:06 UTC


Plaridel Ground: 123.550
Plaridel Tower: 122.400

RPUX Ground
Plaridel, Philippines

Feed Status: DOWN
Offline since: 2023-01-11 12:51:39 UTC


Plaridel Ground: 123.550

RPUX Tower
Plaridel, Philippines

Feed Status: DOWN
Offline since: 2023-01-11 12:51:39 UTC


Plaridel Tower: 122.400

SANT Tower/Apps (Archives)
Tucuman, Argentina

Feed Status: UP
Listen in your browser - HTML5 player(in browser, HTML5)
Click here to listen with your own player(launches your MP3 player)

SANT 050100Z 36005KT CAVOK 22/20 Q1017 RMK PP000

SANT Flight Activity (Flightaware)

Listeners: 0 out of 1709 total

Aeroclub Tucuman: 119.000
Aerolineas Argentinas SOC Salta: 131.100
Aerolineas Argentinas SOC Tucuman: 131.950
Air To Air: 123.450
Andes Lineas Aereas: 132.000
Campo Arenal: 130.950
Catamarca Tower: 118.150
Copa Airlines: 129.400
Cordoba Centro Norte: 125.100
Cordoba Centro Sur: 126.500
Emergency/Guard: 121.500
Lan Argentina Operaciones: 131.700
Lan Peru: 131.300
Salta Tower: 128.850
Santiago del Estero Tower: 118.700
Taca Peru: 126.450
Termas de Rio Hondo: 118.200
Termas de Rio Hondo: 119.850
Tucuman Ground: 121.750
Tucuman Ground: 121.750
Tucuman Tower: 118.350
Tucuman Tower: 119.500

SASA Twr/App (Archives)
Salta, Argentina

Feed Status: UP
Listen in your browser - HTML5 player(in browser, HTML5)
Click here to listen with your own player(launches your MP3 player)

SASA 050100Z 26003KT 140V290 6000 -RA SCT030 OVC050 16/15 Q1024 RMK PP999

SASA Flight Activity (Flightaware)

Listeners: 1 out of 1709 total

Cordoba Approach (North): 125.100
Salta Approach: 124.600
Salta Tower: 126.000
Salta Tower/Ground: 128.850

SAZN Tower (Archives)
Neuquen, Argentina

Feed Status: UP
Listen in your browser - HTML5 player(in browser, HTML5)
Click here to listen with your own player(launches your MP3 player)

SAZN 050100Z 36005KT CAVOK 31/10 Q1010

SAZN Flight Activity (Flightaware)

Listeners: 5 out of 1709 total

Neuquen Tower/Approach: 119.800

SAZS Gnd/Twr/App (Archives)
Rio Negro, Argentina

Feed Status: UP
Listen in your browser - HTML5 player(in browser, HTML5)
Click here to listen with your own player(launches your MP3 player)

SAZS 050100Z 30007KT CAVOK 26/06 Q1013 RMK PP///

SAZS Flight Activity (Flightaware)

Listeners: 6 out of 1709 total

Bariloche Twr/App: 119.100
Comodoro Rivadavia Control: 125.500
Ezeiza South: 125.200

SBAR Twr/App (Archives)
Santa Maria, Brazil

Feed Status: UP
Listen in your browser - HTML5 player(in browser, HTML5)
Click here to listen with your own player(launches your MP3 player)

SBAR 050200Z 08009KT 9999 SCT019TCU 27/23 Q1015

SBAR Flight Activity (Flightaware)

Listeners: 2 out of 1709 total

Santa Maria Approach: 120.300
Santa Maria Tower: 118.800

SBBE Twr/App/SBAZ
Belem, Brazil

Feed Status: DOWN
Offline since: 2023-02-04 22:43:22 UTC

SBBE 050200Z 03002KT CAVOK 24/23 Q1014

Amazonica FIR (SBAZ): 126.500
Amazonica FIR (SBAZ): 128.000
Amazonica FIR (SBAZ): 123.950
Amazonica FIR (SBAZ): 126.150
Amazonica FIR (SBAZ): 126.650
Amazonica FIR (SBAZ): 133.700
Belem Approach: 119.050
Belem Approach: 119.500
Belem Tower: 118.700

SBBR Approach (Archives)
Brasilia, Brazil

Feed Status: UP
Listen in your browser - HTML5 player(in browser, HTML5)
Click here to listen with your own player(launches your MP3 player)

SBBR 050200Z VRB01KT 9999 FEW020 SCT100 22/19 Q1021

SBBR Flight Activity (Flightaware)

Listeners: 0 out of 1709 total

Brasilia Approach: 120.650
Brasilia Approach: 129.150
Brasilia Approach: 129.600
Brasilia Approach (Final): 119.200
Brasilia Departure: 119.500
Brasilia Departure: 119.700

SBBR Ground (Archives)
Brasilia, Brazil

Feed Status: UP
Listen in your browser - HTML5 player(in browser, HTML5)
Click here to listen with your own player(launches your MP3 player)

SBBR 050200Z VRB01KT 9999 FEW020 SCT100 22/19 Q1021

SBBR Flight Activity (Flightaware)

Listeners: 0 out of 1709 total

Brasilia Ground: 121.950
Brasilia Ground: 121.800

SBBR Tower (Archives)
Brasilia, Brazil

Feed Status: UP
Listen in your browser - HTML5 player(in browser, HTML5)
Click here to listen with your own player(launches your MP3 player)

SBBR 050200Z VRB01KT 9999 FEW020 SCT100 22/19 Q1021

SBBR Flight Activity (Flightaware)

Listeners: 0 out of 1709 total

Brasilia Tower: 118.100
Brasilia Tower: 181.750
Brasilia Tower: 118.450

SBCT Gnd/Twr/App (Archives)
Curitiba, Brazil

Feed Status: UP
Listen in your browser - HTML5 player(in browser, HTML5)
Click here to listen with your own player(launches your MP3 player)

SBCT 050200Z 04002KT CAVOK 18/17 Q1017

SBCT Flight Activity (Flightaware)

Listeners: 1 out of 1709 total

Curitiba Approach: 119.950
Curitiba Ground: 121.900
Curitiba Tower: 118.150
Curitiba Tower: 118.900

SBDN Twr/App
Presidente Prudente/Sao Paulo, Brazil

Feed Status: DOWN
Offline since: 2022-09-06 23:40:39 UTC

SBDN 050100Z 33003KT CAVOK 25/23 Q1015

Air-to-Air: 123.450
Curitiba Sector 13: 133.595
Prudente Approach: 118.450
Prudente Tower: 125.450

SBEG Tower/App (Archives)
Manaus, Brazil

Feed Status: UP
Listen in your browser - HTML5 player(in browser, HTML5)
Click here to listen with your own player(launches your MP3 player)

SBEG 050200Z VRB02KT 9999 VCTS FEW012 FEW025CB 24/23 Q1013

SBEG Flight Activity (Flightaware)

Listeners: 2 out of 1709 total

Emergency/Guard: 121.500
Manaus Approach : 119.250
Manaus Approach: 120.400
Manaus Approach: 119.700
Manaus Tower: 118.300

SBFZ ACC/Misc (Archives)
Fortaleza, Brazil

Feed Status: UP
Listen in your browser - HTML5 player(in browser, HTML5)
Click here to listen with your own player(launches your MP3 player)

SBFZ 050200Z 08005KT 050V110 9999 SCT018 28/24 Q1014

SBFZ Flight Activity (Flightaware)

Listeners: 0 out of 1709 total

Ait to Air: 123.450
SBAC: 131.250
SBJE: 131.050
SBJU: 131.750
SBMS: 125.800
SBPB: 126.600
SBRF ACC: 135.250
SBRF ACC: 133.500
SBRF ACC: 126.350
SBRF ACC: 125.150

SBFZ Twr/App/Center
Fortaleza, Brazil

Feed Status: DOWN
Offline since: 2023-01-26 21:17:06 UTC

SBFZ 050200Z 08005KT 050V110 9999 SCT018 28/24 Q1014

ACC-RE (Fortaleza Sector): 125.150
ACC-RE (Fortaleza Sector): 126.350
ACC-RE (Fortaleza Sector): 135.250
Fortaleza Approach: 133.000
Fortaleza Tower: 129.000

SBGO Gnd/Twr/App (Archives)
Goiania, Brazil

Feed Status: UP
Listen in your browser - HTML5 player(in browser, HTML5)
Click here to listen with your own player(launches your MP3 player)

SBGO 050200Z 33005KT 9999 VCTS FEW040 FEW045CB 22/19 Q1019

SBGO Flight Activity (Flightaware)

Listeners: 2 out of 1709 total

Anapolis Approach: 119.150
Anapolis Approach: 120.550
Anapolis Approach: 133.000
Anapolis Approach: 129.450
Emergency/Guard: 121.500
Goiania Ground: 121.700
Goiania Tower: 118.700
Goiania Tower: 121.050

SBJP Tower (Archives)
Joao Pessoa, Brazil

Feed Status: UP
Listen in your browser - HTML5 player(in browser, HTML5)
Click here to listen with your own player(launches your MP3 player)

SBJP 050200Z 14004KT 9999 FEW017 26/24 Q1014

SBJP Flight Activity (Flightaware)

Listeners: 1 out of 1709 total

Joao Pessoa Tower: 118.300

SBJP Twr/Control/Airlines (Archives)
Joao Pessoa, Brazil

Feed Status: UP
Listen in your browser - HTML5 player(in browser, HTML5)
Click here to listen with your own player(launches your MP3 player)

SBJP 050200Z 14004KT 9999 FEW017 26/24 Q1014

SBJP Flight Activity (Flightaware)

Listeners: 0 out of 1709 total

AZUL: 130.900
GOL: 131.225
Joao Pessoa Tower: 118.300
Recife Control: 119.500
TAM: 130.500

SBJU Tower/Center (Archives)
Juazeiro do Norte, Brazil

Feed Status: UP
Listen in your browser - HTML5 player(in browser, HTML5)
Click here to listen with your own player(launches your MP3 player)

SBJU 050100Z 00000KT CAVOK 27/21 Q1017

SBJU Flight Activity (Flightaware)

Listeners: 1 out of 1709 total

Pilot-to-Pilot: 123.450
Radio Juazeiro: 131.750
Recife Center: 135.250
Recife Center: 125.150

SBKP Approach
Campinas, Brazil

Feed Status: DOWN
Offline since: 2022-08-25 10:44:39 UTC

SBKP 050200Z 08003KT 9999 FEW040 23/21 Q1017

Campinas Approach: 132.100
Campinas Approach: 135.750

SBKP Tower #1 (Archives)
Campinas, Brazil

Feed Status: UP
Listen in your browser - HTML5 player(in browser, HTML5)
Click here to listen with your own player(launches your MP3 player)

SBKP 050200Z 08003KT 9999 FEW040 23/21 Q1017

SBKP Flight Activity (Flightaware)

Listeners: 2 out of 1709 total

Campinas Tower: 118.250

SBKP Tower #2 (Archives)
Campinas, Brazil

Feed Status: UP
Listen in your browser - HTML5 player(in browser, HTML5)
Click here to listen with your own player(launches your MP3 player)

SBKP 050200Z 08003KT 9999 FEW040 23/21 Q1017

SBKP Flight Activity (Flightaware)

Listeners: 0 out of 1709 total

Campinas Tower: 118.250

SBLO Twr/App/Center (Archives)
Londrina, Brazil

Feed Status: UP
Listen in your browser - HTML5 player(in browser, HTML5)
Click here to listen with your own player(launches your MP3 player)

SBLO 050200Z 32002KT CAVOK 24/23 Q1016

SBLO Flight Activity (Flightaware)

Listeners: 1 out of 1709 total

Curitiba Center: 128.350
Curitiba Center: 135.100
Curitiba Center: 125.800
Curitiba Center: 126.950
Emergency/Guard: 121.500
Londrina Approach: 129.700
Londrina Tower: 118.400
UNICOM: 123.450

SBMG Twr/App (Archives)
Maringa, Brazil

Feed Status: UP
Listen in your browser - HTML5 player(in browser, HTML5)
Click here to listen with your own player(launches your MP3 player)

SBMG 050100Z 34004KT 330V030 CAVOK 24/20 Q1014

SBMG Flight Activity (Flightaware)

Listeners: 0 out of 1709 total

Londrina Approach: 129.700
Maringa Tower: 118.750
UNICOM: 123.450

SBMK RDO/Center (Archives)
Montes Claros, Brazil

Feed Status: UP
Listen in your browser - HTML5 player(in browser, HTML5)
Click here to listen with your own player(launches your MP3 player)

SBMK Flight Activity (Flightaware)

Listeners: 0 out of 1709 total

Brasilia Center (Sector 15): 127.300
Montes Claros RDO: 131.700

SBMO Tower (Archives)
Maceio, Brazil

Feed Status: UP
Listen in your browser - HTML5 player(in browser, HTML5)
Click here to listen with your own player(launches your MP3 player)

SBMO 050200Z 08003KT 9999 FEW015 24/23 Q1015

SBMO Flight Activity (Flightaware)

Listeners: 1 out of 1709 total


SBMQ Tower/App/Center
Macapa, Brazil

Feed Status: DOWN
Offline since: 2023-02-04 10:14:06 UTC

SBMQ 050200Z 36003KT 9999 FEW015 25/25 Q1015

Amazonico Center: 123.950
Amazonico Center: 128.000
Macapa Approach: 119.000
Macapa Tower: 118.000

SBMT Tower
Sao Paulo, Brazil

Feed Status: DOWN
Offline since: 2022-02-08 12:31:22 UTC

Marte Tower: 133.350

SBNF Tower
Navegantes, Brazil

Feed Status: DOWN
Offline since: 2023-01-05 18:22:23 UTC

SBNF 050200Z 18005KT 9999 SCT030 25/21 Q1011

Navegantes Tower: 118.200

SBPA Gnd/Twr/App/Center (Archives)
Porto Alegre, Brazil

Feed Status: UP
Listen in your browser - HTML5 player(in browser, HTML5)
Click here to listen with your own player(launches your MP3 player)

SBPA 050200Z 20004KT 170V230 9999 FEW031 24/20 Q1011

SBPA Flight Activity (Flightaware)

Listeners: 5 out of 1709 total

BACO (Canoas) Ground: 121.700
BACO (Canoas) Tower: 118.500
BACO (Canoas) Tower (Mil): 122.800
Curitiba Center (Sector 1/South SBPA): 126.750
Curitiba Center (Sector 1/South SBPA): 127.400
Curitiba Center (Sector 2): 123.725
Curitiba Center (Sector 2): 135.900
Curitiba Center (Sector 3/West SBFL): 127.500
Curitiba Center (Sector 3/West SBFL): 126.100
Curitiba Center (Sector 4/South SBFL): 135.850
Curitiba Center (Sector 4/South SBFL): 128.450
Curitiba Center (Sector 5/East SBCT): 124.400
Curitiba Center (Sector 5/East SBCT): 125.400
Curitiba Center (Sector 6/East SBCT Atlantico): 128.400
Curitiba Center (Sector 6/East SBCT Atlantico): 127.050
Curitiba Center (Sector 9/North SBCT): 132.800
Curitiba Center (Sector 9/North SBCT): 126.500
Emergency/Guard: 121.500
Porto Alegre Approach Sector 1: 120.100
Porto Alegre Approach Sector 2: 120.550
Porto Alegre Approach Sector 3: 128.900
Porto Alegre Approach Sector 4: 119.000
Salgado Filho Ground: 121.900
Salgado Filho Tower: 118.100

SBPB Info (Archives)
Parnaiba, Brazil

Feed Status: UP
Listen in your browser - HTML5 player(in browser, HTML5)
Click here to listen with your own player(launches your MP3 player)


SBPB Flight Activity (Flightaware)

Listeners: 0 out of 1709 total

Parnaiba Info: 126.600

SBPL RDO/ACC (Archives)
Petrolina, Brazil

Feed Status: UP
Listen in your browser - HTML5 player(in browser, HTML5)
Click here to listen with your own player(launches your MP3 player)

SBPL 050200Z 17007KT CAVOK 29/16 Q1014

SBPL Flight Activity (Flightaware)

Listeners: 2 out of 1709 total

ACC RE Sector 5: 127.500
ACC RE Sector 5: 128.450
ACC RE Sector 6: 125.400
ACC RE Sector 6: 134.900
Air to Air/UNICOM: 123.450
Emergency/Guard: 121.500
Misc: 123.400
Petrolina RDO: 125.700
Recife FIS: 123.625

SBRF App 129.60 (Archives)
Recife, Brazil

Feed Status: UP
Listen in your browser - HTML5 player(in browser, HTML5)
Click here to listen with your own player(launches your MP3 player)

SBRF 050200Z 14006KT 100V180 9999 BKN016 BKN050 27/24 Q1014

SBRF Flight Activity (Flightaware)

Listeners: 4 out of 1709 total

Recife Approach: 129.600

SBRF Gol Ops (Archives)
Recife, Brazil

Feed Status: UP
Listen in your browser - HTML5 player(in browser, HTML5)
Click here to listen with your own player(launches your MP3 player)

SBRF 050200Z 14006KT 100V180 9999 BKN016 BKN050 27/24 Q1014

SBRF Flight Activity (Flightaware)

Listeners: 0 out of 1709 total

Gol Ops: 131.225

SBRF Ground (Archives)
Recife, Brazil

Feed Status: UP
Listen in your browser - HTML5 player(in browser, HTML5)
Click here to listen with your own player(launches your MP3 player)

SBRF 050200Z 14006KT 100V180 9999 BKN016 BKN050 27/24 Q1014

SBRF Flight Activity (Flightaware)

Listeners: 1 out of 1709 total

Recife Ground: 121.850

SBRF LATAM Ops (Archives)
Recife, Brazil

Feed Status: UP
Listen in your browser - HTML5 player(in browser, HTML5)
Click here to listen with your own player(launches your MP3 player)

SBRF 050200Z 14006KT 100V180 9999 BKN016 BKN050 27/24 Q1014

SBRF Flight Activity (Flightaware)

Listeners: 0 out of 1709 total

LATAM Ops: 130.500

SBRF Recife ACC (Archives)
Recife, Brazil

Feed Status: UP
Listen in your browser - HTML5 player(in browser, HTML5)
Click here to listen with your own player(launches your MP3 player)

SBRF 050200Z 14006KT 100V180 9999 BKN016 BKN050 27/24 Q1014

SBRF Flight Activity (Flightaware)

Listeners: 1 out of 1709 total

Recife Center: 128.700
Recife Center: 133.650
Recife Center: 134.800

SBRF Tower (Archives)
Recife, Brazil

Feed Status: UP
Listen in your browser - HTML5 player(in browser, HTML5)
Click here to listen with your own player(launches your MP3 player)

SBRF 050200Z 14006KT 100V180 9999 BKN016 BKN050 27/24 Q1014

SBRF Flight Activity (Flightaware)

Listeners: 6 out of 1709 total

Recife Tower: 125.250
Recife Tower: 118.350
Recife Tower: 118.900

SBRP Tower/Center
Ribeirao Preto, Brazil

Feed Status: DOWN
Offline since: 2022-12-17 08:52:39 UTC

SBRP 050200Z 28005KT 230V310 9999 FEW040 25/21 Q1016

Leite Lopes Tower: 118.000
Pirassununga Center (North): 119.550

SBSG Tower (Archives)
Sao Goncalo do Amarante, Brazil

Feed Status: UP
Listen in your browser - HTML5 player(in browser, HTML5)
Click here to listen with your own player(launches your MP3 player)

SBSG 050200Z 19003KT 9999 FEW020 25/23 Q1014

SBSG Flight Activity (Flightaware)

Listeners: 0 out of 1709 total


SBSN Twr/App/ACC
Santarem, Brazil

Feed Status: DOWN
Offline since: 2022-11-03 00:03:23 UTC

SBSN 050200Z 08009KT 9999 FEW016 SCT100 26/24 Q1015 RETS

Brasilia Center/ACC: 123.650
Brasilia Center/ACC: 125.050
Santarem Approach: 119.300
Santarem Tower: 118.100

SBSR AFIS/App/Center (Archives)
Sao Jose do Rio Preto, Brazil

Feed Status: UP
Listen in your browser - HTML5 player(in browser, HTML5)
Click here to listen with your own player(launches your MP3 player)

SBSR 050100Z 00000KT 9999 -RA SCT040 BKN070 22/21 Q1017

SBSR Flight Activity (Flightaware)

Listeners: 3 out of 1709 total

Academia Approach (North Sector): 119.750
Academia Approach (North Sector): 120.400
Brasilia Center: 135.150
Rio Preto Radio AFIS: 130.850

SBTE Twr/App (Archives)
Teresina, Brazil

Feed Status: UP
Listen in your browser - HTML5 player(in browser, HTML5)
Click here to listen with your own player(launches your MP3 player)

SBTE 050100Z 00000KT CAVOK 28/24 Q1012

SBTE Flight Activity (Flightaware)

Listeners: 2 out of 1709 total

Teresina Approach: 119.600
Teresina Tower: 118.800

SBRE Recife ACC
Paulo Afonso, Brazil

Feed Status: DOWN
Offline since: 2023-02-05 00:00:06 UTC

Recife Center (ACC): 125.400
Recife Center (ACC): 125.450
Recife Center (ACC): 126.850
Recife Center (ACC): 133.650
Recife Center (ACC): 134.500
Recife Center (ACC): 134.900

SBUF AFIS/Center
Paulo Afonso, Brazil

Feed Status: DOWN
Offline since: 2023-02-05 00:00:06 UTC


Paulo Afonso Radio: 125.850
Recife Center: 133.650
Recife Center: 134.500
Recife Center: 125.450

SBQV AFIS (Archives)
Vitoria da Conquista, Brazil

Feed Status: UP
Listen in your browser - HTML5 player(in browser, HTML5)
Click here to listen with your own player(launches your MP3 player)

SBQV Flight Activity (Flightaware)

Listeners: 0 out of 1709 total

Conquista AFIS: 130.850
Despacho Azul: 131.875
Despacho Passaredo: 132.000

SCEL Gnd/Twr/Radar (Archives)
Santiago, Chile

Feed Status: UP
Listen in your browser - HTML5 player(in browser, HTML5)
Click here to listen with your own player(launches your MP3 player)

SCEL 050200Z 16012KT CAVOK 21/13 Q1013 NOSIG

SCEL Flight Activity (Flightaware)

Listeners: 9 out of 1709 total

Santiago Authorizations: 121.700
Santiago Control (Lat 3323S North): 128.100
Santiago Control (Lat 3323S South): 126.300
Santiago Ground (Primary): 122.200
Santiago Ground (Secondary): 122.500
Santiago Radar: 125.400
Santiago Radar: 135.400
Santiago Radar (Arrival, Primary): 129.700
Santiago Radar (Arrival, Secondary): 119.700
Santiago Radar (Arrival, Secondary): 123.800
Santiago Radar (Departure, Primary): 121.100
Santiago Radar (Departure, Secondary): 123.800
Santiago Radar (Information, Primary): 122.400
Santiago Radar (Information, Secondary): 120.800
Santiago Radar (Information, Secondary): 123.800
Santiago Tower (Primary): 118.100
Santiago Tower (Secondary): 118.350
SCTB Tobalaba Tower: 118.700

SEGU App/Dep/Info
Guayaquil, Ecuador

Feed Status: DOWN
Offline since: 2023-01-20 23:44:22 UTC

SEGU 050200Z 30004KT 9999 SCT026 SCT100 27/22 Q1011 NOSIG RMK A2987

Guayaquil Approach: 120.700
Guayaquil Approach (Secondary): 119.300
Guayaquil Info: 126.900

SEGU Gnd/Twr
Guayaquil, Ecuador

Feed Status: DOWN
Offline since: 2023-01-20 23:44:22 UTC

SEGU 050200Z 30004KT 9999 SCT026 SCT100 27/22 Q1011 NOSIG RMK A2987

Guayaquil Ground: 121.900
Guayaquil Ground (Secondary): 121.700
Guayaquil Tower: 118.300
Guayaquil Tower (Secondary): 118.900

SEGU Gnd/Twr/App
Guayaquil, Ecuador

Feed Status: DOWN
Offline since: 2023-01-20 23:44:22 UTC

SEGU 050200Z 30004KT 9999 SCT026 SCT100 27/22 Q1011 NOSIG RMK A2987

Guayaquil Approach: 120.700
Guayaquil Ground: 121.900
Guayaquil Tower: 118.300

SEGU Guayaquil Center
Guayaquil, Ecuador

Feed Status: DOWN
Offline since: 2023-01-20 23:44:22 UTC

SEGU 050200Z 30004KT 9999 SCT026 SCT100 27/22 Q1011 NOSIG RMK A2987

Guayaquil Center: 127.950
Guayaquil Center: 128.300
Guayaquil Center (Secondary): 128.000
Guayaquil Center (Secondary): 123.900

SKBO Del/Gnd/Twr/App
Bogota, Colombia

Feed Status: DOWN
Offline since: 2020-09-01 16:38:05 UTC

SKBO 050200Z 21003KT 9999 FEW015 14/09 Q1028 NOSIG RMK A3038

Bogota Approach: 119.500
Bogota Clearance Delivery: 121.600
Bogota Departure (North): 121.300
Bogota Departure (South): 119.650
Bogota Ground (North): 121.800
Bogota Ground (South): 122.750
Bogota Information: 126.900
Bogota Tower (North): 118.100
Bogota Tower (South): 118.250
Guaymaral Ground: 121.700
Guaymaral Tower: 118.800

SNRZ Area (Archives)
Oliveira, Brazil

Feed Status: UP
Listen in your browser - HTML5 player(in browser, HTML5)
Click here to listen with your own player(launches your MP3 player)

SNRZ Flight Activity (Flightaware)

Listeners: 0 out of 1709 total

Azul: 130.900
Brasilia ACC-BS (Air Control Center): 133.450
Brasilia ACC-BS (Air Control Center): 135.550
Brasilia ACC-BS (Air Control Center): 126.150
Brasilia ACC-BS (Air Control Center): 126.800
Brasilia ACC-BS (Air Control Center): 125.050
Brasilia ACC-BS (Air Control Center): 126.500
Brasilia ACC-BS (Air Control Center): 122.650
Brasilia ACC-BS (Air Control Center): 126.550
Brasilia ACC-BS (Air Control Center): 123.350
Brasilia ACC-BS (Air Control Center): 124.750
Brasilia ACC-BS (Air Control Center): 134.750
Brasilia ACC-BS (Air Control Center): 133.600
Brasilia ACC-BS (Air Control Center): 124.800
Brasilia ACC-BS (Air Control Center): 124.250
Brasilia ACC-BS (Air Control Center): 127.300
Brasilia ACC-BS (Air Control Center): 127.000
Brasilia ACC-BS (Air Control Center): 124.250
Brasilia ACC-BS (Air Control Center): 127.300
Brasilia ACC-BS (Air Control Center): 127.000
Brasilia ACC-BS (Air Control Center): 133.450
Brasilia ACC-BS (Air Control Center): 135.550
Brasilia ACC-BS (Air Control Center): 126.150
Brasilia ACC-BS (Air Control Center): 126.800
Brasilia ACC-BS (Air Control Center): 125.050
Brasilia ACC-BS (Air Control Center): 126.500
Brasilia ACC-BS (Air Control Center): 122.650
Brasilia ACC-BS (Air Control Center): 126.550
Brasilia ACC-BS (Air Control Center): 123.350
Brasilia ACC-BS (Air Control Center): 124.750
Brasilia ACC-BS (Air Control Center): 134.750
Brasilia ACC-BS (Air Control Center): 133.600
Brasilia ACC-BS (Air Control Center): 124.800
Curitiba ACC-CW: 126.500
Curitiba ACC-CW: 134.750
Curitiba ACC-CW: 124.000
Curitiba ACC-CW: 125.350
Emergency: 121.500
Emergency: 121.500
GOL Coordination: 131.225
TAM Coordination: 130.500
TAM Maintenance: 130.600
Trip Coordination: 131.375

SPJC Approach (Archives)
Lima, Peru

Feed Status: UP
Listen in your browser - HTML5 player(in browser, HTML5)
Click here to listen with your own player(launches your MP3 player)

SPJC 050200Z 18007KT CAVOK 24/20 Q1012 NOSIG RMK PP000

SPJC Flight Activity (Flightaware)

Listeners: 0 out of 1709 total

Lima Approach: 119.700

SPJC Ground (Archives)
Lima, Peru

Feed Status: UP
Listen in your browser - HTML5 player(in browser, HTML5)
Click here to listen with your own player(launches your MP3 player)

SPJC 050200Z 18007KT CAVOK 24/20 Q1012 NOSIG RMK PP000

SPJC Flight Activity (Flightaware)

Listeners: 0 out of 1709 total

Lima Ground: 121.900

SPJC Tower (Archives)
Lima, Peru

Feed Status: UP
Listen in your browser - HTML5 player(in browser, HTML5)
Click here to listen with your own player(launches your MP3 player)

SPJC 050200Z 18007KT CAVOK 24/20 Q1012 NOSIG RMK PP000

SPJC Flight Activity (Flightaware)

Listeners: 7 out of 1709 total

Lima Tower: 118.100

SPQU Radar (Archives)
Arequipa, Peru

Feed Status: UP
Listen in your browser - HTML5 player(in browser, HTML5)
Click here to listen with your own player(launches your MP3 player)

SPQU 050200Z 18003KT 9999 SCT003 BKN030 12/12 Q1027 NOSIG RMK PP000

SPQU Flight Activity (Flightaware)

Listeners: 0 out of 1709 total

Radar Sur-dos: 128.800

SPST Tower
Tarapoto, Peru

Feed Status: DOWN
Offline since: 2023-02-05 02:16:22 UTC

SPST 050200Z 00000KT 9999 FEW030 25/21 Q1012 RMK PP000

Tarapoto Tower: 118.400

SSBL Air to Air
Blumenau, Brazil

Feed Status: DOWN
Offline since: 2023-01-09 15:50:40 UTC

Air to Air: 123.450

SUAA Tower (Archives)
Montevideo, Uruguay

Feed Status: UP
Listen in your browser - HTML5 player(in browser, HTML5)
Click here to listen with your own player(launches your MP3 player)


SUAA Flight Activity (Flightaware)

Listeners: 0 out of 1709 total

Adami Tower: 118.400
Adami Tower (backup): 122.100
Emergency/Guard: 121.500

SUCM AFIS/SUCA/SADF Twr (Archives)
Carmelo, Uruguay

Feed Status: UP
Listen in your browser - HTML5 player(in browser, HTML5)
Click here to listen with your own player(launches your MP3 player)


SUCM Flight Activity (Flightaware)

Listeners: 0 out of 1709 total

Carmelo AFIS: 118.300
Carmelo AFIS (backup): 122.100
Colonia Tower (SUCA): 120.800
San Fernando Tower (SADF): 120.700

SUDU Twr/App/FIR
Durazno, Uruguay

Feed Status: DOWN
Offline since: 2023-02-04 20:48:23 UTC


Durazno Twr/App: 120.400
Durazno Twr/App: 126.200
Montevideo Control - Centro (Central): 126.300

SUGA Twr/Info (Archives)
Pando, Uruguay

Feed Status: UP
Listen in your browser - HTML5 player(in browser, HTML5)
Click here to listen with your own player(launches your MP3 player)

SUGA Flight Activity (Flightaware)

Listeners: 0 out of 1709 total

SUGA Info: 126.200
SUGA Tower: 118.500

SULS Tower (Archives)
Punta del Este, Uruguay

Feed Status: UP
Listen in your browser - HTML5 player(in browser, HTML5)
Click here to listen with your own player(launches your MP3 player)

SULS 050200Z 17015KT 9999 BKN020 22/18 Q1013

SULS Flight Activity (Flightaware)

Listeners: 1 out of 1709 total

Air to Air: 123.450
SULS A/G: 122.100
SULS Tower: 118.300

SUMO Tower (Archives)
Melo, Uruguay

Feed Status: UP
Listen in your browser - HTML5 player(in browser, HTML5)
Click here to listen with your own player(launches your MP3 player)


SUMO Flight Activity (Flightaware)

Listeners: 1 out of 1709 total

Melo Ramp: 122.100
Melo Tower: 118.600

Montevideo Control (Antena Este) (Archives)
Montevideo, Uruguay

Feed Status: UP
Listen in your browser - HTML5 player(in browser, HTML5)
Click here to listen with your own player(launches your MP3 player)

SUMU 050100Z 17013KT 9999 SCT023 21/17 Q1014 TEMPO SH

SUMU Flight Activity (Flightaware)

Listeners: 1 out of 1709 total

Montevideo Control: 128.500
Montevideo Control: 126.300

SUMU App/Dep (Archives)
Montevideo, Uruguay

Feed Status: UP
Listen in your browser - HTML5 player(in browser, HTML5)
Click here to listen with your own player(launches your MP3 player)

SUMU 050100Z 17013KT 9999 SCT023 21/17 Q1014 TEMPO SH

SUMU Flight Activity (Flightaware)

Listeners: 0 out of 1709 total

SUMU Approach: 119.200
SUMU Approach: 120.200
SUMU Control: 128.500

SUMU Twr/App (Archives)
Montevideo, Uruguay

Feed Status: UP
Listen in your browser - HTML5 player(in browser, HTML5)
Click here to listen with your own player(launches your MP3 player)

SUMU 050100Z 17013KT 9999 SCT023 21/17 Q1014 TEMPO SH

SUMU Flight Activity (Flightaware)

Listeners: 0 out of 1709 total

SUMU Approach: 119.200
SUMU Tower: 118.100

SUMU Twr/Info (Archives)
Montevideo, Uruguay

Feed Status: UP
Listen in your browser - HTML5 player(in browser, HTML5)
Click here to listen with your own player(launches your MP3 player)

SUMU 050100Z 17013KT 9999 SCT023 21/17 Q1014 TEMPO SH

SUMU Flight Activity (Flightaware)

Listeners: 0 out of 1709 total

SUMU Info: 121.800
SUMU Tower: 118.100

SUPE CTAF (Archives)
Punta del Este, Uruguay

Feed Status: UP
Listen in your browser - HTML5 player(in browser, HTML5)
Click here to listen with your own player(launches your MP3 player)

SULS 050200Z 17015KT 9999 BKN020 22/18 Q1013

SULS Flight Activity (Flightaware)

Listeners: 0 out of 1709 total

SUPE CTAF: 118.700

SUPU AFIS (Archives)
Paysandu, Uruguay

Feed Status: UP
Listen in your browser - HTML5 player(in browser, HTML5)
Click here to listen with your own player(launches your MP3 player)


SUPU Flight Activity (Flightaware)

Listeners: 1 out of 1709 total

Paysandu AFIS: 118.200
Paysandu AFIS: 118.700

SURV Tower/Ramp
Rivera, Uruguay

Feed Status: DOWN
Offline since: 2023-02-04 23:05:06 UTC


Rivera Flying Club Ops: 118.100
Rivera Ramp/Tower: 118.000
Rivera Ramp/Tower: 122.100

SUSO Tower/Ramp (Archives)
Salto, Uruguay

Feed Status: UP
Listen in your browser - HTML5 player(in browser, HTML5)
Click here to listen with your own player(launches your MP3 player)


SUSO Flight Activity (Flightaware)

Listeners: 0 out of 1709 total


SVPR Twr/App/FIR (Archives)
Ciudad Guayana, Venezuela

Feed Status: UP
Listen in your browser - HTML5 player(in browser, HTML5)
Click here to listen with your own player(launches your MP3 player)

SVPR Flight Activity (Flightaware)

Listeners: 1 out of 1709 total

Emergency/Guard: 121.500
FIR 6: 126.000
Guayana Approach (Primary): 119.500
Guayana Approach (Secondary): 120.300
Guayana Tower (Primary): 118.000
Guayana Tower (Secondary): 123.500
SMC: 121.900

TBPB Gnd/Twr/Radar/Center (Archives)
Bridgetown, Barbados

Feed Status: UP
Listen in your browser - HTML5 player(in browser, HTML5)
Click here to listen with your own player(launches your MP3 player)

TBPB 050200Z 09015KT 9999 SCT018 26/21 Q1019 NOSIG

TBPB Flight Activity (Flightaware)

Listeners: 0 out of 1709 total

Adams Approach/Departure: 129.350
Adams Approach/Departure: 128.850
Adams Ground: 121.900
Adams Tower: 118.700
Piarco Center: 123.700

TNCA Twr/App/Apron (Archives)
Oranjestad, Aruba

Feed Status: UP
Listen in your browser - HTML5 player(in browser, HTML5)
Click here to listen with your own player(launches your MP3 player)

TNCA 050100Z 09017KT 9999 FEW018 26/23 Q1016 NOSIG

TNCA Flight Activity (Flightaware)

Listeners: 0 out of 1709 total

Beatrix Ground (Apron): 121.600
Beatrix Tower: 118.000
Beatrix Twr/App: 120.900
Emergency/Guard: 121.500
Search/Rescue: 123.100

TNCB ATIS (Archives)
Kralendijk, Bonaire

Feed Status: UP
Listen in your browser - HTML5 player(in browser, HTML5)
Click here to listen with your own player(launches your MP3 player)

TNCB 050055Z 08011KT 050V110 CAVOK 26/23 Q1016

TNCB Flight Activity (Flightaware)

Listeners: 0 out of 1709 total

Bonaire ATIS: 132.300

TNCB Tower (Archives)
Kralendijk, Bonaire

Feed Status: UP
Listen in your browser - HTML5 player(in browser, HTML5)
Click here to listen with your own player(launches your MP3 player)

TNCB 050055Z 08011KT 050V110 CAVOK 26/23 Q1016

TNCB Flight Activity (Flightaware)

Listeners: 0 out of 1709 total

Bonaire Tower: 118.700

TNCC ATIS (Archives)
Willemstad, Curacao

Feed Status: UP
Listen in your browser - HTML5 player(in browser, HTML5)
Click here to listen with your own player(launches your MP3 player)

TNCC 050100Z 10011KT 9999 FEW018 26/22 Q1017 NOSIG

TNCC Flight Activity (Flightaware)

Listeners: 0 out of 1709 total

Hato ATIS: 132.600

TNCC Control (Archives)
Willemstad, Curacao

Feed Status: UP
Listen in your browser - HTML5 player(in browser, HTML5)
Click here to listen with your own player(launches your MP3 player)

TNCC 050100Z 10011KT 9999 FEW018 26/22 Q1017 NOSIG

TNCC Flight Activity (Flightaware)

Listeners: 0 out of 1709 total

Curacao Control: 124.100
Curacao Control: 127.100

TNCC Radar (Archives)
Willemstad, Curacao

Feed Status: UP
Listen in your browser - HTML5 player(in browser, HTML5)
Click here to listen with your own player(launches your MP3 player)

TNCC 050100Z 10011KT 9999 FEW018 26/22 Q1017 NOSIG

TNCC Flight Activity (Flightaware)

Listeners: 0 out of 1709 total

Hato Radar (1700-2300Z): 119.800

TNCC Tower (Archives)
Willemstad, Curacao

Feed Status: UP
Listen in your browser - HTML5 player(in browser, HTML5)
Click here to listen with your own player(launches your MP3 player)

TNCC 050100Z 10011KT 9999 FEW018 26/22 Q1017 NOSIG

TNCC Flight Activity (Flightaware)

Listeners: 0 out of 1709 total

Hato Tower: 118.300

TNCC Twr/Radar/Control (Archives)
Willemstad, Curacao

Feed Status: UP
Listen in your browser - HTML5 player(in browser, HTML5)
Click here to listen with your own player(launches your MP3 player)

TNCC 050100Z 10011KT 9999 FEW018 26/22 Q1017 NOSIG

TNCC Flight Activity (Flightaware)

Listeners: 0 out of 1709 total

Curacao Control: 127.100
Hato Radar: 119.600
Hato Tower: 118.300

TNCE Info (Archives)
Oranjestad, Sint Eustatius

Feed Status: UP
Listen in your browser - HTML5 player(in browser, HTML5)
Click here to listen with your own player(launches your MP3 player)

TNCE 050055Z AUTO 06016KT //// // ///////// 25/21 Q1021 RE//

TNCE Flight Activity (Flightaware)

Listeners: 0 out of 1709 total

Statia Info: 118.100

TNCM App/Dep (Archives)
Philipsburg, Saint Martin

Feed Status: UP
Listen in your browser - HTML5 player(in browser, HTML5)
Click here to listen with your own player(launches your MP3 player)

TNCM 050200Z 06008KT 030V110 9999 FEW018 26/21 Q1023

TNCM Flight Activity (Flightaware)

Listeners: 0 out of 1709 total

Juliana Approach (only when busy): 128.950

TNCM Clearance Delivery (Archives)
Philipsburg, Saint Martin

Feed Status: UP
Listen in your browser - HTML5 player(in browser, HTML5)
Click here to listen with your own player(launches your MP3 player)

TNCM 050200Z 06008KT 030V110 9999 FEW018 26/21 Q1023

TNCM Flight Activity (Flightaware)

Listeners: 0 out of 1709 total

Juliana Clearance Delivery: 121.650

TNCM Tower (Archives)
Philipsburg, Saint Martin

Feed Status: UP
Listen in your browser - HTML5 player(in browser, HTML5)
Click here to listen with your own player(launches your MP3 player)

TNCM 050200Z 06008KT 030V110 9999 FEW018 26/21 Q1023

TNCM Flight Activity (Flightaware)

Listeners: 3 out of 1709 total

Juliana Tower (TNCM): 118.700

TNCS Info
Hell's Gate, Saba

Feed Status: DOWN
Offline since: 2023-02-05 02:15:05 UTC

Saba Tower: 118.250

TQPF Tower (Archives)
The Valley, Anguilla

Feed Status: UP
Listen in your browser - HTML5 player(in browser, HTML5)
Click here to listen with your own player(launches your MP3 player)

TNCM 050200Z 06008KT 030V110 9999 FEW018 26/21 Q1023

TNCM Flight Activity (Flightaware)

Listeners: 0 out of 1709 total

Anguilla Tower: 118.500

TTCP Gnd/Twr/App (Archives)
Scarborough, Trinidad and Tobago

Feed Status: UP
Listen in your browser - HTML5 player(in browser, HTML5)
Click here to listen with your own player(launches your MP3 player)

TTCP 050100Z 07008KT 9999 FEW017 25/22 Q1017 NOSIG

TTCP Flight Activity (Flightaware)

Listeners: 0 out of 1709 total

Piarco Approach: 119.000
Robinson Ground: 121.700
Robinson Tower: 118.400

TTPP Apron/Gnd/Twr (Archives)
Port of Spain, Trinidad and Tobago

Feed Status: UP
Listen in your browser - HTML5 player(in browser, HTML5)
Click here to listen with your own player(launches your MP3 player)

TTPP 050100Z 09009KT 9999 FEW016 26/21 Q1017 NOSIG

TTPP Flight Activity (Flightaware)

Listeners: 2 out of 1709 total

Piarco Apron: 121.750
Piarco Ground: 121.900
Piarco Tower: 118.100

TTPP Piarco App/Center (Archives)
Port of Spain, Trinidad and Tobago

Feed Status: UP
Listen in your browser - HTML5 player(in browser, HTML5)
Click here to listen with your own player(launches your MP3 player)

TTPP 050100Z 09009KT 9999 FEW016 26/21 Q1017 NOSIG

TTPP Flight Activity (Flightaware)

Listeners: 1 out of 1720 total

Piarco Approach: 119.550
Piarco Approach: 119.000
Piarco Approach (backup): 124.000
Piarco Center: 123.700
Piarco Center (Oceanic): 126.500
Piarco Center (South Sector): 125.400
Piarco Center Oceanic (Backup): 133.100

TXKF ATIS (Archives)
Hamilton, Bermuda

Feed Status: UP
Listen in your browser - HTML5 player(in browser, HTML5)
Click here to listen with your own player(launches your MP3 player)

TXKF 050155Z 02009KT 350V050 9999 SCT036 BKN053 12/06 Q1033

TXKF Flight Activity (Flightaware)

Listeners: 0 out of 1720 total

Bermuda ATIS: 119.600

TXKF Del/Gnd (Archives)
Hamilton, Bermuda

Feed Status: UP
Listen in your browser - HTML5 player(in browser, HTML5)
Click here to listen with your own player(launches your MP3 player)

TXKF 050155Z 02009KT 350V050 9999 SCT036 BKN053 12/06 Q1033

TXKF Flight Activity (Flightaware)

Listeners: 0 out of 1720 total

Bermuda Ground/Clearance: 124.500

TXKF Del/Gnd/Twr/CTAF (Archives)
Hamilton, Bermuda

Feed Status: UP
Listen in your browser - HTML5 player(in browser, HTML5)
Click here to listen with your own player(launches your MP3 player)

TXKF 050155Z 02009KT 350V050 9999 SCT036 BKN053 12/06 Q1033

TXKF Flight Activity (Flightaware)

Listeners: 0 out of 1720 total

Bermuda CTAF: 122.800
Bermuda Ground/Clearance: 124.500
Bermuda Tower: 118.100

TXKF Tower (Archives)
Hamilton, Bermuda

Feed Status: UP
Listen in your browser - HTML5 player(in browser, HTML5)
Click here to listen with your own player(launches your MP3 player)

TXKF 050155Z 02009KT 350V050 9999 SCT036 BKN053 12/06 Q1033

TXKF Flight Activity (Flightaware)

Listeners: 0 out of 1720 total

Bermuda Tower: 118.100

ZNY Sector 81 (Bermuda)/App (Archives)
Hamilton, Bermuda

Feed Status: UP
Listen in your browser - HTML5 player(in browser, HTML5)
Click here to listen with your own player(launches your MP3 player)

TXKF 050155Z 02009KT 350V050 9999 SCT036 BKN053 12/06 Q1033

TXKF Flight Activity (Flightaware)

Listeners: 0 out of 1720 total

New York Approach: 119.100
New York Center (BDA81 Bermuda Sector): 128.500

UHHH Gnd/Twr/App/Radar (Archives)
Khabarovsk, Russia

Feed Status: UP
Listen in your browser - HTML5 player(in browser, HTML5)
Click here to listen with your own player(launches your MP3 player)

UHHH 050130Z 22004MPS 8000 NSC M15/M18 Q1015 R88/090060 NOSIG RMK QFE755/1007

UHHH Flight Activity (Flightaware)

Listeners: 0 out of 1720 total

Khabarovsk Approach: 125.200
Khabarovsk Ground: 121.800
Khabarovsk Radar: 120.300
Khabarovsk Tower: 119.300

UNNT Gnd/Twr/App/Radar/Misc (Archives)
Novosibirsk, Russia

Feed Status: UP
Listen in your browser - HTML5 player(in browser, HTML5)
Click here to listen with your own player(launches your MP3 player)

UNNT 050130Z 29002MPS 6000 BKN004 M22/M25 Q1028 R25/820250 R34/////// NOSIG RMK QFE761/1015

UNNT Flight Activity (Flightaware)

Listeners: 2 out of 1720 total

ACC_Novosibirsk-Control [5th military channel]: 128.500
ACC_Novosibirsk-Control [Southeast]: 126.100
ACC_Novosibirsk-Control [West]: 127.000
GPA_Kristallik [Severniy airfield]: 123.425
GPA_Sernisiy [Chkalovskiy airfield]: 124.750
GPA_Tomsk Information 1: 134.500
MIL_3 [3rd military channel]: 130.750
MIL_Larek [Shilovo facility]: 123.750
MIL_Maneken [Chkalovskiy airfield]: 123.550
MIL_Novosibirsk-1 [1st military channel]: 124.000
MIL_Noyabr' 31: 124.900
MIL_Trimaran: 124.500
SP_Air-to-Air: 123.450
SP_Air-to-Air 2: 123.400
SP_Common backup frequency: 129.000
SP_Emergency: 121.500
SP_Emergency 2: 123.100
SP_Flyoff: 124.375
SURF_Boarding: 163.425
SURF_Duty chart: 163.800
SURF_O&D Service: 163.325
SURF_Search & Rescue: 164.000
SURF_Security: 163.750
SURF_Tower surf: 163.650
SURF_Vehicles: 163.850
UNNT_Backup frequency: 127.100
UNNT_Novosibirsk-Approach: 127.500
UNNT_Novosibirsk-Ground: 121.700
UNNT_Novosibirsk-Radar: 122.000
UNNT_Novosibirsk-Tower: 118.500
UNNT_Novosibirsk-Transit: 131.600
UNNT_S7 FOCC: 131.925

UNOO Gnd/Tower/App (Archives)
Omsk, Russia

Feed Status: UP
Listen in your browser - HTML5 player(in browser, HTML5)
Click here to listen with your own player(launches your MP3 player)

UNOO 050130Z 07001MPS 4100 -SN BR FU BKN004 M14/M16 Q1028 R25/490345 NOSIG RMK QBB120 OBST OBSC QFE763

UNOO Flight Activity (Flightaware)

Listeners: 0 out of 1720 total

Aerodrom Kalachevo: 123.300
Aerodrom Marianovka: 123.000
Emergency/Guard: 121.500
Novosibirsk Control (Sector 7): 132.500
Novosibirsk Control (Sector 8): 132.900
Omsk Approach (FL060-FL265): 131.200
Omsk Apron: 118.800
Omsk Start/Radar: 119.000
Omsk Taxiing: 121.700
Omsk Transit: 131.700
UNOS/OMSK-Severny: 124.000

UNTT Gnd/Info/Radar/Control (Archives)
Tomsk, Russia

Feed Status: UP
Listen in your browser - HTML5 player(in browser, HTML5)
Click here to listen with your own player(launches your MP3 player)

UNTT Flight Activity (Flightaware)

Listeners: 1 out of 1720 total

Common Backup Frequency: 129.000
Emergency/Guard: 121.500
Kemerovo Approach: 125.500
Novosibirsk Control (Sector 3): 129.300
Novosibirsk Control (Sector 5): 132.300
Novosibirsk Control (Sector 9): 134.400
Tomsk Ground: 118.800
Tomsk Information (Sector 3): 129.800
Tomsk Tower: 127.300
Tomsk Transit: 131.875
Troynik (Golovino): 122.400

URSS Gnd/Twr/App (Archives)
Sochi, Russia

Feed Status: UP
Listen in your browser - HTML5 player(in browser, HTML5)
Click here to listen with your own player(launches your MP3 player)

URSS 050130Z 07004MPS 330V090 9999 OVC080 04/M01 Q1012 R06/010070 R02/010070 NOSIG RMK R02/04005MPS QFE758

URSS Flight Activity (Flightaware)

Listeners: 2 out of 1720 total

Sochi Approach: 118.300
Sochi Approach: 119.700
Sochi District (Small Aircraft): 118.500
Sochi Start: 121.200
Sochi Taxi: 119.000
Sochi Tower: 124.600

USDD Gnd/Twr/App/Control (Archives)
Salekhard, Russia

Feed Status: UP
Listen in your browser - HTML5 player(in browser, HTML5)
Click here to listen with your own player(launches your MP3 player)


USDD Flight Activity (Flightaware)

Listeners: 0 out of 1720 total

Salekhard Control: 132.300
Salekhard Ground: 118.800
Salekhard Info: 125.200
Salekhard Krug: 120.800
Salekhard Tower: 118.600
Salekhard Transit: 131.700

USTR Gnd/Twr/App (Archives)
Tyumen, Russia

Feed Status: UP
Listen in your browser - HTML5 player(in browser, HTML5)
Click here to listen with your own player(launches your MP3 player)

USTR 050130Z 21002MPS CAVOK M17/M19 Q1027 R21/090065 R12/090065 NOSIG

USTR Flight Activity (Flightaware)

Listeners: 0 out of 1720 total

Tyumen Approach: 126.100
Tyumen Control: 132.600
Tyumen Control: 133.600
Tyumen Info (Regional): 133.400
Tyumen Start: 118.200
Tyumen Transit: 131.800

UUEE Twr/App/Radar (Archives)
Moscow, Russia

Feed Status: UP
Listen in your browser - HTML5 player(in browser, HTML5)
Click here to listen with your own player(launches your MP3 player)

UUEE 050130Z 01003MPS 9999 -SN BKN019 M03/M06 Q1023 R06C/590240 TEMPO 0700 +SHSN BKN003 BKN011CB

UUEE Flight Activity (Flightaware)

Listeners: 3 out of 1720 total

Sheremetyevo Radar (low altitude): 119.300
Sheremetyevo Radar/Arrival: 122.700
Sheremetyevo Radar/Departure: 126.600
Sheremetyevo Tower: 131.500

VHHH App/Dep/Dir/Zone (Archives)
Hong Kong, Hong Kong

Feed Status: UP
Listen in your browser - HTML5 player(in browser, HTML5)
Click here to listen with your own player(launches your MP3 player)

VHHH 050130Z 10010KT 9999 FEW016 SCT026 19/14 Q1017 NOSIG

VHHH Flight Activity (Flightaware)

Listeners: 5 out of 1720 total

Emergency/Guard: 121.500
Hong Kong Approach: 119.100
Hong Kong Approach: 119.350
Hong Kong Departure: 123.800
Hong Kong Departure: 122.000
Hong Kong Departure: 124.050
Hong Kong Director: 119.500
Hong Kong Director: 119.350
Hong Kong Zone: 120.600

VTBS Approach (East) (Archives)
Bangkok, Thailand

Feed Status: UP
Listen in your browser - HTML5 player(in browser, HTML5)
Click here to listen with your own player(launches your MP3 player)

VTBS 050130Z VRB03KT 8000 FEW020 28/23 Q1011 NOSIG

VTBS Flight Activity (Flightaware)

Listeners: 1 out of 1720 total

Bangkok Approach (East): 122.350

VTBS Approach 119.1 (Archives)
Bangkok, Thailand

Feed Status: UP
Listen in your browser - HTML5 player(in browser, HTML5)
Click here to listen with your own player(launches your MP3 player)

VTBS 050130Z VRB03KT 8000 FEW020 28/23 Q1011 NOSIG

VTBS Flight Activity (Flightaware)

Listeners: 1 out of 1720 total

Bangkok Approach: 119.100

VTBS Approach 119.4 (Archives)
Bangkok, Thailand

Feed Status: UP
Listen in your browser - HTML5 player(in browser, HTML5)
Click here to listen with your own player(launches your MP3 player)

VTBS 050130Z VRB03KT 8000 FEW020 28/23 Q1011 NOSIG

VTBS Flight Activity (Flightaware)

Listeners: 1 out of 1720 total

Bangkok Approach: 119.400

VTBS Approach 120.3 (Archives)
Bangkok, Thailand

Feed Status: UP
Listen in your browser - HTML5 player(in browser, HTML5)
Click here to listen with your own player(launches your MP3 player)

VTBS 050130Z VRB03KT 8000 FEW020 28/23 Q1011 NOSIG

VTBS Flight Activity (Flightaware)

Listeners: 1 out of 1720 total

Bangkok Approach: 120.300

VTBS Approach/Arrival (Archives)
Bangkok, Thailand

Feed Status: UP
Listen in your browser - HTML5 player(in browser, HTML5)
Click here to listen with your own player(launches your MP3 player)

VTBS 050130Z VRB03KT 8000 FEW020 28/23 Q1011 NOSIG

VTBS Flight Activity (Flightaware)

Listeners: 1 out of 1720 total

Bangkok Approach: 124.350
Bangkok Approach: 125.200
Bangkok Approach: 126.300
Bangkok Approach (North): 128.950
Bangkok Arrival (VTBD): 133.000

VTBS Arrival 121.1 (Archives)
Bangkok, Thailand

Feed Status: UP
Listen in your browser - HTML5 player(in browser, HTML5)
Click here to listen with your own player(launches your MP3 player)

VTBS 050130Z VRB03KT 8000 FEW020 28/23 Q1011 NOSIG

VTBS Flight Activity (Flightaware)

Listeners: 1 out of 1720 total

Bangkok Arrival: 121.100

VTBS ATIS (Archives)
Bangkok, Thailand

Feed Status: UP
Listen in your browser - HTML5 player(in browser, HTML5)
Click here to listen with your own player(launches your MP3 player)

VTBS 050130Z VRB03KT 8000 FEW020 28/23 Q1011 NOSIG

VTBS Flight Activity (Flightaware)

Listeners: 1 out of 1720 total

Bangkok D-ATIS: 127.650

VTBS Departure (Archives)
Bangkok, Thailand

Feed Status: UP
Listen in your browser - HTML5 player(in browser, HTML5)
Click here to listen with your own player(launches your MP3 player)

VTBS 050130Z VRB03KT 8000 FEW020 28/23 Q1011 NOSIG

VTBS Flight Activity (Flightaware)

Listeners: 1 out of 1720 total

Bangkok Departure: 119.250

VTBS Ground (All) (Archives)
Bangkok, Thailand

Feed Status: UP
Listen in your browser - HTML5 player(in browser, HTML5)
Click here to listen with your own player(launches your MP3 player)

VTBS 050130Z VRB03KT 8000 FEW020 28/23 Q1011 NOSIG

VTBS Flight Activity (Flightaware)

Listeners: 1 out of 1720 total

Bangkok Ground (East): 121.650
Bangkok Ground (Main): 121.750
Bangkok Ground (West): 121.950

VTBS Ground (East) (Archives)
Bangkok, Thailand

Feed Status: UP
Listen in your browser - HTML5 player(in browser, HTML5)
Click here to listen with your own player(launches your MP3 player)

VTBS 050130Z VRB03KT 8000 FEW020 28/23 Q1011 NOSIG

VTBS Flight Activity (Flightaware)

Listeners: 1 out of 1720 total

Bangkok Ground (East): 121.650

VTBS Ground (Main) (Archives)
Bangkok, Thailand

Feed Status: UP
Listen in your browser - HTML5 player(in browser, HTML5)
Click here to listen with your own player(launches your MP3 player)

VTBS 050130Z VRB03KT 8000 FEW020 28/23 Q1011 NOSIG

VTBS Flight Activity (Flightaware)

Listeners: 1 out of 1720 total

Bangkok Ground (Main): 121.750

VTBS Ground (West) (Archives)
Bangkok, Thailand

Feed Status: UP
Listen in your browser - HTML5 player(in browser, HTML5)
Click here to listen with your own player(launches your MP3 player)

VTBS 050130Z VRB03KT 8000 FEW020 28/23 Q1011 NOSIG

VTBS Flight Activity (Flightaware)

Listeners: 1 out of 1720 total

Bangkok Ground (West): 121.950

VTBS Tower (Archives)
Bangkok, Thailand

Feed Status: UP
Listen in your browser - HTML5 player(in browser, HTML5)
Click here to listen with your own player(launches your MP3 player)

VTBS 050130Z VRB03KT 8000 FEW020 28/23 Q1011 NOSIG

VTBS Flight Activity (Flightaware)

Listeners: 2 out of 1720 total

Bangkok Tower (Rwy 01L/19R): 119.000
Bangkok Tower (Rwy 01R/19L): 118.200

VTBS Tower (Rwy 01L/19R) (Archives)
Bangkok, Thailand

Feed Status: UP
Listen in your browser - HTML5 player(in browser, HTML5)
Click here to listen with your own player(launches your MP3 player)

VTBS 050130Z VRB03KT 8000 FEW020 28/23 Q1011 NOSIG

VTBS Flight Activity (Flightaware)

Listeners: 1 out of 1720 total

Bangkok Tower (Rwy 01L/19R): 119.000

VTBS Tower (Rwy 01R/19L) (Archives)
Bangkok, Thailand

Feed Status: UP
Listen in your browser - HTML5 player(in browser, HTML5)
Click here to listen with your own player(launches your MP3 player)

VTBS 050130Z VRB03KT 8000 FEW020 28/23 Q1011 NOSIG

VTBS Flight Activity (Flightaware)

Listeners: 1 out of 1720 total

Bangkok Tower (Rwy 01R/19L): 118.200

VTSS Approach (Archives)
Songkhla, Thailand

Feed Status: UP
Listen in your browser - HTML5 player(in browser, HTML5)
Click here to listen with your own player(launches your MP3 player)

VTSS 050130Z 04004KT 350V090 9999 FEW020 27/25 Q1010 NOSIG

VTSS Flight Activity (Flightaware)

Listeners: 1 out of 1720 total

Hat Yai Approach: 126.700

WAHH Approach
Yogyakarta, Indonesia

Feed Status: DOWN
Offline since: 2019-01-09 17:03:03 UTC

Adisutjipto Approach: 123.400

WBKK Gnd/Twr/Radar/Control (Archives)
Kota Kinabalu, Malaysia

Feed Status: UP
Listen in your browser - HTML5 player(in browser, HTML5)
Click here to listen with your own player(launches your MP3 player)

WBKK 050130Z VRB02KT 9999 FEW014 30/25 Q1009 NOSIG


Listeners: 13 out of 1720 total

Kinabalu Director: 119.100
Kinabalu Ground: 121.600
Kinabalu Radar: 126.100
Kinabalu Radar: 132.450
Kinabalu Radar: 128.300
Kinabalu Tower: 118.300

WBKS Approach (Archives)
Sandakan, Malaysia

Feed Status: UP
Listen in your browser - HTML5 player(in browser, HTML5)
Click here to listen with your own player(launches your MP3 player)

WBKS 050100Z 04007KT 360V070 9999 FEW016 29/24 Q1010


Listeners: 7 out of 1720 total

Sandakan Approach/Departure: 123.200

WBKS Emergency/Guard (Archives)
Sandakan, Malaysia

Feed Status: UP
Listen in your browser - HTML5 player(in browser, HTML5)
Click here to listen with your own player(launches your MP3 player)

WBKS 050100Z 04007KT 360V070 9999 FEW016 29/24 Q1010


Listeners: 1 out of 1720 total

Emergency/Guard: 121.500

WBKS Gnd/Twr/App/Guard (Archives)
Sandakan, Malaysia

Feed Status: UP
Listen in your browser - HTML5 player(in browser, HTML5)
Click here to listen with your own player(launches your MP3 player)

WBKS 050100Z 04007KT 360V070 9999 FEW016 29/24 Q1010


Listeners: 1 out of 1720 total

Emergency/Guard: 121.500
Sandakan Approach/Departure: 123.200
Sandakan Ground: 121.900
Sandakan Tower: 122.050

WBKS Ground (Archives)
Sandakan, Malaysia

Feed Status: UP
Listen in your browser - HTML5 player(in browser, HTML5)
Click here to listen with your own player(launches your MP3 player)

WBKS 050100Z 04007KT 360V070 9999 FEW016 29/24 Q1010


Listeners: 1 out of 1720 total

Sandakan Ground: 121.900

WBKS Tower (Archives)
Sandakan, Malaysia

Feed Status: UP
Listen in your browser - HTML5 player(in browser, HTML5)
Click here to listen with your own player(launches your MP3 player)

WBKS 050100Z 04007KT 360V070 9999 FEW016 29/24 Q1010


Listeners: 1 out of 1720 total

Sandakan Tower: 122.050

WMKB Radar (Archives)
Penang, Malaysia

Feed Status: UP
Listen in your browser - HTML5 player(in browser, HTML5)
Click here to listen with your own player(launches your MP3 player)

WMKB 050100Z 08003KT 030V120 9999 FEW017CB 26/22 Q1009 NOSIG


Listeners: 2 out of 1720 total

Butterworth Radar: 125.800

YADG CTAF (Archives)
Sellicks Hill, South Australia, Australia

Feed Status: UP
Listen in your browser - HTML5 player(in browser, HTML5)
Click here to listen with your own player(launches your MP3 player)

YADG Flight Activity (Flightaware)

Listeners: 0 out of 1720 total

Aldinga CTAF: 127.150

YBAF Gnd/Twr #2 (Archives)
Brisbane, Queensland, Australia

Feed Status: UP
Listen in your browser - HTML5 player(in browser, HTML5)
Click here to listen with your own player(launches your MP3 player)

YBAF Flight Activity (Flightaware)

Listeners: 2 out of 1720 total

Brisbane Ground: 119.900
Brisbane Tower (North): 123.600
Brisbane Tower/CTAF (South): 118.100

YBAS Tower/Center (Archives)
Alice Springs, Northern Territory, Australia

Feed Status: UP
Listen in your browser - HTML5 player(in browser, HTML5)
Click here to listen with your own player(launches your MP3 player)

YBAS 050130Z AUTO 12008KT 9999 // NCD 26/06 Q1015 RF00.0/000.0

YBAS Flight Activity (Flightaware)

Listeners: 2 out of 1720 total

Alice Tower/CTAF: 118.300
Melbourne Center (above FL280): 128.850
Melbourne Center (below FL280): 119.800

Brisbane Center (128.6/YSSY) (Archives)
Brisbane, Queensland, Australia

Feed Status: UP
Listen in your browser - HTML5 player(in browser, HTML5)
Click here to listen with your own player(launches your MP3 player)

YSSY 050130Z 13010KT CAVOK 26/09 Q1015

YSSY Flight Activity (Flightaware)

Listeners: 2 out of 1720 total

Brisbane Center: 128.600

YBBN Twr/App/Center (Archives)
Brisbane, Queensland, Australia

Feed Status: UP
Listen in your browser - HTML5 player(in browser, HTML5)
Click here to listen with your own player(launches your MP3 player)

YBBN 050130Z 12011KT 9999 FEW035 SCT070 29/21 Q1013 RF00/0/000/0

YBBN Flight Activity (Flightaware)

Listeners: 4 out of 1720 total

Brisbane Center (East): 134.300
Brisbane Center (West): 135.600
YBBN Approach North-West: 124.700
YBBN Approach South-East: 125.600
YBBN Tower 01L/19R (Northern Runway): 118.000
YBBN Tower 01R/19L (Southern Runway): 120.500

YBBN Twr/App/Dep (Archives)
Brisbane, Queensland, Australia

Feed Status: UP
Listen in your browser - HTML5 player(in browser, HTML5)
Click here to listen with your own player(launches your MP3 player)

YBBN 050130Z 12011KT 9999 FEW035 SCT070 29/21 Q1013 RF00/0/000/0

YBBN Flight Activity (Flightaware)

Listeners: 2 out of 1720 total

Brisbane Approach: 123.500
Brisbane Approach/Departure (North): 124.700
Brisbane Approach/Departure (South): 125.600
Brisbane Departure: 128.300
Brisbane Departure: 133.450
Brisbane Tower: 120.500

YBCG Approach (Archives)
Gold Coast City, Queensland, Australia

Feed Status: UP
Listen in your browser - HTML5 player(in browser, HTML5)
Click here to listen with your own player(launches your MP3 player)

YBCG 050130Z AUTO 11015KT 9999 // SCT029 29/21 Q1014 RF00.0/000.0

YBCG Flight Activity (Flightaware)

Listeners: 2 out of 1720 total

Brisbane Approach: 123.500

YBCG Area CTAF (Archives)
Gold Coast City, Queensland, Australia

Feed Status: UP
Listen in your browser - HTML5 player(in browser, HTML5)
Click here to listen with your own player(launches your MP3 player)

YBCG 050130Z AUTO 11015KT 9999 // SCT029 29/21 Q1014 RF00.0/000.0

YBCG Flight Activity (Flightaware)

Listeners: 1 out of 1720 total

YBCG Training/YTYH/YMUR : 127.550

YBCG Brisbane Centre (Archives)
Gold Coast City, Queensland, Australia

Feed Status: UP
Listen in your browser - HTML5 player(in browser, HTML5)
Click here to listen with your own player(launches your MP3 player)

YBCG 050130Z AUTO 11015KT 9999 // SCT029 29/21 Q1014 RF00.0/000.0

YBCG Flight Activity (Flightaware)

Listeners: 3 out of 1720 total

Brisbane Centre/Radar: 119.500

YBCG Ground (Archives)
Gold Coast City, Queensland, Australia

Feed Status: UP
Listen in your browser - HTML5 player(in browser, HTML5)
Click here to listen with your own player(launches your MP3 player)

YBCG 050130Z AUTO 11015KT 9999 // SCT029 29/21 Q1014 RF00.0/000.0

YBCG Flight Activity (Flightaware)

Listeners: 1 out of 1720 total

Gold Coast Ground: 121.800

YBCG Ground/Tower (Archives)
Gold Coast City, Queensland, Australia

Feed Status: UP
Listen in your browser - HTML5 player(in browser, HTML5)
Click here to listen with your own player(launches your MP3 player)

YBCG 050130Z AUTO 11015KT 9999 // SCT029 29/21 Q1014 RF00.0/000.0

YBCG Flight Activity (Flightaware)

Listeners: 1 out of 1720 total

Gold Coast Ground: 121.800
Gold Coast Tower: 118.700

YBCG Tower (Archives)
Gold Coast City, Queensland, Australia

Feed Status: UP
Listen in your browser - HTML5 player(in browser, HTML5)
Click here to listen with your own player(launches your MP3 player)

YBCG 050130Z AUTO 11015KT 9999 // SCT029 29/21 Q1014 RF00.0/000.0

YBCG Flight Activity (Flightaware)

Listeners: 2 out of 1720 total

Gold Coast Tower: 118.700

YBCS App/Dep #1 (Archives)
Cairns, Queensland, Australia

Feed Status: UP
Listen in your browser - HTML5 player(in browser, HTML5)
Click here to listen with your own player(launches your MP3 player)

YBCS 050200Z AUTO 27002KT 9999 // SCT006 BKN013 BKN022 29/27 Q1006

YBCS Flight Activity (Flightaware)

Listeners: 1 out of 1720 total

Cairns Approach/Departure: 118.400

YBCS App/Dep #2 (Archives)
Cairns, Queensland, Australia

Feed Status: UP
Listen in your browser - HTML5 player(in browser, HTML5)
Click here to listen with your own player(launches your MP3 player)

YBCS 050200Z AUTO 27002KT 9999 // SCT006 BKN013 BKN022 29/27 Q1006

YBCS Flight Activity (Flightaware)

Listeners: 1 out of 1720 total

Cairns Approach/Departure: 126.100

YBCS App/Dep (all) (Archives)
Cairns, Queensland, Australia

Feed Status: UP
Listen in your browser - HTML5 player(in browser, HTML5)
Click here to listen with your own player(launches your MP3 player)

YBCS 050200Z AUTO 27002KT 9999 // SCT006 BKN013 BKN022 29/27 Q1006

YBCS Flight Activity (Flightaware)

Listeners: 1 out of 1720 total

Cairns Approach/Departure: 126.100
Cairns Approach/Departure: 118.400

YBCS Brisbane Centre (Archives)
Cairns, Queensland, Australia

Feed Status: UP
Listen in your browser - HTML5 player(in browser, HTML5)
Click here to listen with your own player(launches your MP3 player)

YBCS 050200Z AUTO 27002KT 9999 // SCT006 BKN013 BKN022 29/27 Q1006

YBCS Flight Activity (Flightaware)

Listeners: 3 out of 1720 total

Brisbane Centre: 121.200

YBCS Emergency/Guard (Archives)
Cairns, Queensland, Australia

Feed Status: UP
Listen in your browser - HTML5 player(in browser, HTML5)
Click here to listen with your own player(launches your MP3 player)

YBCS 050200Z AUTO 27002KT 9999 // SCT006 BKN013 BKN022 29/27 Q1006

YBCS Flight Activity (Flightaware)

Listeners: 1 out of 1720 total

Emergency/Guard: 121.500

YBCS Ground (Archives)
Cairns, Queensland, Australia

Feed Status: UP
Listen in your browser - HTML5 player(in browser, HTML5)
Click here to listen with your own player(launches your MP3 player)

YBCS 050200Z AUTO 27002KT 9999 // SCT006 BKN013 BKN022 29/27 Q1006

YBCS Flight Activity (Flightaware)

Listeners: 1 out of 1720 total

Cairns Ground: 121.700

YBCS Ground/Tower (Archives)
Cairns, Queensland, Australia

Feed Status: UP
Listen in your browser - HTML5 player(in browser, HTML5)
Click here to listen with your own player(launches your MP3 player)

YBCS 050200Z AUTO 27002KT 9999 // SCT006 BKN013 BKN022 29/27 Q1006

YBCS Flight Activity (Flightaware)

Listeners: 3 out of 1720 total

Cairns Ground: 121.700
Cairns Tower: 124.900

YBCS Tower (Archives)
Cairns, Queensland, Australia

Feed Status: UP
Listen in your browser - HTML5 player(in browser, HTML5)
Click here to listen with your own player(launches your MP3 player)

YBCS 050200Z AUTO 27002KT 9999 // SCT006 BKN013 BKN022 29/27 Q1006

YBCS Flight Activity (Flightaware)

Listeners: 1 out of 1720 total

Cairns Tower: 124.900

YBCV CTAF/Brisbane Center (Archives)
Charleville, Queensland, Australia

Feed Status: UP
Listen in your browser - HTML5 player(in browser, HTML5)
Click here to listen with your own player(launches your MP3 player)


YBCV Flight Activity (Flightaware)

Listeners: 3 out of 1720 total

Brisbane Center: 124.800
Charleville CTAF/UNICOM: 126.700

YBDG Center (Archives)
Bendigo, Victoria, Australia

Feed Status: UP
Listen in your browser - HTML5 player(in browser, HTML5)
Click here to listen with your own player(launches your MP3 player)

YBDG Flight Activity (Flightaware)

Listeners: 0 out of 1720 total

Melbourne Center: 126.800

YBDG CTAF (Archives)
Bendigo, Victoria, Australia

Feed Status: UP
Listen in your browser - HTML5 player(in browser, HTML5)
Click here to listen with your own player(launches your MP3 player)

YBDG Flight Activity (Flightaware)

Listeners: 0 out of 1720 total

Bendigo CTAF: 119.300

YBOK Del/Gnd/Twr/App (Archives)
Oakey, Queensland, Australia

Feed Status: UP
Listen in your browser - HTML5 player(in browser, HTML5)
Click here to listen with your own player(launches your MP3 player)

YBOK Flight Activity (Flightaware)

Listeners: 2 out of 1720 total

Brisbane Center/FSS: 121.200
Oakey Approach: 125.400
Oakey Approach: 123.700
Oakey Approach (Final): 135.850
Oakey Clearance Delivery: 133.350
Oakey CTAF (+YTWB/YBWW): 127.650
Oakey Ground: 121.900
Oakey Tower: 120.100

YBSS CTAF (Archives)
Bacchus Marsh, Victoria, Australia

Feed Status: UP
Listen in your browser - HTML5 player(in browser, HTML5)
Click here to listen with your own player(launches your MP3 player)

YBSS Flight Activity (Flightaware)

Listeners: 0 out of 1720 total

Bacchus Marsh CTAF: 118.800

YBSS Glider 122.5 (Archives)
Bacchus Marsh, Victoria, Australia

Feed Status: UP
Listen in your browser - HTML5 player(in browser, HTML5)
Click here to listen with your own player(launches your MP3 player)

YBSS Flight Activity (Flightaware)

Listeners: 0 out of 1720 total

Bacchus Marsh Glider Chat: 122.500

YBSS Glider 122.7 (Archives)
Bacchus Marsh, Victoria, Australia

Feed Status: UP
Listen in your browser - HTML5 player(in browser, HTML5)
Click here to listen with your own player(launches your MP3 player)

YBSS Flight Activity (Flightaware)

Listeners: 0 out of 1720 total

Bacchus Marsh Glider Chat: 122.700

YBSS Glider 122.9 (Archives)
Bacchus Marsh, Victoria, Australia

Feed Status: UP
Listen in your browser - HTML5 player(in browser, HTML5)
Click here to listen with your own player(launches your MP3 player)

YBSS Flight Activity (Flightaware)

Listeners: 0 out of 1720 total

Bacchus Marsh Glider Chat: 122.900

YBTL Approach/Departure (Archives)
Townsville, Queensland, Australia

Feed Status: UP
Listen in your browser - HTML5 player(in browser, HTML5)
Click here to listen with your own player(launches your MP3 player)

YBTL 050130Z AUTO 06010KT 9999 // NCD 30/27 Q1007 RF00.0/000.0

YBTL Flight Activity (Flightaware)

Listeners: 2 out of 1720 total

Townsville Approach/Departure: 126.800

YBTL ATIS (Archives)
Townsville, Queensland, Australia

Feed Status: UP
Listen in your browser - HTML5 player(in browser, HTML5)
Click here to listen with your own player(launches your MP3 player)

YBTL 050130Z AUTO 06010KT 9999 // NCD 30/27 Q1007 RF00.0/000.0

YBTL Flight Activity (Flightaware)

Listeners: 1 out of 1720 total

Townsville ATIS: 133.500

YBTL Brisbane Center (Archives)
Townsville, Queensland, Australia

Feed Status: UP
Listen in your browser - HTML5 player(in browser, HTML5)
Click here to listen with your own player(launches your MP3 player)

YBTL 050130Z AUTO 06010KT 9999 // NCD 30/27 Q1007 RF00.0/000.0

YBTL Flight Activity (Flightaware)

Listeners: 3 out of 1720 total

Brisbane Center: 120.550

YBTL Clearance Delivery (Archives)
Townsville, Queensland, Australia

Feed Status: UP
Listen in your browser - HTML5 player(in browser, HTML5)
Click here to listen with your own player(launches your MP3 player)

YBTL 050130Z AUTO 06010KT 9999 // NCD 30/27 Q1007 RF00.0/000.0

YBTL Flight Activity (Flightaware)

Listeners: 1 out of 1720 total

Townsville Clearance Delivery: 128.100

YBTL Ground (Archives)
Townsville, Queensland, Australia

Feed Status: UP
Listen in your browser - HTML5 player(in browser, HTML5)
Click here to listen with your own player(launches your MP3 player)

YBTL 050130Z AUTO 06010KT 9999 // NCD 30/27 Q1007 RF00.0/000.0

YBTL Flight Activity (Flightaware)

Listeners: 1 out of 1720 total

Townsville Ground: 119.450

YBTL Tower (Archives)
Townsville, Queensland, Australia

Feed Status: UP
Listen in your browser - HTML5 player(in browser, HTML5)
Click here to listen with your own player(launches your MP3 player)

YBTL 050130Z AUTO 06010KT 9999 // NCD 30/27 Q1007 RF00.0/000.0

YBTL Flight Activity (Flightaware)

Listeners: 1 out of 1720 total

Townsville Tower: 118.300

YGAW CTAF (Archives)
Gawler, South Australia, Australia

Feed Status: UP
Listen in your browser - HTML5 player(in browser, HTML5)
Click here to listen with your own player(launches your MP3 player)


YGAW Flight Activity (Flightaware)

Listeners: 0 out of 1720 total

Gawler CTAF: 126.550

YGLA CTAF
Gladstone, Queensland, Australia

Feed Status: DOWN
Offline since: 2022-08-07 00:32:24 UTC

YGLA 050130Z AUTO 09011KT 9999 // SCT026 32/24 Q1010 RF00.0/000.0

Gladstone CTF/Multicom: 118.800

YGTH AWIS
Griffith, New South Wales, Australia

Feed Status: DOWN
Offline since: 2022-12-23 23:07:39 UTC


Griffith AWIS Weather: 132.950

YGTH CTAF
Griffith, New South Wales, Australia

Feed Status: DOWN
Offline since: 2022-12-23 23:07:39 UTC


Griffith CTAF: 126.550

YIVL CTAF/Center (Archives)
Inverell, New South Wales, Australia

Feed Status: UP
Listen in your browser - HTML5 player(in browser, HTML5)
Click here to listen with your own player(launches your MP3 player)

YIVL Flight Activity (Flightaware)

Listeners: 2 out of 1720 total

Brisbane Center: 132.350
Brisbane Center: 127.100
Brisbane Center: 130.900
Brisbane Center (high alt SE Inverell): 130.100
Brisbane Center (high alt): 133.000
Brisbane Center (NE Inverell): 134.200
Brisbane Center (North and East Inverell): 127.200
Brisbane Center (North Inverell high alt): 135.600
Brisbane Center (North Inverell): 121.200
Brisbane Center (SE Inverell): 125.750
Inverell CTAF: 126.700
Tamworth Tower: 119.400

YMAV Del/App (Archives)
Avalon, Victoria, Australia

Feed Status: UP
Listen in your browser - HTML5 player(in browser, HTML5)
Click here to listen with your own player(launches your MP3 player)

YMAV 050130Z AUTO 26008KT 9999 // BKN037 OVC043 19/12 Q1017

YMAV Flight Activity (Flightaware)

Listeners: 1 out of 1720 total

Avalon Clearance Delivery: 120.100
Melbourne Approach/Departure: 133.550

YMHB Twr/Centre/Misc (Archives)
Cambridge, Tasmania, Australia

Feed Status: UP
Listen in your browser - HTML5 player(in browser, HTML5)
Click here to listen with your own player(launches your MP3 player)

YMHB 050130Z 15010KT 100V170 9999 FEW045 21/08 Q1011 RF00.0/000.2

YMHB Flight Activity (Flightaware)

Listeners: 1 out of 1720 total

Air to Air: 123.450
Area CTAF: 126.700
Helicopter Resources Company: 126.400
Hobart Approach: 125.550
Hobart Tower: 118.100
Jetstar Company: 130.925
Launceston Approach: 123.800
Launceston Tower: 118.700
Melbourne Centre: 126.500
Qantas Company: 129.500
Rotor Lift Company: 131.600
Virgin Company: 130.350

YMIA CTAF (Archives)
Mildura, Victoria, Australia

Feed Status: UP
Listen in your browser - HTML5 player(in browser, HTML5)
Click here to listen with your own player(launches your MP3 player)


YMIA Flight Activity (Flightaware)

Listeners: 0 out of 1720 total

Mildura CTAF: 118.800

YMIA Melbourne Center (Archives)
Mildura, Victoria, Australia

Feed Status: UP
Listen in your browser - HTML5 player(in browser, HTML5)
Click here to listen with your own player(launches your MP3 player)


YMIA Flight Activity (Flightaware)

Listeners: 0 out of 1720 total

Melbourne Center: 122.100

YMML Twr/App/Center
Melbourne, Victoria, Australia

Feed Status: DOWN
Offline since: 2023-01-30 08:22:39 UTC

YMML 050130Z 24010KT 9999 FEW032 BKN039 19/09 Q1018 RF00.0/000.0

Air Ambulance: 132.750
DSE & Other Company: 119.100
Essendon Tower: 125.100
Inter-Pilot: 123.450
Jetstar Company: 130.925
Melbourne ACD: 127.200
Melbourne Approach: 132.000
Melbourne Centre: 130.300
Melbourne Centre: 128.500
Melbourne Centre: 126.800
Melbourne Centre: 125.800
Melbourne Centre: 125.700
Melbourne Centre: 125.200
Melbourne Centre: 123.750
Melbourne Centre: 122.400
Melbourne Departure: 118.900
Melbourne Departure: 129.400
Melbourne Tower: 120.500
Moorabbin Tower (East): 118.100
Moorabbin Tower (West): 123.000
Police Air Wing: 131.600
Qantas Company: 130.850
Qantas Company: 129.500
Rex Company: 126.450
Royal Victorian Aero Club Company: 128.700
Royal Victorian Aero Club Company: 133.400

YPAD Del/Gnd/Twr/App (Archives)
Adelaide, South Australia, Australia

Feed Status: UP
Listen in your browser - HTML5 player(in browser, HTML5)
Click here to listen with your own player(launches your MP3 player)

YPAD 050130Z 23010KT 200V270 9999 FEW040 20/11 Q1019 RF00.0/000.0

YPAD Flight Activity (Flightaware)

Listeners: 1 out of 1720 total

Adelaide Approach (East of Adelaide): 118.200
Adelaide Approach (East of Adelaide): 130.450
Adelaide Approach (Kangaroo Island): 123.050
Adelaide Approach (North of Adelaide): 128.600
Adelaide Approach (West of Adelaide): 124.200
Adelaide Clearance Delivery: 126.100
Adelaide Ground: 121.700
Adelaide Tower: 120.500

YPAD Gnd/Twr/App/Center (Archives)
Adelaide, South Australia, Australia

Feed Status: UP
Listen in your browser - HTML5 player(in browser, HTML5)
Click here to listen with your own player(launches your MP3 player)

YPAD 050130Z 23010KT 200V270 9999 FEW040 20/11 Q1019 RF00.0/000.0

YPAD Flight Activity (Flightaware)

Listeners: 5 out of 1720 total

Adelaide Approach (East of Adelaide): 118.200
Adelaide Approach (East of Adelaide): 130.450
Adelaide Approach (Kangaroo Island): 123.050
Adelaide Approach (North of Adelaide): 128.600
Adelaide Approach (West of Adelaide): 124.200
Adelaide Clearance Delivery: 126.100
Adelaide Ground: 121.700
Adelaide Tower: 120.500
Flight Watch: 135.750
Melbourne Centre: 124.300
Melbourne Centre ( East of Adelaide): 125.300
Melbourne Centre ( Pt Augusta, Pt Pirie, Whyalla): 123.900
Melbourne Centre (Mildura): 122.100
Melbourne Centre (North of Adelaide): 122.400
Melbourne Centre (Pt Lincoln): 125.900
Melbourne Centre (West of Adelaide ): 127.050

YPDN Gnd/Twr/App/Dep (Archives)
Darwin, Northern Territory, Australia

Feed Status: UP
Listen in your browser - HTML5 player(in browser, HTML5)
Click here to listen with your own player(launches your MP3 player)

YPDN 050130Z 17003KT 9999 BKN024 SCT380 30/24 Q1006 RF00.0/000.0

YPDN Flight Activity (Flightaware)

Listeners: 4 out of 1720 total

Darwin Approach: 134.100
Darwin Arrival: 125.200
Darwin Departure: 119.550
Darwin Ground: 121.800
Darwin Tower: 133.100

YPJT Gnd/Twr (Archives)
Perth, Western Australia, Australia

Feed Status: UP
Listen in your browser - HTML5 player(in browser, HTML5)
Click here to listen with your own player(launches your MP3 player)

YPJT 050130Z AUTO 36008KT 330V030 9999 // NCD 30/14 Q1006 RF00.0/000.0

YPJT Flight Activity (Flightaware)

Listeners: 0 out of 1720 total

Jandakot Ground: 124.300
Jandakot Tower: 119.400
Jandakot Tower/CTAF: 118.100

YPJT Perth Center (Archives)
Perth, Western Australia, Australia

Feed Status: UP
Listen in your browser - HTML5 player(in browser, HTML5)
Click here to listen with your own player(launches your MP3 player)

YPJT 050130Z AUTO 36008KT 330V030 9999 // NCD 30/14 Q1006 RF00.0/000.0

YPJT Flight Activity (Flightaware)

Listeners: 0 out of 1720 total

Perth Center: 135.250

YPMQ CTAF (Archives)
Port Macquarie, New South Wales, Australia

Feed Status: UP
Listen in your browser - HTML5 player(in browser, HTML5)
Click here to listen with your own player(launches your MP3 player)

YPMQ Flight Activity (Flightaware)

Listeners: 0 out of 1720 total

Port Macquarie CTAF/Multicom: 118.100

YPPH Approach #1 (Archives)
Perth, Western Australia, Australia

Feed Status: UP
Listen in your browser - HTML5 player(in browser, HTML5)
Click here to listen with your own player(launches your MP3 player)

YPPH 050130Z 01009KT CAVOK 31/11 Q1006

YPPH Flight Activity (Flightaware)

Listeners: 1 out of 1720 total

Perth Approach: 123.600

YPPH Approach #2 (Archives)
Perth, Western Australia, Australia

Feed Status: UP
Listen in your browser - HTML5 player(in browser, HTML5)
Click here to listen with your own player(launches your MP3 player)

YPPH 050130Z 01009KT CAVOK 31/11 Q1006

YPPH Flight Activity (Flightaware)

Listeners: 0 out of 1720 total

Perth Approach: 123.600

YPPH Departure (Archives)
Perth, Western Australia, Australia

Feed Status: UP
Listen in your browser - HTML5 player(in browser, HTML5)
Click here to listen with your own player(launches your MP3 player)

YPPH 050130Z 01009KT CAVOK 31/11 Q1006

YPPH Flight Activity (Flightaware)

Listeners: 2 out of 1720 total

Perth Departure: 118.700

YPPH Ground (Archives)
Perth, Western Australia, Australia

Feed Status: UP
Listen in your browser - HTML5 player(in browser, HTML5)
Click here to listen with your own player(launches your MP3 player)

YPPH 050130Z 01009KT CAVOK 31/11 Q1006

YPPH Flight Activity (Flightaware)

Listeners: 0 out of 1720 total

Perth Ground: 121.700

YPPH Tower #1 (Archives)
Perth, Western Australia, Australia

Feed Status: UP
Listen in your browser - HTML5 player(in browser, HTML5)
Click here to listen with your own player(launches your MP3 player)

YPPH 050130Z 01009KT CAVOK 31/11 Q1006

YPPH Flight Activity (Flightaware)

Listeners: 1 out of 1720 total

Perth Tower: 127.400

YPPH Tower #2 (Archives)
Perth, Western Australia, Australia

Feed Status: UP
Listen in your browser - HTML5 player(in browser, HTML5)
Click here to listen with your own player(launches your MP3 player)

YPPH 050130Z 01009KT CAVOK 31/11 Q1006

YPPH Flight Activity (Flightaware)

Listeners: 0 out of 1720 total

Perth Tower: 127.400

YRYW 122.5
Raywood, Victoria, Australia

Feed Status: DOWN
Offline since: 2022-08-28 05:50:41 UTC



YRYW 122.7
Raywood, Victoria, Australia

Feed Status: DOWN
Offline since: 2022-08-28 05:50:41 UTC



YRYW 122.9
Raywood, Victoria, Australia

Feed Status: DOWN
Offline since: 2022-08-28 05:50:41 UTC



YRYW CTAF
Raywood, Victoria, Australia

Feed Status: DOWN
Offline since: 2022-08-28 04:50:23 UTC


Raywood CTAF: 119.300

YSBK ATIS (Archives)
Bankstown, New South Wales, Australia

Feed Status: UP
Listen in your browser - HTML5 player(in browser, HTML5)
Click here to listen with your own player(launches your MP3 player)

YSBK Flight Activity (Flightaware)

Listeners: 0 out of 1720 total

Bankstown ATIS: 120.900

YSBK R405A VFR (Archives)
Bankstown, New South Wales, Australia

Feed Status: UP
Listen in your browser - HTML5 player(in browser, HTML5)
Click here to listen with your own player(launches your MP3 player)

YSBK Flight Activity (Flightaware)

Listeners: 0 out of 1720 total

Bankstown R405A VFR Access Lane YSBK/YSSY: 120.800

YSBK Tower (Archives)
Bankstown, New South Wales, Australia

Feed Status: UP
Listen in your browser - HTML5 player(in browser, HTML5)
Click here to listen with your own player(launches your MP3 player)

YSBK Flight Activity (Flightaware)

Listeners: 4 out of 1720 total

Bankstown Tower: 132.800

Melbourne Center (124.1) (Archives)
Canberra, Australian Capital Territory, Australia

Feed Status: UP
Listen in your browser - HTML5 player(in browser, HTML5)
Click here to listen with your own player(launches your MP3 player)

YSCB 050130Z AUTO 26005KT 210V320 9999 // NCD 24/07 Q1016 RF00.0/000.0

YSCB Flight Activity (Flightaware)

Listeners: 0 out of 1720 total

Melbourne Center: 124.100

Melbourne Center (128.4) (Archives)
Canberra, Australian Capital Territory, Australia

Feed Status: UP
Listen in your browser - HTML5 player(in browser, HTML5)
Click here to listen with your own player(launches your MP3 player)

YSCB 050130Z AUTO 26005KT 210V320 9999 // NCD 24/07 Q1016 RF00.0/000.0

YSCB Flight Activity (Flightaware)

Listeners: 0 out of 1720 total

Melbourne Center: 128.400

YSCB App/Dep (Archives)
Canberra, Australian Capital Territory, Australia

Feed Status: UP
Listen in your browser - HTML5 player(in browser, HTML5)
Click here to listen with your own player(launches your MP3 player)

YSCB 050130Z AUTO 26005KT 210V320 9999 // NCD 24/07 Q1016 RF00.0/000.0

YSCB Flight Activity (Flightaware)

Listeners: 0 out of 1720 total

Canberra Approach/Departure (East): 124.500
Canberra Approach/Departure (West): 125.900

YSCB App/Dep (East) (Archives)
Canberra, Australian Capital Territory, Australia

Feed Status: UP
Listen in your browser - HTML5 player(in browser, HTML5)
Click here to listen with your own player(launches your MP3 player)

YSCB 050130Z AUTO 26005KT 210V320 9999 // NCD 24/07 Q1016 RF00.0/000.0

YSCB Flight Activity (Flightaware)

Listeners: 0 out of 1720 total

Canberra Approach/Departure (East): 124.500

YSCB App/Dep (West) (Archives)
Canberra, Australian Capital Territory, Australia

Feed Status: UP
Listen in your browser - HTML5 player(in browser, HTML5)
Click here to listen with your own player(launches your MP3 player)

YSCB 050130Z AUTO 26005KT 210V320 9999 // NCD 24/07 Q1016 RF00.0/000.0

YSCB Flight Activity (Flightaware)

Listeners: 0 out of 1720 total

Canberra Approach/Departure (West): 125.900

YSCB ATIS (Archives)
Canberra, Australian Capital Territory, Australia

Feed Status: UP
Listen in your browser - HTML5 player(in browser, HTML5)
Click here to listen with your own player(launches your MP3 player)

YSCB 050130Z AUTO 26005KT 210V320 9999 // NCD 24/07 Q1016 RF00.0/000.0

YSCB Flight Activity (Flightaware)

Listeners: 0 out of 1720 total

Canberra ATIS: 127.450

YSCB Tower (Archives)
Canberra, Australian Capital Territory, Australia

Feed Status: UP
Listen in your browser - HTML5 player(in browser, HTML5)
Click here to listen with your own player(launches your MP3 player)

YSCB 050130Z AUTO 26005KT 210V320 9999 // NCD 24/07 Q1016 RF00.0/000.0

YSCB Flight Activity (Flightaware)

Listeners: 0 out of 1720 total

Canberra Tower: 118.700

YSCB Twr/App/Dep (Archives)
Canberra, Australian Capital Territory, Australia

Feed Status: UP
Listen in your browser - HTML5 player(in browser, HTML5)
Click here to listen with your own player(launches your MP3 player)

YSCB 050130Z AUTO 26005KT 210V320 9999 // NCD 24/07 Q1016 RF00.0/000.0

YSCB Flight Activity (Flightaware)

Listeners: 0 out of 1720 total

Canberra Approach/Departure (East): 124.500
Canberra Approach/Departure (West): 125.900
Canberra Tower: 118.700

YSCN Tower/CTAF
Camden, New South Wales, Australia

Feed Status: DOWN
Offline since: 2023-01-11 21:23:40 UTC

Camden Tower/CTAF: 120.100

YSNW Gnd/CTAF/App/Center
Nowra, New South Wales, Australia

Feed Status: DOWN
Offline since: 2022-01-31 23:44:05 UTC


Enroute: 132.300
Nowra Approach: 123.500
Nowra CTAF: 118.850
Nowra Ground: 135.850

Brisbane Center (124.625/YSSY) (Archives)
Sydney, New South Wales, Australia

Feed Status: UP
Listen in your browser - HTML5 player(in browser, HTML5)
Click here to listen with your own player(launches your MP3 player)

YSSY 050130Z 13010KT CAVOK 26/09 Q1015

YSSY Flight Activity (Flightaware)

Listeners: 2 out of 1720 total

Brisbane Center: 124.625

Brisbane Center (124.95/YSSY) (Archives)
Sydney, New South Wales, Australia

Feed Status: UP
Listen in your browser - HTML5 player(in browser, HTML5)
Click here to listen with your own player(launches your MP3 player)

YSSY 050130Z 13010KT CAVOK 26/09 Q1015

YSSY Flight Activity (Flightaware)

Listeners: 1 out of 1720 total

Brisbane Center: 124.950

Brisbane Center (125.0/YSSY) (Archives)
Sydney, New South Wales, Australia

Feed Status: UP
Listen in your browser - HTML5 player(in browser, HTML5)
Click here to listen with your own player(launches your MP3 player)

YSSY 050130Z 13010KT CAVOK 26/09 Q1015

YSSY Flight Activity (Flightaware)

Listeners: 1 out of 1720 total

Brisbane Center: 125.000

Brisbane Center (128.6/YSSY) (Archives)
Sydney, New South Wales, Australia

Feed Status: UP
Listen in your browser - HTML5 player(in browser, HTML5)
Click here to listen with your own player(launches your MP3 player)

YSSY 050130Z 13010KT CAVOK 26/09 Q1015

YSSY Flight Activity (Flightaware)

Listeners: 2 out of 1720 total

Brisbane Center: 128.600

YSSY Approach (North/East) (Archives)
Sydney, New South Wales, Australia

Feed Status: UP
Listen in your browser - HTML5 player(in browser, HTML5)
Click here to listen with your own player(launches your MP3 player)

YSSY 050130Z 13010KT CAVOK 26/09 Q1015

YSSY Flight Activity (Flightaware)

Listeners: 2 out of 1720 total

Sydney Approach (North/East): 124.400

YSSY Approach (South) (Archives)
Sydney, New South Wales, Australia

Feed Status: UP
Listen in your browser - HTML5 player(in browser, HTML5)
Click here to listen with your own player(launches your MP3 player)

YSSY 050130Z 13010KT CAVOK 26/09 Q1015

YSSY Flight Activity (Flightaware)

Listeners: 2 out of 1720 total

Sydney Approach (South/West): 128.300

YSSY ATIS (Archives)
Sydney, New South Wales, Australia

Feed Status: UP
Listen in your browser - HTML5 player(in browser, HTML5)
Click here to listen with your own player(launches your MP3 player)

YSSY 050130Z 13010KT CAVOK 26/09 Q1015

YSSY Flight Activity (Flightaware)

Listeners: 1 out of 1720 total

Sydney ATIS: 118.550

YSSY Center (South/West) (Archives)
Sydney, New South Wales, Australia

Feed Status: UP
Listen in your browser - HTML5 player(in browser, HTML5)
Click here to listen with your own player(launches your MP3 player)

YSSY 050130Z 13010KT CAVOK 26/09 Q1015

YSSY Flight Activity (Flightaware)

Listeners: 2 out of 1720 total

Sydney Center: 124.550

YSSY Del/Gnd (Archives)
Sydney, New South Wales, Australia

Feed Status: UP
Listen in your browser - HTML5 player(in browser, HTML5)
Click here to listen with your own player(launches your MP3 player)

YSSY 050130Z 13010KT CAVOK 26/09 Q1015

YSSY Flight Activity (Flightaware)

Listeners: 5 out of 1720 total

Sydney Clearance Delivery: 133.800
Sydney Ground (East of Rwys 16R/34L): 121.700
Sydney Ground (West of Rwys 16R/34L): 126.500

YSSY Departure (North/East) (Archives)
Sydney, New South Wales, Australia

Feed Status: UP
Listen in your browser - HTML5 player(in browser, HTML5)
Click here to listen with your own player(launches your MP3 player)

YSSY 050130Z 13010KT CAVOK 26/09 Q1015

YSSY Flight Activity (Flightaware)

Listeners: 3 out of 1720 total

Sydney Departure (North/East): 123.000

YSSY Departure (South/West) (Archives)
Sydney, New South Wales, Australia

Feed Status: UP
Listen in your browser - HTML5 player(in browser, HTML5)
Click here to listen with your own player(launches your MP3 player)

YSSY 050130Z 13010KT CAVOK 26/09 Q1015

YSSY Flight Activity (Flightaware)

Listeners: 1 out of 1720 total

Sydney Departure (Rte S, W and NW): 129.700

YSSY Director (Both)
Sydney, New South Wales, Australia

Feed Status: DOWN
Offline since: 2020-04-14 09:59:06 UTC

YSSY 050130Z 13010KT CAVOK 26/09 Q1015

Sydney Director (East): 125.300
Sydney Director (West): 126.100

YSSY Director (East) (Archives)
Sydney, New South Wales, Australia

Feed Status: UP
Listen in your browser - HTML5 player(in browser, HTML5)
Click here to listen with your own player(launches your MP3 player)

YSSY 050130Z 13010KT CAVOK 26/09 Q1015

YSSY Flight Activity (Flightaware)

Listeners: 1 out of 1720 total

Sydney Director (East): 125.300

YSSY Tower (Both) (Archives)
Sydney, New South Wales, Australia

Feed Status: UP
Listen in your browser - HTML5 player(in browser, HTML5)
Click here to listen with your own player(launches your MP3 player)

YSSY 050130Z 13010KT CAVOK 26/09 Q1015

YSSY Flight Activity (Flightaware)

Listeners: 4 out of 1720 total

Sydney Tower (Rwy 16L/34R): 124.700
Sydney Tower (Rwy 16R/34L, Rwy 07/25): 120.500

YSSY Tower (Rwy 16L/34R) (Archives)
Sydney, New South Wales, Australia

Feed Status: UP
Listen in your browser - HTML5 player(in browser, HTML5)
Click here to listen with your own player(launches your MP3 player)

YSSY 050130Z 13010KT CAVOK 26/09 Q1015

YSSY Flight Activity (Flightaware)

Listeners: 2 out of 1720 total

Sydney Tower (Rwy 16L/34R): 124.700

YSSY Tower (Rwys 16R/34L,7/25) (Archives)
Sydney, New South Wales, Australia

Feed Status: UP
Listen in your browser - HTML5 player(in browser, HTML5)
Click here to listen with your own player(launches your MP3 player)

YSSY 050130Z 13010KT CAVOK 26/09 Q1015

YSSY Flight Activity (Flightaware)

Listeners: 1 out of 1720 total

Sydney Tower (Rwy 16R/34L, Rwy 07/25): 120.500

YSTW Gnd/Twr/Center (Archives)
Tamworth, New South Wales, Australia

Feed Status: UP
Listen in your browser - HTML5 player(in browser, HTML5)
Click here to listen with your own player(launches your MP3 player)

YSTW 050130Z AUTO 34004KT 9999 // NCD 28/05 Q1016 RF00.0/000.0

YSTW Flight Activity (Flightaware)

Listeners: 1 out of 1720 total

Brisbane Center: 127.100
Tamworth Ground: 121.900
Tamworth Tower: 118.250
Tamworth Tower: 119.400

YWBN CTAF/Center (Archives)
Wedderburn, New South Wales, Australia

Feed Status: UP
Listen in your browser - HTML5 player(in browser, HTML5)
Click here to listen with your own player(launches your MP3 player)

YWBN Flight Activity (Flightaware)

Listeners: 0 out of 1720 total

Sydney Center: 124.550
Wedderburn CTAF/Multicom: 122.550